<?xml version="1.0" encoding="UTF-8" standalone="no" ?>
<gpx xmlns="http://www.topografix.com/GPX/1/1" xmlns:xsi="http://www.w3.org/2001/XMLSchema-instance" xsi:schemaLocation="http://www.topografix.com/GPX/1/1 http://www.topografix.com/GPX/1/1/gpx.xsd" version="1.1" creator="VisuGPX - https://www.visugpx.com">
  <metadata>
    <name>Sables d'or les pins Pleneuf Val André</name>
    <desc><![CDATA[10éme étape du circuit Mont St Michel St Brieuc]]></desc>
  </metadata>
  <trk>
    <name><![CDATA[2016-07-06-02]]></name>
    <trkseg>
      <trkpt lat="48.62574" lon="-2.40898">
        <ele>27.3</ele>
        <time>2016-07-06T06:34:46Z</time>
      </trkpt>
      <trkpt lat="48.62574" lon="-2.40898">
        <ele>27.5</ele>
        <time>2016-07-06T06:34:47Z</time>
      </trkpt>
      <trkpt lat="48.6257" lon="-2.4091">
        <ele>29.4</ele>
        <time>2016-07-06T06:35:07Z</time>
      </trkpt>
      <trkpt lat="48.62571" lon="-2.40925">
        <ele>28.4</ele>
        <time>2016-07-06T06:35:19Z</time>
      </trkpt>
      <trkpt lat="48.62579" lon="-2.40935">
        <ele>28.1</ele>
        <time>2016-07-06T06:35:41Z</time>
      </trkpt>
      <trkpt lat="48.62587" lon="-2.40939">
        <ele>27.1</ele>
        <time>2016-07-06T06:35:51Z</time>
      </trkpt>
      <trkpt lat="48.62596" lon="-2.40944">
        <ele>26.6</ele>
        <time>2016-07-06T06:35:59Z</time>
      </trkpt>
      <trkpt lat="48.62605" lon="-2.40948">
        <ele>27.5</ele>
        <time>2016-07-06T06:36:09Z</time>
      </trkpt>
      <trkpt lat="48.62607" lon="-2.40961">
        <ele>27.3</ele>
        <time>2016-07-06T06:36:19Z</time>
      </trkpt>
      <trkpt lat="48.62607" lon="-2.40976">
        <ele>27.8</ele>
        <time>2016-07-06T06:36:29Z</time>
      </trkpt>
      <trkpt lat="48.62604" lon="-2.40989">
        <ele>27.3</ele>
        <time>2016-07-06T06:36:47Z</time>
      </trkpt>
      <trkpt lat="48.62601" lon="-2.41003">
        <ele>27.3</ele>
        <time>2016-07-06T06:36:56Z</time>
      </trkpt>
      <trkpt lat="48.62597" lon="-2.41016">
        <ele>25.3</ele>
        <time>2016-07-06T06:37:07Z</time>
      </trkpt>
      <trkpt lat="48.62592" lon="-2.41029">
        <ele>24.9</ele>
        <time>2016-07-06T06:37:16Z</time>
      </trkpt>
      <trkpt lat="48.62586" lon="-2.41042">
        <ele>24.4</ele>
        <time>2016-07-06T06:37:28Z</time>
      </trkpt>
      <trkpt lat="48.62581" lon="-2.41055">
        <ele>23.4</ele>
        <time>2016-07-06T06:37:37Z</time>
      </trkpt>
      <trkpt lat="48.62576" lon="-2.41067">
        <ele>23</ele>
        <time>2016-07-06T06:37:46Z</time>
      </trkpt>
      <trkpt lat="48.6257" lon="-2.41078">
        <ele>22.2</ele>
        <time>2016-07-06T06:37:54Z</time>
      </trkpt>
      <trkpt lat="48.62565" lon="-2.4109">
        <ele>21.7</ele>
        <time>2016-07-06T06:38:05Z</time>
      </trkpt>
      <trkpt lat="48.62562" lon="-2.41104">
        <ele>21.4</ele>
        <time>2016-07-06T06:38:14Z</time>
      </trkpt>
      <trkpt lat="48.62561" lon="-2.41119">
        <ele>20.9</ele>
        <time>2016-07-06T06:38:22Z</time>
      </trkpt>
      <trkpt lat="48.62557" lon="-2.41132">
        <ele>21.9</ele>
        <time>2016-07-06T06:38:29Z</time>
      </trkpt>
      <trkpt lat="48.62555" lon="-2.41147">
        <ele>21.9</ele>
        <time>2016-07-06T06:38:37Z</time>
      </trkpt>
      <trkpt lat="48.62555" lon="-2.41162">
        <ele>23.9</ele>
        <time>2016-07-06T06:38:48Z</time>
      </trkpt>
      <trkpt lat="48.62554" lon="-2.41177">
        <ele>23.1</ele>
        <time>2016-07-06T06:38:57Z</time>
      </trkpt>
      <trkpt lat="48.62553" lon="-2.41191">
        <ele>23.7</ele>
        <time>2016-07-06T06:39:06Z</time>
      </trkpt>
      <trkpt lat="48.62551" lon="-2.41205">
        <ele>23.5</ele>
        <time>2016-07-06T06:39:14Z</time>
      </trkpt>
      <trkpt lat="48.6255" lon="-2.41219">
        <ele>24.5</ele>
        <time>2016-07-06T06:39:22Z</time>
      </trkpt>
      <trkpt lat="48.62548" lon="-2.41233">
        <ele>23.7</ele>
        <time>2016-07-06T06:39:31Z</time>
      </trkpt>
      <trkpt lat="48.62546" lon="-2.41247">
        <ele>23.8</ele>
        <time>2016-07-06T06:39:44Z</time>
      </trkpt>
      <trkpt lat="48.62544" lon="-2.4126">
        <ele>23.6</ele>
        <time>2016-07-06T06:39:54Z</time>
      </trkpt>
      <trkpt lat="48.62542" lon="-2.41275">
        <ele>24.8</ele>
        <time>2016-07-06T06:40:03Z</time>
      </trkpt>
      <trkpt lat="48.62541" lon="-2.4129">
        <ele>24.7</ele>
        <time>2016-07-06T06:40:12Z</time>
      </trkpt>
      <trkpt lat="48.62541" lon="-2.41305">
        <ele>24.6</ele>
        <time>2016-07-06T06:40:21Z</time>
      </trkpt>
      <trkpt lat="48.6254" lon="-2.4132">
        <ele>24.3</ele>
        <time>2016-07-06T06:40:29Z</time>
      </trkpt>
      <trkpt lat="48.62539" lon="-2.41334">
        <ele>24.7</ele>
        <time>2016-07-06T06:40:37Z</time>
      </trkpt>
      <trkpt lat="48.62538" lon="-2.41348">
        <ele>24.2</ele>
        <time>2016-07-06T06:40:46Z</time>
      </trkpt>
      <trkpt lat="48.62536" lon="-2.41363">
        <ele>23.9</ele>
        <time>2016-07-06T06:40:55Z</time>
      </trkpt>
      <trkpt lat="48.62534" lon="-2.41377">
        <ele>24.8</ele>
        <time>2016-07-06T06:41:04Z</time>
      </trkpt>
      <trkpt lat="48.62531" lon="-2.41391">
        <ele>24.8</ele>
        <time>2016-07-06T06:41:13Z</time>
      </trkpt>
      <trkpt lat="48.62529" lon="-2.41405">
        <ele>24.8</ele>
        <time>2016-07-06T06:41:21Z</time>
      </trkpt>
      <trkpt lat="48.62526" lon="-2.41418">
        <ele>24.7</ele>
        <time>2016-07-06T06:41:29Z</time>
      </trkpt>
      <trkpt lat="48.62524" lon="-2.41432">
        <ele>26.2</ele>
        <time>2016-07-06T06:41:41Z</time>
      </trkpt>
      <trkpt lat="48.62522" lon="-2.41446">
        <ele>25.1</ele>
        <time>2016-07-06T06:41:49Z</time>
      </trkpt>
      <trkpt lat="48.6252" lon="-2.41459">
        <ele>26.7</ele>
        <time>2016-07-06T06:41:57Z</time>
      </trkpt>
      <trkpt lat="48.62517" lon="-2.41474">
        <ele>25.6</ele>
        <time>2016-07-06T06:42:06Z</time>
      </trkpt>
      <trkpt lat="48.62515" lon="-2.41487">
        <ele>26</ele>
        <time>2016-07-06T06:42:14Z</time>
      </trkpt>
      <trkpt lat="48.62513" lon="-2.41501">
        <ele>25.3</ele>
        <time>2016-07-06T06:42:22Z</time>
      </trkpt>
      <trkpt lat="48.62512" lon="-2.41515">
        <ele>25.8</ele>
        <time>2016-07-06T06:42:30Z</time>
      </trkpt>
      <trkpt lat="48.6251" lon="-2.41529">
        <ele>25.7</ele>
        <time>2016-07-06T06:42:38Z</time>
      </trkpt>
      <trkpt lat="48.62507" lon="-2.41543">
        <ele>25.5</ele>
        <time>2016-07-06T06:42:58Z</time>
      </trkpt>
      <trkpt lat="48.62508" lon="-2.41557">
        <ele>25.8</ele>
        <time>2016-07-06T06:43:06Z</time>
      </trkpt>
      <trkpt lat="48.62511" lon="-2.4157">
        <ele>25.1</ele>
        <time>2016-07-06T06:43:14Z</time>
      </trkpt>
      <trkpt lat="48.62517" lon="-2.4158">
        <ele>24.1</ele>
        <time>2016-07-06T06:43:22Z</time>
      </trkpt>
      <trkpt lat="48.62525" lon="-2.41588">
        <ele>23.1</ele>
        <time>2016-07-06T06:43:33Z</time>
      </trkpt>
      <trkpt lat="48.62534" lon="-2.41588">
        <ele>23.4</ele>
        <time>2016-07-06T06:43:45Z</time>
      </trkpt>
      <trkpt lat="48.62544" lon="-2.41588">
        <ele>22.8</ele>
        <time>2016-07-06T06:43:53Z</time>
      </trkpt>
      <trkpt lat="48.62553" lon="-2.41586">
        <ele>22</ele>
        <time>2016-07-06T06:44:01Z</time>
      </trkpt>
      <trkpt lat="48.62563" lon="-2.41584">
        <ele>21.8</ele>
        <time>2016-07-06T06:44:09Z</time>
      </trkpt>
      <trkpt lat="48.62572" lon="-2.4158">
        <ele>21.9</ele>
        <time>2016-07-06T06:44:17Z</time>
      </trkpt>
      <trkpt lat="48.62582" lon="-2.41577">
        <ele>22.6</ele>
        <time>2016-07-06T06:44:25Z</time>
      </trkpt>
      <trkpt lat="48.62591" lon="-2.41574">
        <ele>22.7</ele>
        <time>2016-07-06T06:44:32Z</time>
      </trkpt>
      <trkpt lat="48.626" lon="-2.41571">
        <ele>21.4</ele>
        <time>2016-07-06T06:44:46Z</time>
      </trkpt>
      <trkpt lat="48.62609" lon="-2.41569">
        <ele>20.6</ele>
        <time>2016-07-06T06:44:54Z</time>
      </trkpt>
      <trkpt lat="48.62618" lon="-2.41567">
        <ele>20</ele>
        <time>2016-07-06T06:45:01Z</time>
      </trkpt>
      <trkpt lat="48.62628" lon="-2.41564">
        <ele>20</ele>
        <time>2016-07-06T06:45:09Z</time>
      </trkpt>
      <trkpt lat="48.62637" lon="-2.41561">
        <ele>20.9</ele>
        <time>2016-07-06T06:45:17Z</time>
      </trkpt>
      <trkpt lat="48.62647" lon="-2.41557">
        <ele>20.3</ele>
        <time>2016-07-06T06:45:25Z</time>
      </trkpt>
      <trkpt lat="48.62656" lon="-2.41555">
        <ele>19.9</ele>
        <time>2016-07-06T06:45:33Z</time>
      </trkpt>
      <trkpt lat="48.62666" lon="-2.4155">
        <ele>20</ele>
        <time>2016-07-06T06:45:42Z</time>
      </trkpt>
      <trkpt lat="48.62675" lon="-2.41548">
        <ele>19.7</ele>
        <time>2016-07-06T06:45:50Z</time>
      </trkpt>
      <trkpt lat="48.62684" lon="-2.41547">
        <ele>19</ele>
        <time>2016-07-06T06:45:58Z</time>
      </trkpt>
      <trkpt lat="48.62693" lon="-2.41545">
        <ele>18.9</ele>
        <time>2016-07-06T06:46:06Z</time>
      </trkpt>
      <trkpt lat="48.62703" lon="-2.41546">
        <ele>19</ele>
        <time>2016-07-06T06:46:14Z</time>
      </trkpt>
      <trkpt lat="48.62712" lon="-2.41551">
        <ele>16.8</ele>
        <time>2016-07-06T06:46:28Z</time>
      </trkpt>
      <trkpt lat="48.62721" lon="-2.41557">
        <ele>18.3</ele>
        <time>2016-07-06T06:46:36Z</time>
      </trkpt>
      <trkpt lat="48.62729" lon="-2.41564">
        <ele>17.6</ele>
        <time>2016-07-06T06:46:54Z</time>
      </trkpt>
      <trkpt lat="48.62739" lon="-2.41567">
        <ele>18</ele>
        <time>2016-07-06T06:47:01Z</time>
      </trkpt>
      <trkpt lat="48.62749" lon="-2.41569">
        <ele>18.1</ele>
        <time>2016-07-06T06:47:10Z</time>
      </trkpt>
      <trkpt lat="48.62759" lon="-2.4157">
        <ele>18.4</ele>
        <time>2016-07-06T06:47:19Z</time>
      </trkpt>
      <trkpt lat="48.62768" lon="-2.41572">
        <ele>17.7</ele>
        <time>2016-07-06T06:47:29Z</time>
      </trkpt>
      <trkpt lat="48.62777" lon="-2.41576">
        <ele>16.9</ele>
        <time>2016-07-06T06:47:36Z</time>
      </trkpt>
      <trkpt lat="48.62786" lon="-2.41581">
        <ele>16.5</ele>
        <time>2016-07-06T06:47:43Z</time>
      </trkpt>
      <trkpt lat="48.62795" lon="-2.41585">
        <ele>16.2</ele>
        <time>2016-07-06T06:47:51Z</time>
      </trkpt>
      <trkpt lat="48.62804" lon="-2.41591">
        <ele>16.6</ele>
        <time>2016-07-06T06:48:32Z</time>
      </trkpt>
      <trkpt lat="48.62813" lon="-2.41595">
        <ele>16.7</ele>
        <time>2016-07-06T06:48:41Z</time>
      </trkpt>
      <trkpt lat="48.62823" lon="-2.41599">
        <ele>16.8</ele>
        <time>2016-07-06T06:48:49Z</time>
      </trkpt>
      <trkpt lat="48.62833" lon="-2.41604">
        <ele>16.4</ele>
        <time>2016-07-06T06:48:59Z</time>
      </trkpt>
      <trkpt lat="48.62842" lon="-2.41609">
        <ele>16.2</ele>
        <time>2016-07-06T06:49:07Z</time>
      </trkpt>
      <trkpt lat="48.62852" lon="-2.41613">
        <ele>16.4</ele>
        <time>2016-07-06T06:49:15Z</time>
      </trkpt>
      <trkpt lat="48.62861" lon="-2.41617">
        <ele>16.1</ele>
        <time>2016-07-06T06:49:24Z</time>
      </trkpt>
      <trkpt lat="48.6287" lon="-2.4162">
        <ele>16.1</ele>
        <time>2016-07-06T06:49:31Z</time>
      </trkpt>
      <trkpt lat="48.6288" lon="-2.41624">
        <ele>15.1</ele>
        <time>2016-07-06T06:49:40Z</time>
      </trkpt>
      <trkpt lat="48.62889" lon="-2.41627">
        <ele>14.3</ele>
        <time>2016-07-06T06:49:48Z</time>
      </trkpt>
      <trkpt lat="48.62898" lon="-2.4163">
        <ele>15.6</ele>
        <time>2016-07-06T06:49:56Z</time>
      </trkpt>
      <trkpt lat="48.62907" lon="-2.41634">
        <ele>15.9</ele>
        <time>2016-07-06T06:50:04Z</time>
      </trkpt>
      <trkpt lat="48.62917" lon="-2.41638">
        <ele>15.9</ele>
        <time>2016-07-06T06:50:12Z</time>
      </trkpt>
      <trkpt lat="48.62926" lon="-2.4164">
        <ele>16</ele>
        <time>2016-07-06T06:50:20Z</time>
      </trkpt>
      <trkpt lat="48.62935" lon="-2.41644">
        <ele>15.2</ele>
        <time>2016-07-06T06:50:28Z</time>
      </trkpt>
      <trkpt lat="48.62944" lon="-2.41646">
        <ele>15.7</ele>
        <time>2016-07-06T06:50:35Z</time>
      </trkpt>
      <trkpt lat="48.62954" lon="-2.41648">
        <ele>16.4</ele>
        <time>2016-07-06T06:50:43Z</time>
      </trkpt>
      <trkpt lat="48.62963" lon="-2.41652">
        <ele>16.4</ele>
        <time>2016-07-06T06:50:51Z</time>
      </trkpt>
      <trkpt lat="48.62972" lon="-2.41656">
        <ele>17.9</ele>
        <time>2016-07-06T06:50:59Z</time>
      </trkpt>
      <trkpt lat="48.6298" lon="-2.41659">
        <ele>18.7</ele>
        <time>2016-07-06T06:51:07Z</time>
      </trkpt>
      <trkpt lat="48.6299" lon="-2.41663">
        <ele>17.4</ele>
        <time>2016-07-06T06:51:16Z</time>
      </trkpt>
      <trkpt lat="48.62999" lon="-2.41668">
        <ele>17.7</ele>
        <time>2016-07-06T06:51:44Z</time>
      </trkpt>
      <trkpt lat="48.63008" lon="-2.41673">
        <ele>17.7</ele>
        <time>2016-07-06T06:51:52Z</time>
      </trkpt>
      <trkpt lat="48.63017" lon="-2.41677">
        <ele>17.5</ele>
        <time>2016-07-06T06:52:01Z</time>
      </trkpt>
      <trkpt lat="48.63027" lon="-2.41681">
        <ele>17.3</ele>
        <time>2016-07-06T06:52:09Z</time>
      </trkpt>
      <trkpt lat="48.63036" lon="-2.41684">
        <ele>17.9</ele>
        <time>2016-07-06T06:52:18Z</time>
      </trkpt>
      <trkpt lat="48.63045" lon="-2.41688">
        <ele>18</ele>
        <time>2016-07-06T06:52:28Z</time>
      </trkpt>
      <trkpt lat="48.63054" lon="-2.41694">
        <ele>17.6</ele>
        <time>2016-07-06T06:52:37Z</time>
      </trkpt>
      <trkpt lat="48.63064" lon="-2.41698">
        <ele>17.2</ele>
        <time>2016-07-06T06:52:47Z</time>
      </trkpt>
      <trkpt lat="48.63073" lon="-2.41699">
        <ele>15.5</ele>
        <time>2016-07-06T06:52:55Z</time>
      </trkpt>
      <trkpt lat="48.63083" lon="-2.41699">
        <ele>14.6</ele>
        <time>2016-07-06T06:53:04Z</time>
      </trkpt>
      <trkpt lat="48.63093" lon="-2.41698">
        <ele>14.7</ele>
        <time>2016-07-06T06:53:13Z</time>
      </trkpt>
      <trkpt lat="48.63102" lon="-2.41694">
        <ele>13.4</ele>
        <time>2016-07-06T06:53:21Z</time>
      </trkpt>
      <trkpt lat="48.63111" lon="-2.41688">
        <ele>12.5</ele>
        <time>2016-07-06T06:53:29Z</time>
      </trkpt>
      <trkpt lat="48.63119" lon="-2.41679">
        <ele>11.7</ele>
        <time>2016-07-06T06:53:38Z</time>
      </trkpt>
      <trkpt lat="48.63125" lon="-2.41668">
        <ele>10.5</ele>
        <time>2016-07-06T06:53:46Z</time>
      </trkpt>
      <trkpt lat="48.6313" lon="-2.41655">
        <ele>9.3</ele>
        <time>2016-07-06T06:53:54Z</time>
      </trkpt>
      <trkpt lat="48.63134" lon="-2.41642">
        <ele>8.1</ele>
        <time>2016-07-06T06:54:03Z</time>
      </trkpt>
      <trkpt lat="48.63141" lon="-2.41633">
        <ele>6.8</ele>
        <time>2016-07-06T06:54:11Z</time>
      </trkpt>
      <trkpt lat="48.6315" lon="-2.41627">
        <ele>6.1</ele>
        <time>2016-07-06T06:54:20Z</time>
      </trkpt>
      <trkpt lat="48.63159" lon="-2.41626">
        <ele>4.2</ele>
        <time>2016-07-06T06:54:29Z</time>
      </trkpt>
      <trkpt lat="48.63169" lon="-2.41626">
        <ele>2.3</ele>
        <time>2016-07-06T06:54:39Z</time>
      </trkpt>
      <trkpt lat="48.63179" lon="-2.41627">
        <ele>1.8</ele>
        <time>2016-07-06T06:54:48Z</time>
      </trkpt>
      <trkpt lat="48.63189" lon="-2.41629">
        <ele>0.9</ele>
        <time>2016-07-06T06:54:57Z</time>
      </trkpt>
      <trkpt lat="48.63198" lon="-2.41632">
        <ele>-0.7</ele>
        <time>2016-07-06T06:55:05Z</time>
      </trkpt>
      <trkpt lat="48.63208" lon="-2.41632">
        <ele>-2.1</ele>
        <time>2016-07-06T06:55:13Z</time>
      </trkpt>
      <trkpt lat="48.63217" lon="-2.4163">
        <ele>-3.5</ele>
        <time>2016-07-06T06:55:22Z</time>
      </trkpt>
      <trkpt lat="48.63223" lon="-2.41641">
        <ele>-5.5</ele>
        <time>2016-07-06T06:55:54Z</time>
      </trkpt>
      <trkpt lat="48.63228" lon="-2.41654">
        <ele>-5.8</ele>
        <time>2016-07-06T06:56:04Z</time>
      </trkpt>
      <trkpt lat="48.63229" lon="-2.41668">
        <ele>-6.9</ele>
        <time>2016-07-06T06:56:12Z</time>
      </trkpt>
      <trkpt lat="48.63236" lon="-2.41679">
        <ele>-6.4</ele>
        <time>2016-07-06T06:56:52Z</time>
      </trkpt>
      <trkpt lat="48.6324" lon="-2.41692">
        <ele>-6.9</ele>
        <time>2016-07-06T06:57:00Z</time>
      </trkpt>
      <trkpt lat="48.63244" lon="-2.41705">
        <ele>-7.4</ele>
        <time>2016-07-06T06:57:09Z</time>
      </trkpt>
      <trkpt lat="48.6325" lon="-2.41717">
        <ele>-6.7</ele>
        <time>2016-07-06T06:57:16Z</time>
      </trkpt>
      <trkpt lat="48.63253" lon="-2.4173">
        <ele>-7.2</ele>
        <time>2016-07-06T06:57:24Z</time>
      </trkpt>
      <trkpt lat="48.63258" lon="-2.41743">
        <ele>-7.5</ele>
        <time>2016-07-06T06:57:33Z</time>
      </trkpt>
      <trkpt lat="48.63263" lon="-2.41757">
        <ele>-7.7</ele>
        <time>2016-07-06T06:57:42Z</time>
      </trkpt>
      <trkpt lat="48.63266" lon="-2.41771">
        <ele>-7.6</ele>
        <time>2016-07-06T06:58:05Z</time>
      </trkpt>
      <trkpt lat="48.63272" lon="-2.41784">
        <ele>-6.6</ele>
        <time>2016-07-06T06:58:30Z</time>
      </trkpt>
      <trkpt lat="48.63275" lon="-2.41798">
        <ele>-6.4</ele>
        <time>2016-07-06T06:58:40Z</time>
      </trkpt>
      <trkpt lat="48.63278" lon="-2.41812">
        <ele>-6.4</ele>
        <time>2016-07-06T06:58:49Z</time>
      </trkpt>
      <trkpt lat="48.63282" lon="-2.41824">
        <ele>-6.1</ele>
        <time>2016-07-06T06:58:57Z</time>
      </trkpt>
      <trkpt lat="48.63287" lon="-2.41837">
        <ele>-5.6</ele>
        <time>2016-07-06T06:59:05Z</time>
      </trkpt>
      <trkpt lat="48.63291" lon="-2.4185">
        <ele>-5.5</ele>
        <time>2016-07-06T06:59:13Z</time>
      </trkpt>
      <trkpt lat="48.63295" lon="-2.41863">
        <ele>-5.4</ele>
        <time>2016-07-06T06:59:21Z</time>
      </trkpt>
      <trkpt lat="48.63299" lon="-2.41876">
        <ele>-4.8</ele>
        <time>2016-07-06T06:59:30Z</time>
      </trkpt>
      <trkpt lat="48.63303" lon="-2.4189">
        <ele>-4.3</ele>
        <time>2016-07-06T06:59:39Z</time>
      </trkpt>
      <trkpt lat="48.63307" lon="-2.41903">
        <ele>-4</ele>
        <time>2016-07-06T06:59:48Z</time>
      </trkpt>
      <trkpt lat="48.63311" lon="-2.41916">
        <ele>-3.9</ele>
        <time>2016-07-06T06:59:56Z</time>
      </trkpt>
      <trkpt lat="48.63315" lon="-2.4193">
        <ele>-4.2</ele>
        <time>2016-07-06T07:00:17Z</time>
      </trkpt>
      <trkpt lat="48.6332" lon="-2.41943">
        <ele>-4.5</ele>
        <time>2016-07-06T07:00:26Z</time>
      </trkpt>
      <trkpt lat="48.63323" lon="-2.41957">
        <ele>-4.4</ele>
        <time>2016-07-06T07:00:35Z</time>
      </trkpt>
      <trkpt lat="48.63328" lon="-2.4197">
        <ele>-3.1</ele>
        <time>2016-07-06T07:00:43Z</time>
      </trkpt>
      <trkpt lat="48.63331" lon="-2.41982">
        <ele>-3.6</ele>
        <time>2016-07-06T07:00:51Z</time>
      </trkpt>
      <trkpt lat="48.63336" lon="-2.41995">
        <ele>-2.8</ele>
        <time>2016-07-06T07:00:59Z</time>
      </trkpt>
      <trkpt lat="48.63341" lon="-2.42007">
        <ele>-2.4</ele>
        <time>2016-07-06T07:01:08Z</time>
      </trkpt>
      <trkpt lat="48.63345" lon="-2.4202">
        <ele>-1.9</ele>
        <time>2016-07-06T07:01:18Z</time>
      </trkpt>
      <trkpt lat="48.6335" lon="-2.42032">
        <ele>-2.4</ele>
        <time>2016-07-06T07:01:26Z</time>
      </trkpt>
      <trkpt lat="48.63354" lon="-2.42044">
        <ele>-2.2</ele>
        <time>2016-07-06T07:01:35Z</time>
      </trkpt>
      <trkpt lat="48.63358" lon="-2.42058">
        <ele>-1.7</ele>
        <time>2016-07-06T07:01:43Z</time>
      </trkpt>
      <trkpt lat="48.63366" lon="-2.42064">
        <ele>-2.9</ele>
        <time>2016-07-06T07:02:26Z</time>
      </trkpt>
      <trkpt lat="48.63375" lon="-2.42064">
        <ele>-4.7</ele>
        <time>2016-07-06T07:02:46Z</time>
      </trkpt>
      <trkpt lat="48.63385" lon="-2.42058">
        <ele>-5.2</ele>
        <time>2016-07-06T07:02:55Z</time>
      </trkpt>
      <trkpt lat="48.63394" lon="-2.42051">
        <ele>-4.9</ele>
        <time>2016-07-06T07:03:04Z</time>
      </trkpt>
      <trkpt lat="48.63401" lon="-2.42042">
        <ele>-5.9</ele>
        <time>2016-07-06T07:03:13Z</time>
      </trkpt>
      <trkpt lat="48.6341" lon="-2.42033">
        <ele>-6.7</ele>
        <time>2016-07-06T07:03:21Z</time>
      </trkpt>
      <trkpt lat="48.63416" lon="-2.42022">
        <ele>-7.3</ele>
        <time>2016-07-06T07:03:29Z</time>
      </trkpt>
      <trkpt lat="48.63424" lon="-2.42014">
        <ele>-7.5</ele>
        <time>2016-07-06T07:03:37Z</time>
      </trkpt>
      <trkpt lat="48.63429" lon="-2.42002">
        <ele>-6.7</ele>
        <time>2016-07-06T07:03:46Z</time>
      </trkpt>
      <trkpt lat="48.63433" lon="-2.41988">
        <ele>-7.1</ele>
        <time>2016-07-06T07:03:54Z</time>
      </trkpt>
      <trkpt lat="48.63436" lon="-2.41974">
        <ele>-8.3</ele>
        <time>2016-07-06T07:04:01Z</time>
      </trkpt>
      <trkpt lat="48.6344" lon="-2.4196">
        <ele>-8</ele>
        <time>2016-07-06T07:04:09Z</time>
      </trkpt>
      <trkpt lat="48.63445" lon="-2.41947">
        <ele>-7.9</ele>
        <time>2016-07-06T07:04:17Z</time>
      </trkpt>
      <trkpt lat="48.63451" lon="-2.41935">
        <ele>-8.4</ele>
        <time>2016-07-06T07:04:25Z</time>
      </trkpt>
      <trkpt lat="48.63457" lon="-2.41925">
        <ele>-7.6</ele>
        <time>2016-07-06T07:04:33Z</time>
      </trkpt>
      <trkpt lat="48.63465" lon="-2.41917">
        <ele>-6.9</ele>
        <time>2016-07-06T07:04:41Z</time>
      </trkpt>
      <trkpt lat="48.63473" lon="-2.41907">
        <ele>-7.1</ele>
        <time>2016-07-06T07:05:09Z</time>
      </trkpt>
      <trkpt lat="48.6348" lon="-2.41898">
        <ele>-6.6</ele>
        <time>2016-07-06T07:05:17Z</time>
      </trkpt>
      <trkpt lat="48.63488" lon="-2.41889">
        <ele>-6.7</ele>
        <time>2016-07-06T07:05:25Z</time>
      </trkpt>
      <trkpt lat="48.63496" lon="-2.41882">
        <ele>-6.7</ele>
        <time>2016-07-06T07:05:33Z</time>
      </trkpt>
      <trkpt lat="48.63504" lon="-2.41873">
        <ele>-7</ele>
        <time>2016-07-06T07:05:41Z</time>
      </trkpt>
      <trkpt lat="48.63513" lon="-2.41866">
        <ele>-6.9</ele>
        <time>2016-07-06T07:05:49Z</time>
      </trkpt>
      <trkpt lat="48.63521" lon="-2.41858">
        <ele>-7</ele>
        <time>2016-07-06T07:05:56Z</time>
      </trkpt>
      <trkpt lat="48.63528" lon="-2.41847">
        <ele>-7</ele>
        <time>2016-07-06T07:06:04Z</time>
      </trkpt>
      <trkpt lat="48.63535" lon="-2.41837">
        <ele>-6.7</ele>
        <time>2016-07-06T07:06:11Z</time>
      </trkpt>
      <trkpt lat="48.63541" lon="-2.41825">
        <ele>-7.2</ele>
        <time>2016-07-06T07:06:19Z</time>
      </trkpt>
      <trkpt lat="48.63548" lon="-2.41815">
        <ele>-6.8</ele>
        <time>2016-07-06T07:06:27Z</time>
      </trkpt>
      <trkpt lat="48.63554" lon="-2.41804">
        <ele>-7</ele>
        <time>2016-07-06T07:06:34Z</time>
      </trkpt>
      <trkpt lat="48.6356" lon="-2.41794">
        <ele>-7</ele>
        <time>2016-07-06T07:06:41Z</time>
      </trkpt>
      <trkpt lat="48.63567" lon="-2.41783">
        <ele>-7</ele>
        <time>2016-07-06T07:06:49Z</time>
      </trkpt>
      <trkpt lat="48.63573" lon="-2.41772">
        <ele>-7.2</ele>
        <time>2016-07-06T07:06:57Z</time>
      </trkpt>
      <trkpt lat="48.63579" lon="-2.41762">
        <ele>-8.6</ele>
        <time>2016-07-06T07:07:27Z</time>
      </trkpt>
      <trkpt lat="48.63586" lon="-2.41752">
        <ele>-8.8</ele>
        <time>2016-07-06T07:07:35Z</time>
      </trkpt>
      <trkpt lat="48.63592" lon="-2.41742">
        <ele>-9.2</ele>
        <time>2016-07-06T07:07:42Z</time>
      </trkpt>
      <trkpt lat="48.636" lon="-2.41733">
        <ele>-8.8</ele>
        <time>2016-07-06T07:07:51Z</time>
      </trkpt>
      <trkpt lat="48.63606" lon="-2.41723">
        <ele>-7.4</ele>
        <time>2016-07-06T07:08:00Z</time>
      </trkpt>
      <trkpt lat="48.63614" lon="-2.41713">
        <ele>-6.4</ele>
        <time>2016-07-06T07:08:08Z</time>
      </trkpt>
      <trkpt lat="48.63622" lon="-2.41705">
        <ele>-6.5</ele>
        <time>2016-07-06T07:08:14Z</time>
      </trkpt>
      <trkpt lat="48.6363" lon="-2.41696">
        <ele>-5.8</ele>
        <time>2016-07-06T07:08:21Z</time>
      </trkpt>
      <trkpt lat="48.63637" lon="-2.41684">
        <ele>-5.5</ele>
        <time>2016-07-06T07:08:32Z</time>
      </trkpt>
      <trkpt lat="48.63646" lon="-2.41685">
        <ele>-4.8</ele>
        <time>2016-07-06T07:08:41Z</time>
      </trkpt>
      <trkpt lat="48.63654" lon="-2.41694">
        <ele>-4.8</ele>
        <time>2016-07-06T07:08:50Z</time>
      </trkpt>
      <trkpt lat="48.63661" lon="-2.41703">
        <ele>-4.3</ele>
        <time>2016-07-06T07:09:21Z</time>
      </trkpt>
      <trkpt lat="48.63669" lon="-2.4171">
        <ele>-4.6</ele>
        <time>2016-07-06T07:09:29Z</time>
      </trkpt>
      <trkpt lat="48.63675" lon="-2.4172">
        <ele>-3.5</ele>
        <time>2016-07-06T07:09:37Z</time>
      </trkpt>
      <trkpt lat="48.63682" lon="-2.41732">
        <ele>-3.2</ele>
        <time>2016-07-06T07:09:45Z</time>
      </trkpt>
      <trkpt lat="48.63689" lon="-2.41742">
        <ele>-3.1</ele>
        <time>2016-07-06T07:09:53Z</time>
      </trkpt>
      <trkpt lat="48.63695" lon="-2.41752">
        <ele>-2.3</ele>
        <time>2016-07-06T07:10:01Z</time>
      </trkpt>
      <trkpt lat="48.63699" lon="-2.41765">
        <ele>-1.3</ele>
        <time>2016-07-06T07:10:09Z</time>
      </trkpt>
      <trkpt lat="48.63705" lon="-2.41777">
        <ele>-1.2</ele>
        <time>2016-07-06T07:10:17Z</time>
      </trkpt>
      <trkpt lat="48.63711" lon="-2.41788">
        <ele>-0.1</ele>
        <time>2016-07-06T07:10:26Z</time>
      </trkpt>
      <trkpt lat="48.63717" lon="-2.41798">
        <ele>0.6</ele>
        <time>2016-07-06T07:10:35Z</time>
      </trkpt>
      <trkpt lat="48.63723" lon="-2.41809">
        <ele>1.4</ele>
        <time>2016-07-06T07:10:44Z</time>
      </trkpt>
      <trkpt lat="48.63728" lon="-2.41821">
        <ele>2.4</ele>
        <time>2016-07-06T07:10:53Z</time>
      </trkpt>
      <trkpt lat="48.63734" lon="-2.41833">
        <ele>3.4</ele>
        <time>2016-07-06T07:11:20Z</time>
      </trkpt>
      <trkpt lat="48.63739" lon="-2.41844">
        <ele>4.6</ele>
        <time>2016-07-06T07:11:28Z</time>
      </trkpt>
      <trkpt lat="48.63747" lon="-2.41851">
        <ele>5.8</ele>
        <time>2016-07-06T07:11:47Z</time>
      </trkpt>
      <trkpt lat="48.63747" lon="-2.41866">
        <ele>5.8</ele>
        <time>2016-07-06T07:11:58Z</time>
      </trkpt>
      <trkpt lat="48.63748" lon="-2.41879">
        <ele>7.4</ele>
        <time>2016-07-06T07:12:07Z</time>
      </trkpt>
      <trkpt lat="48.63751" lon="-2.41894">
        <ele>8.7</ele>
        <time>2016-07-06T07:12:18Z</time>
      </trkpt>
      <trkpt lat="48.63753" lon="-2.41909">
        <ele>11.7</ele>
        <time>2016-07-06T07:12:33Z</time>
      </trkpt>
      <trkpt lat="48.63756" lon="-2.41922">
        <ele>12.8</ele>
        <time>2016-07-06T07:12:42Z</time>
      </trkpt>
      <trkpt lat="48.63758" lon="-2.41937">
        <ele>13.3</ele>
        <time>2016-07-06T07:12:47Z</time>
      </trkpt>
      <trkpt lat="48.63766" lon="-2.41948">
        <ele>16.7</ele>
        <time>2016-07-06T07:13:27Z</time>
      </trkpt>
      <trkpt lat="48.63771" lon="-2.41962">
        <ele>16.6</ele>
        <time>2016-07-06T07:13:35Z</time>
      </trkpt>
      <trkpt lat="48.63778" lon="-2.41972">
        <ele>18.6</ele>
        <time>2016-07-06T07:13:43Z</time>
      </trkpt>
      <trkpt lat="48.63779" lon="-2.41988">
        <ele>20.9</ele>
        <time>2016-07-06T07:13:52Z</time>
      </trkpt>
      <trkpt lat="48.63785" lon="-2.42">
        <ele>21.7</ele>
        <time>2016-07-06T07:14:10Z</time>
      </trkpt>
      <trkpt lat="48.63792" lon="-2.42009">
        <ele>23.4</ele>
        <time>2016-07-06T07:14:18Z</time>
      </trkpt>
      <trkpt lat="48.63789" lon="-2.42024">
        <ele>25.5</ele>
        <time>2016-07-06T07:15:01Z</time>
      </trkpt>
      <trkpt lat="48.63793" lon="-2.42038">
        <ele>26.6</ele>
        <time>2016-07-06T07:15:11Z</time>
      </trkpt>
      <trkpt lat="48.63791" lon="-2.42052">
        <ele>27.5</ele>
        <time>2016-07-06T07:15:23Z</time>
      </trkpt>
      <trkpt lat="48.63786" lon="-2.42066">
        <ele>28</ele>
        <time>2016-07-06T07:15:33Z</time>
      </trkpt>
      <trkpt lat="48.63783" lon="-2.42079">
        <ele>28</ele>
        <time>2016-07-06T07:15:42Z</time>
      </trkpt>
      <trkpt lat="48.6378" lon="-2.42093">
        <ele>29.1</ele>
        <time>2016-07-06T07:15:52Z</time>
      </trkpt>
      <trkpt lat="48.63776" lon="-2.42105">
        <ele>30.7</ele>
        <time>2016-07-06T07:16:02Z</time>
      </trkpt>
      <trkpt lat="48.63771" lon="-2.42118">
        <ele>31</ele>
        <time>2016-07-06T07:16:13Z</time>
      </trkpt>
      <trkpt lat="48.63766" lon="-2.4213">
        <ele>32</ele>
        <time>2016-07-06T07:16:25Z</time>
      </trkpt>
      <trkpt lat="48.6376" lon="-2.42142">
        <ele>33.6</ele>
        <time>2016-07-06T07:16:41Z</time>
      </trkpt>
      <trkpt lat="48.63753" lon="-2.42153">
        <ele>35.3</ele>
        <time>2016-07-06T07:16:52Z</time>
      </trkpt>
      <trkpt lat="48.63746" lon="-2.42162">
        <ele>36</ele>
        <time>2016-07-06T07:16:58Z</time>
      </trkpt>
      <trkpt lat="48.63737" lon="-2.42173">
        <ele>39.5</ele>
        <time>2016-07-06T07:17:18Z</time>
      </trkpt>
      <trkpt lat="48.63735" lon="-2.42186">
        <ele>42.3</ele>
        <time>2016-07-06T07:17:39Z</time>
      </trkpt>
      <trkpt lat="48.63743" lon="-2.4219">
        <ele>43.2</ele>
        <time>2016-07-06T07:18:20Z</time>
      </trkpt>
      <trkpt lat="48.63753" lon="-2.42186">
        <ele>42.5</ele>
        <time>2016-07-06T07:19:24Z</time>
      </trkpt>
      <trkpt lat="48.63762" lon="-2.42181">
        <ele>42.3</ele>
        <time>2016-07-06T07:19:34Z</time>
      </trkpt>
      <trkpt lat="48.63771" lon="-2.4218">
        <ele>41.6</ele>
        <time>2016-07-06T07:19:43Z</time>
      </trkpt>
      <trkpt lat="48.63782" lon="-2.42179">
        <ele>41.1</ele>
        <time>2016-07-06T07:19:51Z</time>
      </trkpt>
      <trkpt lat="48.63791" lon="-2.42176">
        <ele>41.5</ele>
        <time>2016-07-06T07:19:59Z</time>
      </trkpt>
      <trkpt lat="48.638" lon="-2.42174">
        <ele>41.1</ele>
        <time>2016-07-06T07:20:07Z</time>
      </trkpt>
      <trkpt lat="48.63809" lon="-2.42172">
        <ele>40.6</ele>
        <time>2016-07-06T07:20:16Z</time>
      </trkpt>
      <trkpt lat="48.63819" lon="-2.42174">
        <ele>40.1</ele>
        <time>2016-07-06T07:20:25Z</time>
      </trkpt>
      <trkpt lat="48.63828" lon="-2.42176">
        <ele>40.6</ele>
        <time>2016-07-06T07:20:34Z</time>
      </trkpt>
      <trkpt lat="48.63838" lon="-2.42179">
        <ele>41.2</ele>
        <time>2016-07-06T07:20:44Z</time>
      </trkpt>
      <trkpt lat="48.63847" lon="-2.42183">
        <ele>42.4</ele>
        <time>2016-07-06T07:20:55Z</time>
      </trkpt>
      <trkpt lat="48.63856" lon="-2.4219">
        <ele>41.9</ele>
        <time>2016-07-06T07:21:15Z</time>
      </trkpt>
      <trkpt lat="48.63864" lon="-2.42197">
        <ele>41.8</ele>
        <time>2016-07-06T07:21:23Z</time>
      </trkpt>
      <trkpt lat="48.63872" lon="-2.42205">
        <ele>41.2</ele>
        <time>2016-07-06T07:21:32Z</time>
      </trkpt>
      <trkpt lat="48.63877" lon="-2.42216">
        <ele>41.2</ele>
        <time>2016-07-06T07:21:41Z</time>
      </trkpt>
      <trkpt lat="48.63886" lon="-2.42222">
        <ele>41.4</ele>
        <time>2016-07-06T07:21:50Z</time>
      </trkpt>
      <trkpt lat="48.63895" lon="-2.42223">
        <ele>41.4</ele>
        <time>2016-07-06T07:22:06Z</time>
      </trkpt>
      <trkpt lat="48.63904" lon="-2.42226">
        <ele>41.6</ele>
        <time>2016-07-06T07:22:13Z</time>
      </trkpt>
      <trkpt lat="48.63913" lon="-2.4223">
        <ele>40.6</ele>
        <time>2016-07-06T07:22:21Z</time>
      </trkpt>
      <trkpt lat="48.63922" lon="-2.42236">
        <ele>40.7</ele>
        <time>2016-07-06T07:22:29Z</time>
      </trkpt>
      <trkpt lat="48.63931" lon="-2.42241">
        <ele>39.3</ele>
        <time>2016-07-06T07:22:37Z</time>
      </trkpt>
      <trkpt lat="48.6394" lon="-2.42244">
        <ele>38.2</ele>
        <time>2016-07-06T07:22:47Z</time>
      </trkpt>
      <trkpt lat="48.63949" lon="-2.42242">
        <ele>37.4</ele>
        <time>2016-07-06T07:22:59Z</time>
      </trkpt>
      <trkpt lat="48.63959" lon="-2.42242">
        <ele>36.4</ele>
        <time>2016-07-06T07:23:09Z</time>
      </trkpt>
      <trkpt lat="48.63966" lon="-2.42234">
        <ele>34.8</ele>
        <time>2016-07-06T07:23:23Z</time>
      </trkpt>
      <trkpt lat="48.63975" lon="-2.42231">
        <ele>33.6</ele>
        <time>2016-07-06T07:23:32Z</time>
      </trkpt>
      <trkpt lat="48.63985" lon="-2.42231">
        <ele>33.1</ele>
        <time>2016-07-06T07:23:41Z</time>
      </trkpt>
      <trkpt lat="48.63993" lon="-2.42238">
        <ele>34.3</ele>
        <time>2016-07-06T07:23:49Z</time>
      </trkpt>
      <trkpt lat="48.64002" lon="-2.42237">
        <ele>34.1</ele>
        <time>2016-07-06T07:23:59Z</time>
      </trkpt>
      <trkpt lat="48.64012" lon="-2.42235">
        <ele>33.5</ele>
        <time>2016-07-06T07:24:08Z</time>
      </trkpt>
      <trkpt lat="48.64021" lon="-2.42236">
        <ele>33.1</ele>
        <time>2016-07-06T07:24:17Z</time>
      </trkpt>
      <trkpt lat="48.6403" lon="-2.42233">
        <ele>30.5</ele>
        <time>2016-07-06T07:24:35Z</time>
      </trkpt>
      <trkpt lat="48.64039" lon="-2.42232">
        <ele>31.3</ele>
        <time>2016-07-06T07:24:47Z</time>
      </trkpt>
      <trkpt lat="48.64049" lon="-2.42235">
        <ele>29.4</ele>
        <time>2016-07-06T07:24:56Z</time>
      </trkpt>
      <trkpt lat="48.64057" lon="-2.42243">
        <ele>31.2</ele>
        <time>2016-07-06T07:25:03Z</time>
      </trkpt>
      <trkpt lat="48.64066" lon="-2.42247">
        <ele>30.4</ele>
        <time>2016-07-06T07:25:11Z</time>
      </trkpt>
      <trkpt lat="48.64075" lon="-2.42252">
        <ele>29.6</ele>
        <time>2016-07-06T07:25:20Z</time>
      </trkpt>
      <trkpt lat="48.64083" lon="-2.42259">
        <ele>29.8</ele>
        <time>2016-07-06T07:25:28Z</time>
      </trkpt>
      <trkpt lat="48.64089" lon="-2.42271">
        <ele>31</ele>
        <time>2016-07-06T07:25:36Z</time>
      </trkpt>
      <trkpt lat="48.64095" lon="-2.42282">
        <ele>30.4</ele>
        <time>2016-07-06T07:25:44Z</time>
      </trkpt>
      <trkpt lat="48.64099" lon="-2.42295">
        <ele>30.4</ele>
        <time>2016-07-06T07:25:53Z</time>
      </trkpt>
      <trkpt lat="48.64099" lon="-2.42309">
        <ele>30.7</ele>
        <time>2016-07-06T07:26:01Z</time>
      </trkpt>
      <trkpt lat="48.64098" lon="-2.42323">
        <ele>31.4</ele>
        <time>2016-07-06T07:26:09Z</time>
      </trkpt>
      <trkpt lat="48.64097" lon="-2.42338">
        <ele>31.5</ele>
        <time>2016-07-06T07:26:18Z</time>
      </trkpt>
      <trkpt lat="48.64095" lon="-2.42352">
        <ele>31.7</ele>
        <time>2016-07-06T07:26:26Z</time>
      </trkpt>
      <trkpt lat="48.64094" lon="-2.42365">
        <ele>31.7</ele>
        <time>2016-07-06T07:26:34Z</time>
      </trkpt>
      <trkpt lat="48.64093" lon="-2.4238">
        <ele>32.5</ele>
        <time>2016-07-06T07:26:43Z</time>
      </trkpt>
      <trkpt lat="48.64093" lon="-2.42393">
        <ele>33.8</ele>
        <time>2016-07-06T07:26:50Z</time>
      </trkpt>
      <trkpt lat="48.64093" lon="-2.42409">
        <ele>35.2</ele>
        <time>2016-07-06T07:26:59Z</time>
      </trkpt>
      <trkpt lat="48.64094" lon="-2.42423">
        <ele>34.2</ele>
        <time>2016-07-06T07:27:25Z</time>
      </trkpt>
      <trkpt lat="48.64097" lon="-2.42437">
        <ele>34.3</ele>
        <time>2016-07-06T07:27:32Z</time>
      </trkpt>
      <trkpt lat="48.641" lon="-2.42451">
        <ele>34.3</ele>
        <time>2016-07-06T07:27:40Z</time>
      </trkpt>
      <trkpt lat="48.64104" lon="-2.42463">
        <ele>34.4</ele>
        <time>2016-07-06T07:27:48Z</time>
      </trkpt>
      <trkpt lat="48.64112" lon="-2.42469">
        <ele>34.5</ele>
        <time>2016-07-06T07:28:09Z</time>
      </trkpt>
      <trkpt lat="48.6412" lon="-2.42461">
        <ele>33.8</ele>
        <time>2016-07-06T07:28:16Z</time>
      </trkpt>
      <trkpt lat="48.64129" lon="-2.42453">
        <ele>33.1</ele>
        <time>2016-07-06T07:28:24Z</time>
      </trkpt>
      <trkpt lat="48.64138" lon="-2.42446">
        <ele>33.4</ele>
        <time>2016-07-06T07:28:31Z</time>
      </trkpt>
      <trkpt lat="48.64146" lon="-2.4244">
        <ele>33.3</ele>
        <time>2016-07-06T07:28:39Z</time>
      </trkpt>
      <trkpt lat="48.64155" lon="-2.42438">
        <ele>32.1</ele>
        <time>2016-07-06T07:28:47Z</time>
      </trkpt>
      <trkpt lat="48.64166" lon="-2.42434">
        <ele>31.6</ele>
        <time>2016-07-06T07:28:56Z</time>
      </trkpt>
      <trkpt lat="48.64174" lon="-2.4243">
        <ele>32</ele>
        <time>2016-07-06T07:29:03Z</time>
      </trkpt>
      <trkpt lat="48.64184" lon="-2.42426">
        <ele>31.8</ele>
        <time>2016-07-06T07:29:11Z</time>
      </trkpt>
      <trkpt lat="48.64193" lon="-2.4242">
        <ele>31.5</ele>
        <time>2016-07-06T07:29:19Z</time>
      </trkpt>
      <trkpt lat="48.64203" lon="-2.42414">
        <ele>31.9</ele>
        <time>2016-07-06T07:29:26Z</time>
      </trkpt>
      <trkpt lat="48.64212" lon="-2.42409">
        <ele>32.2</ele>
        <time>2016-07-06T07:29:36Z</time>
      </trkpt>
      <trkpt lat="48.6422" lon="-2.42401">
        <ele>31.1</ele>
        <time>2016-07-06T07:29:43Z</time>
      </trkpt>
      <trkpt lat="48.64229" lon="-2.42394">
        <ele>30.7</ele>
        <time>2016-07-06T07:29:53Z</time>
      </trkpt>
      <trkpt lat="48.64238" lon="-2.42389">
        <ele>31.4</ele>
        <time>2016-07-06T07:30:00Z</time>
      </trkpt>
      <trkpt lat="48.64247" lon="-2.42385">
        <ele>31.8</ele>
        <time>2016-07-06T07:30:08Z</time>
      </trkpt>
      <trkpt lat="48.64256" lon="-2.4238">
        <ele>31.7</ele>
        <time>2016-07-06T07:30:17Z</time>
      </trkpt>
      <trkpt lat="48.64264" lon="-2.42373">
        <ele>32.3</ele>
        <time>2016-07-06T07:30:33Z</time>
      </trkpt>
      <trkpt lat="48.64274" lon="-2.42367">
        <ele>32.3</ele>
        <time>2016-07-06T07:30:45Z</time>
      </trkpt>
      <trkpt lat="48.64283" lon="-2.4236">
        <ele>31.7</ele>
        <time>2016-07-06T07:30:52Z</time>
      </trkpt>
      <trkpt lat="48.64291" lon="-2.42352">
        <ele>30.7</ele>
        <time>2016-07-06T07:30:59Z</time>
      </trkpt>
      <trkpt lat="48.643" lon="-2.42344">
        <ele>31.3</ele>
        <time>2016-07-06T07:31:07Z</time>
      </trkpt>
      <trkpt lat="48.64308" lon="-2.42337">
        <ele>30.4</ele>
        <time>2016-07-06T07:31:14Z</time>
      </trkpt>
      <trkpt lat="48.64316" lon="-2.42329">
        <ele>29.6</ele>
        <time>2016-07-06T07:31:21Z</time>
      </trkpt>
      <trkpt lat="48.64324" lon="-2.42322">
        <ele>28.7</ele>
        <time>2016-07-06T07:31:28Z</time>
      </trkpt>
      <trkpt lat="48.64332" lon="-2.42313">
        <ele>28.8</ele>
        <time>2016-07-06T07:31:35Z</time>
      </trkpt>
      <trkpt lat="48.64338" lon="-2.42304">
        <ele>27.3</ele>
        <time>2016-07-06T07:31:42Z</time>
      </trkpt>
      <trkpt lat="48.64346" lon="-2.42294">
        <ele>26.5</ele>
        <time>2016-07-06T07:31:50Z</time>
      </trkpt>
      <trkpt lat="48.64353" lon="-2.42285">
        <ele>26.2</ele>
        <time>2016-07-06T07:31:58Z</time>
      </trkpt>
      <trkpt lat="48.6436" lon="-2.42277">
        <ele>25.2</ele>
        <time>2016-07-06T07:32:05Z</time>
      </trkpt>
      <trkpt lat="48.64368" lon="-2.42268">
        <ele>24.2</ele>
        <time>2016-07-06T07:32:13Z</time>
      </trkpt>
      <trkpt lat="48.64377" lon="-2.42261">
        <ele>24.3</ele>
        <time>2016-07-06T07:32:21Z</time>
      </trkpt>
      <trkpt lat="48.64382" lon="-2.42251">
        <ele>24.4</ele>
        <time>2016-07-06T07:32:34Z</time>
      </trkpt>
      <trkpt lat="48.6439" lon="-2.42245">
        <ele>23.8</ele>
        <time>2016-07-06T07:32:48Z</time>
      </trkpt>
      <trkpt lat="48.644" lon="-2.42242">
        <ele>23.8</ele>
        <time>2016-07-06T07:32:56Z</time>
      </trkpt>
      <trkpt lat="48.64409" lon="-2.42241">
        <ele>23.6</ele>
        <time>2016-07-06T07:33:03Z</time>
      </trkpt>
      <trkpt lat="48.64419" lon="-2.42239">
        <ele>22.8</ele>
        <time>2016-07-06T07:33:13Z</time>
      </trkpt>
      <trkpt lat="48.64428" lon="-2.42237">
        <ele>23</ele>
        <time>2016-07-06T07:33:23Z</time>
      </trkpt>
      <trkpt lat="48.64437" lon="-2.42238">
        <ele>22.3</ele>
        <time>2016-07-06T07:33:32Z</time>
      </trkpt>
      <trkpt lat="48.64447" lon="-2.42237">
        <ele>21.9</ele>
        <time>2016-07-06T07:33:37Z</time>
      </trkpt>
      <trkpt lat="48.64457" lon="-2.42237">
        <ele>22.1</ele>
        <time>2016-07-06T07:33:46Z</time>
      </trkpt>
      <trkpt lat="48.64466" lon="-2.42233">
        <ele>21.9</ele>
        <time>2016-07-06T07:33:53Z</time>
      </trkpt>
      <trkpt lat="48.64476" lon="-2.42238">
        <ele>21.9</ele>
        <time>2016-07-06T07:34:00Z</time>
      </trkpt>
      <trkpt lat="48.64485" lon="-2.42236">
        <ele>21.5</ele>
        <time>2016-07-06T07:34:24Z</time>
      </trkpt>
      <trkpt lat="48.64495" lon="-2.42234">
        <ele>20.7</ele>
        <time>2016-07-06T07:34:31Z</time>
      </trkpt>
      <trkpt lat="48.64504" lon="-2.42232">
        <ele>20.3</ele>
        <time>2016-07-06T07:34:44Z</time>
      </trkpt>
      <trkpt lat="48.64513" lon="-2.42227">
        <ele>20.9</ele>
        <time>2016-07-06T07:34:54Z</time>
      </trkpt>
      <trkpt lat="48.64522" lon="-2.42224">
        <ele>20.1</ele>
        <time>2016-07-06T07:35:01Z</time>
      </trkpt>
      <trkpt lat="48.64532" lon="-2.4222">
        <ele>19.8</ele>
        <time>2016-07-06T07:35:07Z</time>
      </trkpt>
      <trkpt lat="48.6454" lon="-2.42211">
        <ele>20</ele>
        <time>2016-07-06T07:35:16Z</time>
      </trkpt>
      <trkpt lat="48.64548" lon="-2.42202">
        <ele>19</ele>
        <time>2016-07-06T07:35:25Z</time>
      </trkpt>
      <trkpt lat="48.64556" lon="-2.42195">
        <ele>19.1</ele>
        <time>2016-07-06T07:35:29Z</time>
      </trkpt>
      <trkpt lat="48.64565" lon="-2.42188">
        <ele>18.2</ele>
        <time>2016-07-06T07:35:49Z</time>
      </trkpt>
      <trkpt lat="48.64571" lon="-2.42178">
        <ele>18.2</ele>
        <time>2016-07-06T07:36:00Z</time>
      </trkpt>
      <trkpt lat="48.64577" lon="-2.42166">
        <ele>18.4</ele>
        <time>2016-07-06T07:38:33Z</time>
      </trkpt>
      <trkpt lat="48.64585" lon="-2.42158">
        <ele>17.5</ele>
        <time>2016-07-06T07:38:45Z</time>
      </trkpt>
      <trkpt lat="48.64594" lon="-2.42153">
        <ele>17</ele>
        <time>2016-07-06T07:38:51Z</time>
      </trkpt>
      <trkpt lat="48.64603" lon="-2.42149">
        <ele>16.3</ele>
        <time>2016-07-06T07:38:58Z</time>
      </trkpt>
      <trkpt lat="48.64613" lon="-2.42143">
        <ele>14.4</ele>
        <time>2016-07-06T07:39:08Z</time>
      </trkpt>
      <trkpt lat="48.64622" lon="-2.42144">
        <ele>13.9</ele>
        <time>2016-07-06T07:39:16Z</time>
      </trkpt>
      <trkpt lat="48.64631" lon="-2.42148">
        <ele>12</ele>
        <time>2016-07-06T07:39:24Z</time>
      </trkpt>
      <trkpt lat="48.6464" lon="-2.4215">
        <ele>10.4</ele>
        <time>2016-07-06T07:39:33Z</time>
      </trkpt>
      <trkpt lat="48.6465" lon="-2.42152">
        <ele>8.4</ele>
        <time>2016-07-06T07:39:56Z</time>
      </trkpt>
      <trkpt lat="48.64659" lon="-2.42158">
        <ele>7.6</ele>
        <time>2016-07-06T07:40:04Z</time>
      </trkpt>
      <trkpt lat="48.64668" lon="-2.42163">
        <ele>5.4</ele>
        <time>2016-07-06T07:40:13Z</time>
      </trkpt>
      <trkpt lat="48.64677" lon="-2.42169">
        <ele>4.4</ele>
        <time>2016-07-06T07:40:34Z</time>
      </trkpt>
      <trkpt lat="48.64685" lon="-2.42177">
        <ele>3.6</ele>
        <time>2016-07-06T07:40:40Z</time>
      </trkpt>
      <trkpt lat="48.64691" lon="-2.42188">
        <ele>2.3</ele>
        <time>2016-07-06T07:40:50Z</time>
      </trkpt>
      <trkpt lat="48.64699" lon="-2.42196">
        <ele>0.8</ele>
        <time>2016-07-06T07:40:57Z</time>
      </trkpt>
      <trkpt lat="48.64707" lon="-2.42205">
        <ele>-0.1</ele>
        <time>2016-07-06T07:41:04Z</time>
      </trkpt>
      <trkpt lat="48.64716" lon="-2.42213">
        <ele>-0.6</ele>
        <time>2016-07-06T07:41:11Z</time>
      </trkpt>
      <trkpt lat="48.64725" lon="-2.42217">
        <ele>-0.3</ele>
        <time>2016-07-06T07:41:20Z</time>
      </trkpt>
      <trkpt lat="48.64734" lon="-2.42222">
        <ele>-0.8</ele>
        <time>2016-07-06T07:41:38Z</time>
      </trkpt>
      <trkpt lat="48.64743" lon="-2.42223">
        <ele>-0.7</ele>
        <time>2016-07-06T07:41:48Z</time>
      </trkpt>
      <trkpt lat="48.64752" lon="-2.42227">
        <ele>-0.8</ele>
        <time>2016-07-06T07:42:08Z</time>
      </trkpt>
      <trkpt lat="48.64761" lon="-2.42232">
        <ele>-0.5</ele>
        <time>2016-07-06T07:42:19Z</time>
      </trkpt>
      <trkpt lat="48.64769" lon="-2.4224">
        <ele>-0.6</ele>
        <time>2016-07-06T07:42:35Z</time>
      </trkpt>
      <trkpt lat="48.64776" lon="-2.42247">
        <ele>-0.4</ele>
        <time>2016-07-06T07:42:44Z</time>
      </trkpt>
      <trkpt lat="48.64784" lon="-2.42241">
        <ele>-1.3</ele>
        <time>2016-07-06T07:44:40Z</time>
      </trkpt>
      <trkpt lat="48.64776" lon="-2.42247">
        <ele>1.3</ele>
        <time>2016-07-06T07:45:13Z</time>
      </trkpt>
      <trkpt lat="48.64781" lon="-2.4226">
        <ele>3.9</ele>
        <time>2016-07-06T07:46:32Z</time>
      </trkpt>
      <trkpt lat="48.64783" lon="-2.42273">
        <ele>3.6</ele>
        <time>2016-07-06T07:46:43Z</time>
      </trkpt>
      <trkpt lat="48.64785" lon="-2.42287">
        <ele>2.7</ele>
        <time>2016-07-06T07:46:53Z</time>
      </trkpt>
      <trkpt lat="48.64788" lon="-2.42301">
        <ele>1.7</ele>
        <time>2016-07-06T07:47:36Z</time>
      </trkpt>
      <trkpt lat="48.64789" lon="-2.42314">
        <ele>2.8</ele>
        <time>2016-07-06T07:47:44Z</time>
      </trkpt>
      <trkpt lat="48.64792" lon="-2.42329">
        <ele>2.4</ele>
        <time>2016-07-06T07:47:53Z</time>
      </trkpt>
      <trkpt lat="48.64796" lon="-2.42343">
        <ele>2.8</ele>
        <time>2016-07-06T07:48:01Z</time>
      </trkpt>
      <trkpt lat="48.64797" lon="-2.42356">
        <ele>4.4</ele>
        <time>2016-07-06T07:48:08Z</time>
      </trkpt>
      <trkpt lat="48.648" lon="-2.42371">
        <ele>4.2</ele>
        <time>2016-07-06T07:48:16Z</time>
      </trkpt>
      <trkpt lat="48.64804" lon="-2.42384">
        <ele>4.4</ele>
        <time>2016-07-06T07:48:25Z</time>
      </trkpt>
      <trkpt lat="48.64808" lon="-2.42398">
        <ele>2.8</ele>
        <time>2016-07-06T07:48:34Z</time>
      </trkpt>
      <trkpt lat="48.6481" lon="-2.42411">
        <ele>3.3</ele>
        <time>2016-07-06T07:48:42Z</time>
      </trkpt>
      <trkpt lat="48.64813" lon="-2.42425">
        <ele>4.1</ele>
        <time>2016-07-06T07:49:13Z</time>
      </trkpt>
      <trkpt lat="48.64814" lon="-2.42438">
        <ele>4.5</ele>
        <time>2016-07-06T07:49:31Z</time>
      </trkpt>
      <trkpt lat="48.64818" lon="-2.42452">
        <ele>5.1</ele>
        <time>2016-07-06T07:49:39Z</time>
      </trkpt>
      <trkpt lat="48.64817" lon="-2.42466">
        <ele>5.6</ele>
        <time>2016-07-06T07:49:49Z</time>
      </trkpt>
      <trkpt lat="48.64823" lon="-2.42478">
        <ele>5.7</ele>
        <time>2016-07-06T07:49:58Z</time>
      </trkpt>
      <trkpt lat="48.64826" lon="-2.42491">
        <ele>4.8</ele>
        <time>2016-07-06T07:50:10Z</time>
      </trkpt>
      <trkpt lat="48.64824" lon="-2.42506">
        <ele>4.8</ele>
        <time>2016-07-06T07:50:20Z</time>
      </trkpt>
      <trkpt lat="48.64823" lon="-2.42521">
        <ele>5.4</ele>
        <time>2016-07-06T07:50:38Z</time>
      </trkpt>
      <trkpt lat="48.64823" lon="-2.42535">
        <ele>4.8</ele>
        <time>2016-07-06T07:51:18Z</time>
      </trkpt>
      <trkpt lat="48.64825" lon="-2.42549">
        <ele>4.5</ele>
        <time>2016-07-06T07:51:26Z</time>
      </trkpt>
      <trkpt lat="48.64825" lon="-2.42564">
        <ele>4</ele>
        <time>2016-07-06T07:51:34Z</time>
      </trkpt>
      <trkpt lat="48.64827" lon="-2.42578">
        <ele>4.6</ele>
        <time>2016-07-06T07:51:42Z</time>
      </trkpt>
      <trkpt lat="48.64829" lon="-2.42593">
        <ele>4.5</ele>
        <time>2016-07-06T07:51:51Z</time>
      </trkpt>
      <trkpt lat="48.64832" lon="-2.42607">
        <ele>4</ele>
        <time>2016-07-06T07:52:50Z</time>
      </trkpt>
      <trkpt lat="48.64835" lon="-2.4262">
        <ele>4.2</ele>
        <time>2016-07-06T07:52:57Z</time>
      </trkpt>
      <trkpt lat="48.64837" lon="-2.42635">
        <ele>5.4</ele>
        <time>2016-07-06T07:53:04Z</time>
      </trkpt>
      <trkpt lat="48.64834" lon="-2.42649">
        <ele>5.3</ele>
        <time>2016-07-06T07:53:12Z</time>
      </trkpt>
      <trkpt lat="48.64837" lon="-2.42664">
        <ele>6.1</ele>
        <time>2016-07-06T07:53:20Z</time>
      </trkpt>
      <trkpt lat="48.64842" lon="-2.42677">
        <ele>6</ele>
        <time>2016-07-06T07:53:27Z</time>
      </trkpt>
      <trkpt lat="48.64846" lon="-2.4269">
        <ele>5.5</ele>
        <time>2016-07-06T07:53:34Z</time>
      </trkpt>
      <trkpt lat="48.64852" lon="-2.42702">
        <ele>5</ele>
        <time>2016-07-06T07:53:40Z</time>
      </trkpt>
      <trkpt lat="48.64857" lon="-2.42714">
        <ele>5.3</ele>
        <time>2016-07-06T07:53:47Z</time>
      </trkpt>
      <trkpt lat="48.64863" lon="-2.42724">
        <ele>3.3</ele>
        <time>2016-07-06T07:53:54Z</time>
      </trkpt>
      <trkpt lat="48.6487" lon="-2.42732">
        <ele>2.7</ele>
        <time>2016-07-06T07:54:01Z</time>
      </trkpt>
      <trkpt lat="48.64878" lon="-2.42741">
        <ele>3.4</ele>
        <time>2016-07-06T07:54:10Z</time>
      </trkpt>
      <trkpt lat="48.64881" lon="-2.42754">
        <ele>3.8</ele>
        <time>2016-07-06T07:54:38Z</time>
      </trkpt>
      <trkpt lat="48.64882" lon="-2.42769">
        <ele>5.2</ele>
        <time>2016-07-06T07:54:50Z</time>
      </trkpt>
      <trkpt lat="48.64886" lon="-2.42782">
        <ele>5.7</ele>
        <time>2016-07-06T07:55:02Z</time>
      </trkpt>
      <trkpt lat="48.64891" lon="-2.42795">
        <ele>4.3</ele>
        <time>2016-07-06T07:55:11Z</time>
      </trkpt>
      <trkpt lat="48.64893" lon="-2.4281">
        <ele>2.2</ele>
        <time>2016-07-06T07:55:20Z</time>
      </trkpt>
      <trkpt lat="48.64892" lon="-2.42824">
        <ele>3.1</ele>
        <time>2016-07-06T07:55:29Z</time>
      </trkpt>
      <trkpt lat="48.6489" lon="-2.42839">
        <ele>5.4</ele>
        <time>2016-07-06T07:55:42Z</time>
      </trkpt>
      <trkpt lat="48.64882" lon="-2.42846">
        <ele>3.6</ele>
        <time>2016-07-06T07:55:49Z</time>
      </trkpt>
      <trkpt lat="48.64875" lon="-2.42856">
        <ele>4.5</ele>
        <time>2016-07-06T07:56:07Z</time>
      </trkpt>
      <trkpt lat="48.64876" lon="-2.42869">
        <ele>4.3</ele>
        <time>2016-07-06T07:57:30Z</time>
      </trkpt>
      <trkpt lat="48.64881" lon="-2.42881">
        <ele>4.1</ele>
        <time>2016-07-06T07:57:41Z</time>
      </trkpt>
      <trkpt lat="48.64883" lon="-2.42894">
        <ele>3.6</ele>
        <time>2016-07-06T07:57:48Z</time>
      </trkpt>
      <trkpt lat="48.64886" lon="-2.42907">
        <ele>3.4</ele>
        <time>2016-07-06T07:57:56Z</time>
      </trkpt>
      <trkpt lat="48.64889" lon="-2.42921">
        <ele>2.9</ele>
        <time>2016-07-06T07:58:04Z</time>
      </trkpt>
      <trkpt lat="48.64892" lon="-2.42935">
        <ele>3.6</ele>
        <time>2016-07-06T07:58:11Z</time>
      </trkpt>
      <trkpt lat="48.64894" lon="-2.42948">
        <ele>4.5</ele>
        <time>2016-07-06T07:58:18Z</time>
      </trkpt>
      <trkpt lat="48.64899" lon="-2.42962">
        <ele>4</ele>
        <time>2016-07-06T07:58:27Z</time>
      </trkpt>
      <trkpt lat="48.64902" lon="-2.42976">
        <ele>3.4</ele>
        <time>2016-07-06T07:58:36Z</time>
      </trkpt>
      <trkpt lat="48.64903" lon="-2.42989">
        <ele>3.5</ele>
        <time>2016-07-06T07:58:44Z</time>
      </trkpt>
      <trkpt lat="48.64907" lon="-2.43002">
        <ele>2.9</ele>
        <time>2016-07-06T07:58:52Z</time>
      </trkpt>
      <trkpt lat="48.64908" lon="-2.43017">
        <ele>4.1</ele>
        <time>2016-07-06T07:59:01Z</time>
      </trkpt>
      <trkpt lat="48.6491" lon="-2.4303">
        <ele>4.4</ele>
        <time>2016-07-06T07:59:10Z</time>
      </trkpt>
      <trkpt lat="48.64913" lon="-2.43044">
        <ele>4.7</ele>
        <time>2016-07-06T07:59:18Z</time>
      </trkpt>
      <trkpt lat="48.64916" lon="-2.43059">
        <ele>3.7</ele>
        <time>2016-07-06T07:59:26Z</time>
      </trkpt>
      <trkpt lat="48.6492" lon="-2.43071">
        <ele>4.8</ele>
        <time>2016-07-06T07:59:36Z</time>
      </trkpt>
      <trkpt lat="48.64924" lon="-2.43083">
        <ele>3.7</ele>
        <time>2016-07-06T07:59:48Z</time>
      </trkpt>
      <trkpt lat="48.64921" lon="-2.43097">
        <ele>3.8</ele>
        <time>2016-07-06T07:59:59Z</time>
      </trkpt>
      <trkpt lat="48.6492" lon="-2.43111">
        <ele>3.5</ele>
        <time>2016-07-06T08:00:08Z</time>
      </trkpt>
      <trkpt lat="48.64915" lon="-2.43122">
        <ele>1.6</ele>
        <time>2016-07-06T08:00:19Z</time>
      </trkpt>
      <trkpt lat="48.64907" lon="-2.43128">
        <ele>1.7</ele>
        <time>2016-07-06T08:00:31Z</time>
      </trkpt>
      <trkpt lat="48.64907" lon="-2.43143">
        <ele>2.4</ele>
        <time>2016-07-06T08:00:48Z</time>
      </trkpt>
      <trkpt lat="48.64911" lon="-2.43157">
        <ele>3.3</ele>
        <time>2016-07-06T08:00:57Z</time>
      </trkpt>
      <trkpt lat="48.64918" lon="-2.43167">
        <ele>3.2</ele>
        <time>2016-07-06T08:01:07Z</time>
      </trkpt>
      <trkpt lat="48.64925" lon="-2.43179">
        <ele>2.6</ele>
        <time>2016-07-06T08:01:19Z</time>
      </trkpt>
      <trkpt lat="48.64933" lon="-2.43186">
        <ele>3.3</ele>
        <time>2016-07-06T08:01:30Z</time>
      </trkpt>
      <trkpt lat="48.64939" lon="-2.43199">
        <ele>2.9</ele>
        <time>2016-07-06T08:01:43Z</time>
      </trkpt>
      <trkpt lat="48.64944" lon="-2.43211">
        <ele>2.5</ele>
        <time>2016-07-06T08:01:54Z</time>
      </trkpt>
      <trkpt lat="48.6495" lon="-2.43223">
        <ele>1.8</ele>
        <time>2016-07-06T08:02:03Z</time>
      </trkpt>
      <trkpt lat="48.64957" lon="-2.43232">
        <ele>2.2</ele>
        <time>2016-07-06T08:02:10Z</time>
      </trkpt>
      <trkpt lat="48.64964" lon="-2.43243">
        <ele>3.7</ele>
        <time>2016-07-06T08:02:26Z</time>
      </trkpt>
      <trkpt lat="48.64971" lon="-2.4325">
        <ele>1.6</ele>
        <time>2016-07-06T08:02:45Z</time>
      </trkpt>
      <trkpt lat="48.64981" lon="-2.43257">
        <ele>1.8</ele>
        <time>2016-07-06T08:02:59Z</time>
      </trkpt>
      <trkpt lat="48.64988" lon="-2.43266">
        <ele>2.1</ele>
        <time>2016-07-06T08:03:31Z</time>
      </trkpt>
      <trkpt lat="48.64993" lon="-2.43277">
        <ele>1.8</ele>
        <time>2016-07-06T08:03:40Z</time>
      </trkpt>
      <trkpt lat="48.65001" lon="-2.43285">
        <ele>2.4</ele>
        <time>2016-07-06T08:03:54Z</time>
      </trkpt>
      <trkpt lat="48.65009" lon="-2.43293">
        <ele>4.5</ele>
        <time>2016-07-06T08:04:04Z</time>
      </trkpt>
      <trkpt lat="48.65014" lon="-2.43304">
        <ele>4.9</ele>
        <time>2016-07-06T08:04:14Z</time>
      </trkpt>
      <trkpt lat="48.6502" lon="-2.43316">
        <ele>5.6</ele>
        <time>2016-07-06T08:04:23Z</time>
      </trkpt>
      <trkpt lat="48.65027" lon="-2.43326">
        <ele>5.9</ele>
        <time>2016-07-06T08:04:31Z</time>
      </trkpt>
      <trkpt lat="48.65034" lon="-2.43338">
        <ele>5.1</ele>
        <time>2016-07-06T08:04:39Z</time>
      </trkpt>
      <trkpt lat="48.65041" lon="-2.43346">
        <ele>5.6</ele>
        <time>2016-07-06T08:04:47Z</time>
      </trkpt>
      <trkpt lat="48.65047" lon="-2.43358">
        <ele>4.9</ele>
        <time>2016-07-06T08:04:57Z</time>
      </trkpt>
      <trkpt lat="48.65053" lon="-2.4337">
        <ele>6</ele>
        <time>2016-07-06T08:05:05Z</time>
      </trkpt>
      <trkpt lat="48.65059" lon="-2.43382">
        <ele>5.1</ele>
        <time>2016-07-06T08:05:13Z</time>
      </trkpt>
      <trkpt lat="48.65064" lon="-2.43395">
        <ele>5.3</ele>
        <time>2016-07-06T08:05:21Z</time>
      </trkpt>
      <trkpt lat="48.65068" lon="-2.43409">
        <ele>4.8</ele>
        <time>2016-07-06T08:05:29Z</time>
      </trkpt>
      <trkpt lat="48.65074" lon="-2.4342">
        <ele>5.6</ele>
        <time>2016-07-06T08:05:36Z</time>
      </trkpt>
      <trkpt lat="48.6508" lon="-2.43432">
        <ele>4.2</ele>
        <time>2016-07-06T08:05:44Z</time>
      </trkpt>
      <trkpt lat="48.65087" lon="-2.43441">
        <ele>3.7</ele>
        <time>2016-07-06T08:05:52Z</time>
      </trkpt>
      <trkpt lat="48.65093" lon="-2.43452">
        <ele>3.4</ele>
        <time>2016-07-06T08:06:00Z</time>
      </trkpt>
      <trkpt lat="48.65099" lon="-2.43463">
        <ele>3.5</ele>
        <time>2016-07-06T08:06:09Z</time>
      </trkpt>
      <trkpt lat="48.65107" lon="-2.4347">
        <ele>3.4</ele>
        <time>2016-07-06T08:06:16Z</time>
      </trkpt>
      <trkpt lat="48.65114" lon="-2.4348">
        <ele>2.7</ele>
        <time>2016-07-06T08:06:25Z</time>
      </trkpt>
      <trkpt lat="48.65122" lon="-2.43488">
        <ele>3.4</ele>
        <time>2016-07-06T08:06:34Z</time>
      </trkpt>
      <trkpt lat="48.65128" lon="-2.43499">
        <ele>3.9</ele>
        <time>2016-07-06T08:06:44Z</time>
      </trkpt>
      <trkpt lat="48.65132" lon="-2.43513">
        <ele>5.9</ele>
        <time>2016-07-06T08:10:11Z</time>
      </trkpt>
      <trkpt lat="48.65138" lon="-2.43525">
        <ele>4.8</ele>
        <time>2016-07-06T08:10:19Z</time>
      </trkpt>
      <trkpt lat="48.65145" lon="-2.43535">
        <ele>3.8</ele>
        <time>2016-07-06T08:10:28Z</time>
      </trkpt>
      <trkpt lat="48.65152" lon="-2.43543">
        <ele>3.8</ele>
        <time>2016-07-06T08:10:39Z</time>
      </trkpt>
      <trkpt lat="48.65159" lon="-2.43553">
        <ele>4.5</ele>
        <time>2016-07-06T08:10:47Z</time>
      </trkpt>
      <trkpt lat="48.65165" lon="-2.43564">
        <ele>3.8</ele>
        <time>2016-07-06T08:10:55Z</time>
      </trkpt>
      <trkpt lat="48.65171" lon="-2.43576">
        <ele>4.2</ele>
        <time>2016-07-06T08:11:09Z</time>
      </trkpt>
      <trkpt lat="48.65177" lon="-2.43587">
        <ele>3.6</ele>
        <time>2016-07-06T08:11:18Z</time>
      </trkpt>
      <trkpt lat="48.65183" lon="-2.43598">
        <ele>3.8</ele>
        <time>2016-07-06T08:11:26Z</time>
      </trkpt>
      <trkpt lat="48.65189" lon="-2.43608">
        <ele>4.6</ele>
        <time>2016-07-06T08:11:34Z</time>
      </trkpt>
      <trkpt lat="48.65196" lon="-2.43619">
        <ele>3.3</ele>
        <time>2016-07-06T08:11:43Z</time>
      </trkpt>
      <trkpt lat="48.65202" lon="-2.43629">
        <ele>4.5</ele>
        <time>2016-07-06T08:11:51Z</time>
      </trkpt>
      <trkpt lat="48.65208" lon="-2.4364">
        <ele>3.4</ele>
        <time>2016-07-06T08:11:59Z</time>
      </trkpt>
      <trkpt lat="48.65214" lon="-2.4365">
        <ele>4.2</ele>
        <time>2016-07-06T08:12:07Z</time>
      </trkpt>
      <trkpt lat="48.6522" lon="-2.43661">
        <ele>3.5</ele>
        <time>2016-07-06T08:12:15Z</time>
      </trkpt>
      <trkpt lat="48.65226" lon="-2.43673">
        <ele>3.7</ele>
        <time>2016-07-06T08:12:23Z</time>
      </trkpt>
      <trkpt lat="48.65231" lon="-2.43684">
        <ele>4</ele>
        <time>2016-07-06T08:12:32Z</time>
      </trkpt>
      <trkpt lat="48.65236" lon="-2.43697">
        <ele>3.8</ele>
        <time>2016-07-06T08:12:40Z</time>
      </trkpt>
      <trkpt lat="48.65239" lon="-2.4371">
        <ele>3.2</ele>
        <time>2016-07-06T08:12:48Z</time>
      </trkpt>
      <trkpt lat="48.65244" lon="-2.43724">
        <ele>2.2</ele>
        <time>2016-07-06T08:12:56Z</time>
      </trkpt>
      <trkpt lat="48.65246" lon="-2.43737">
        <ele>3.3</ele>
        <time>2016-07-06T08:13:04Z</time>
      </trkpt>
      <trkpt lat="48.65249" lon="-2.43752">
        <ele>2.9</ele>
        <time>2016-07-06T08:13:13Z</time>
      </trkpt>
      <trkpt lat="48.65251" lon="-2.43767">
        <ele>2.6</ele>
        <time>2016-07-06T08:13:21Z</time>
      </trkpt>
      <trkpt lat="48.65253" lon="-2.43782">
        <ele>3.3</ele>
        <time>2016-07-06T08:13:30Z</time>
      </trkpt>
      <trkpt lat="48.65253" lon="-2.43796">
        <ele>3.2</ele>
        <time>2016-07-06T08:13:39Z</time>
      </trkpt>
      <trkpt lat="48.65252" lon="-2.43812">
        <ele>3.7</ele>
        <time>2016-07-06T08:13:48Z</time>
      </trkpt>
      <trkpt lat="48.65249" lon="-2.43826">
        <ele>3.7</ele>
        <time>2016-07-06T08:13:56Z</time>
      </trkpt>
      <trkpt lat="48.65246" lon="-2.4384">
        <ele>3.9</ele>
        <time>2016-07-06T08:14:05Z</time>
      </trkpt>
      <trkpt lat="48.65251" lon="-2.43852">
        <ele>3.2</ele>
        <time>2016-07-06T08:14:14Z</time>
      </trkpt>
      <trkpt lat="48.65248" lon="-2.43865">
        <ele>5.2</ele>
        <time>2016-07-06T08:14:34Z</time>
      </trkpt>
      <trkpt lat="48.65243" lon="-2.43878">
        <ele>4.7</ele>
        <time>2016-07-06T08:14:43Z</time>
      </trkpt>
      <trkpt lat="48.65238" lon="-2.43891">
        <ele>4.4</ele>
        <time>2016-07-06T08:14:52Z</time>
      </trkpt>
      <trkpt lat="48.65232" lon="-2.43903">
        <ele>5.2</ele>
        <time>2016-07-06T08:15:01Z</time>
      </trkpt>
      <trkpt lat="48.65227" lon="-2.43916">
        <ele>5.3</ele>
        <time>2016-07-06T08:15:11Z</time>
      </trkpt>
      <trkpt lat="48.65222" lon="-2.43928">
        <ele>5.3</ele>
        <time>2016-07-06T08:15:19Z</time>
      </trkpt>
      <trkpt lat="48.65218" lon="-2.43941">
        <ele>5.6</ele>
        <time>2016-07-06T08:15:28Z</time>
      </trkpt>
      <trkpt lat="48.65214" lon="-2.43955">
        <ele>5.1</ele>
        <time>2016-07-06T08:15:37Z</time>
      </trkpt>
      <trkpt lat="48.65209" lon="-2.43968">
        <ele>4.3</ele>
        <time>2016-07-06T08:15:45Z</time>
      </trkpt>
      <trkpt lat="48.65204" lon="-2.4398">
        <ele>5.6</ele>
        <time>2016-07-06T08:15:55Z</time>
      </trkpt>
      <trkpt lat="48.65199" lon="-2.43994">
        <ele>5</ele>
        <time>2016-07-06T08:16:04Z</time>
      </trkpt>
      <trkpt lat="48.65195" lon="-2.44007">
        <ele>5.5</ele>
        <time>2016-07-06T08:16:12Z</time>
      </trkpt>
      <trkpt lat="48.6519" lon="-2.4402">
        <ele>6.1</ele>
        <time>2016-07-06T08:16:20Z</time>
      </trkpt>
      <trkpt lat="48.65185" lon="-2.44033">
        <ele>6.1</ele>
        <time>2016-07-06T08:16:29Z</time>
      </trkpt>
      <trkpt lat="48.65181" lon="-2.44046">
        <ele>6.3</ele>
        <time>2016-07-06T08:16:37Z</time>
      </trkpt>
      <trkpt lat="48.65177" lon="-2.4406">
        <ele>6.5</ele>
        <time>2016-07-06T08:16:45Z</time>
      </trkpt>
      <trkpt lat="48.65173" lon="-2.44072">
        <ele>5.8</ele>
        <time>2016-07-06T08:16:53Z</time>
      </trkpt>
      <trkpt lat="48.6517" lon="-2.44085">
        <ele>6.1</ele>
        <time>2016-07-06T08:17:04Z</time>
      </trkpt>
      <trkpt lat="48.6517" lon="-2.441">
        <ele>3.5</ele>
        <time>2016-07-06T08:17:40Z</time>
      </trkpt>
      <trkpt lat="48.65174" lon="-2.44114">
        <ele>3.3</ele>
        <time>2016-07-06T08:17:48Z</time>
      </trkpt>
      <trkpt lat="48.65179" lon="-2.44127">
        <ele>2.3</ele>
        <time>2016-07-06T08:17:56Z</time>
      </trkpt>
      <trkpt lat="48.65181" lon="-2.44142">
        <ele>2.4</ele>
        <time>2016-07-06T08:18:04Z</time>
      </trkpt>
      <trkpt lat="48.65172" lon="-2.44145">
        <ele>3.7</ele>
        <time>2016-07-06T08:18:16Z</time>
      </trkpt>
      <trkpt lat="48.65162" lon="-2.44146">
        <ele>3.3</ele>
        <time>2016-07-06T08:18:26Z</time>
      </trkpt>
      <trkpt lat="48.65153" lon="-2.44148">
        <ele>2.6</ele>
        <time>2016-07-06T08:18:47Z</time>
      </trkpt>
      <trkpt lat="48.65144" lon="-2.44155">
        <ele>1.8</ele>
        <time>2016-07-06T08:18:57Z</time>
      </trkpt>
      <trkpt lat="48.65139" lon="-2.44165">
        <ele>2.1</ele>
        <time>2016-07-06T08:19:24Z</time>
      </trkpt>
      <trkpt lat="48.65132" lon="-2.44175">
        <ele>2.5</ele>
        <time>2016-07-06T08:20:08Z</time>
      </trkpt>
      <trkpt lat="48.65126" lon="-2.44185">
        <ele>3.1</ele>
        <time>2016-07-06T08:20:31Z</time>
      </trkpt>
      <trkpt lat="48.6512" lon="-2.44197">
        <ele>3.8</ele>
        <time>2016-07-06T08:20:41Z</time>
      </trkpt>
      <trkpt lat="48.65114" lon="-2.44208">
        <ele>3.5</ele>
        <time>2016-07-06T08:21:27Z</time>
      </trkpt>
      <trkpt lat="48.6511" lon="-2.4422">
        <ele>3.5</ele>
        <time>2016-07-06T08:22:48Z</time>
      </trkpt>
      <trkpt lat="48.65105" lon="-2.44234">
        <ele>2.9</ele>
        <time>2016-07-06T08:22:59Z</time>
      </trkpt>
      <trkpt lat="48.65101" lon="-2.44247">
        <ele>3.2</ele>
        <time>2016-07-06T08:23:09Z</time>
      </trkpt>
      <trkpt lat="48.65099" lon="-2.44261">
        <ele>2.8</ele>
        <time>2016-07-06T08:23:28Z</time>
      </trkpt>
      <trkpt lat="48.65095" lon="-2.44274">
        <ele>3.8</ele>
        <time>2016-07-06T08:23:38Z</time>
      </trkpt>
      <trkpt lat="48.65091" lon="-2.44286">
        <ele>2.6</ele>
        <time>2016-07-06T08:23:47Z</time>
      </trkpt>
      <trkpt lat="48.65088" lon="-2.44299">
        <ele>3</ele>
        <time>2016-07-06T08:24:28Z</time>
      </trkpt>
      <trkpt lat="48.65084" lon="-2.44312">
        <ele>3.2</ele>
        <time>2016-07-06T08:24:39Z</time>
      </trkpt>
      <trkpt lat="48.65081" lon="-2.44325">
        <ele>2.6</ele>
        <time>2016-07-06T08:24:54Z</time>
      </trkpt>
      <trkpt lat="48.65079" lon="-2.44339">
        <ele>2.7</ele>
        <time>2016-07-06T08:25:07Z</time>
      </trkpt>
      <trkpt lat="48.65074" lon="-2.44351">
        <ele>3.3</ele>
        <time>2016-07-06T08:25:20Z</time>
      </trkpt>
      <trkpt lat="48.65072" lon="-2.44365">
        <ele>2.3</ele>
        <time>2016-07-06T08:25:37Z</time>
      </trkpt>
      <trkpt lat="48.65067" lon="-2.44377">
        <ele>2.9</ele>
        <time>2016-07-06T08:25:51Z</time>
      </trkpt>
      <trkpt lat="48.65066" lon="-2.44391">
        <ele>2.9</ele>
        <time>2016-07-06T08:26:05Z</time>
      </trkpt>
      <trkpt lat="48.65063" lon="-2.44404">
        <ele>2.8</ele>
        <time>2016-07-06T08:26:18Z</time>
      </trkpt>
      <trkpt lat="48.6506" lon="-2.44418">
        <ele>3.3</ele>
        <time>2016-07-06T08:26:30Z</time>
      </trkpt>
      <trkpt lat="48.65059" lon="-2.44432">
        <ele>3.4</ele>
        <time>2016-07-06T08:26:43Z</time>
      </trkpt>
      <trkpt lat="48.65057" lon="-2.44446">
        <ele>3.4</ele>
        <time>2016-07-06T08:26:55Z</time>
      </trkpt>
      <trkpt lat="48.65057" lon="-2.44461">
        <ele>4</ele>
        <time>2016-07-06T08:27:05Z</time>
      </trkpt>
      <trkpt lat="48.65055" lon="-2.44475">
        <ele>2.9</ele>
        <time>2016-07-06T08:27:16Z</time>
      </trkpt>
      <trkpt lat="48.6505" lon="-2.44487">
        <ele>4.4</ele>
        <time>2016-07-06T08:27:42Z</time>
      </trkpt>
      <trkpt lat="48.65045" lon="-2.44499">
        <ele>3.6</ele>
        <time>2016-07-06T08:27:52Z</time>
      </trkpt>
      <trkpt lat="48.65039" lon="-2.44511">
        <ele>3</ele>
        <time>2016-07-06T08:28:01Z</time>
      </trkpt>
      <trkpt lat="48.65033" lon="-2.44522">
        <ele>3.3</ele>
        <time>2016-07-06T08:28:11Z</time>
      </trkpt>
      <trkpt lat="48.65027" lon="-2.44533">
        <ele>3.1</ele>
        <time>2016-07-06T08:28:22Z</time>
      </trkpt>
      <trkpt lat="48.65021" lon="-2.44544">
        <ele>3.1</ele>
        <time>2016-07-06T08:28:33Z</time>
      </trkpt>
      <trkpt lat="48.65016" lon="-2.44556">
        <ele>3.3</ele>
        <time>2016-07-06T08:28:44Z</time>
      </trkpt>
      <trkpt lat="48.65011" lon="-2.44568">
        <ele>3</ele>
        <time>2016-07-06T08:28:53Z</time>
      </trkpt>
      <trkpt lat="48.65006" lon="-2.4458">
        <ele>4.1</ele>
        <time>2016-07-06T08:29:02Z</time>
      </trkpt>
      <trkpt lat="48.65001" lon="-2.44592">
        <ele>3.9</ele>
        <time>2016-07-06T08:29:43Z</time>
      </trkpt>
      <trkpt lat="48.64997" lon="-2.44604">
        <ele>3.4</ele>
        <time>2016-07-06T08:29:56Z</time>
      </trkpt>
      <trkpt lat="48.64992" lon="-2.44616">
        <ele>3.8</ele>
        <time>2016-07-06T08:30:04Z</time>
      </trkpt>
      <trkpt lat="48.64988" lon="-2.44628">
        <ele>3.9</ele>
        <time>2016-07-06T08:30:12Z</time>
      </trkpt>
      <trkpt lat="48.64983" lon="-2.4464">
        <ele>4</ele>
        <time>2016-07-06T08:30:22Z</time>
      </trkpt>
      <trkpt lat="48.64981" lon="-2.44655">
        <ele>3.5</ele>
        <time>2016-07-06T08:30:34Z</time>
      </trkpt>
      <trkpt lat="48.6498" lon="-2.44669">
        <ele>3.4</ele>
        <time>2016-07-06T08:30:43Z</time>
      </trkpt>
      <trkpt lat="48.64977" lon="-2.44682">
        <ele>3.3</ele>
        <time>2016-07-06T08:30:53Z</time>
      </trkpt>
      <trkpt lat="48.64974" lon="-2.44695">
        <ele>3.5</ele>
        <time>2016-07-06T08:31:03Z</time>
      </trkpt>
      <trkpt lat="48.6497" lon="-2.44709">
        <ele>3.8</ele>
        <time>2016-07-06T08:31:14Z</time>
      </trkpt>
      <trkpt lat="48.64967" lon="-2.44723">
        <ele>3.7</ele>
        <time>2016-07-06T08:31:24Z</time>
      </trkpt>
      <trkpt lat="48.64965" lon="-2.44736">
        <ele>3.8</ele>
        <time>2016-07-06T08:31:34Z</time>
      </trkpt>
      <trkpt lat="48.64961" lon="-2.4475">
        <ele>3.2</ele>
        <time>2016-07-06T08:31:44Z</time>
      </trkpt>
      <trkpt lat="48.64958" lon="-2.44763">
        <ele>3.3</ele>
        <time>2016-07-06T08:31:56Z</time>
      </trkpt>
      <trkpt lat="48.64954" lon="-2.44776">
        <ele>3.1</ele>
        <time>2016-07-06T08:32:06Z</time>
      </trkpt>
      <trkpt lat="48.64951" lon="-2.44789">
        <ele>3.4</ele>
        <time>2016-07-06T08:32:16Z</time>
      </trkpt>
      <trkpt lat="48.64947" lon="-2.44801">
        <ele>3</ele>
        <time>2016-07-06T08:32:25Z</time>
      </trkpt>
      <trkpt lat="48.64943" lon="-2.44815">
        <ele>2.3</ele>
        <time>2016-07-06T08:32:37Z</time>
      </trkpt>
      <trkpt lat="48.64939" lon="-2.44827">
        <ele>2.4</ele>
        <time>2016-07-06T08:32:52Z</time>
      </trkpt>
      <trkpt lat="48.64934" lon="-2.44839">
        <ele>2.1</ele>
        <time>2016-07-06T08:33:02Z</time>
      </trkpt>
      <trkpt lat="48.6493" lon="-2.44851">
        <ele>2.4</ele>
        <time>2016-07-06T08:33:12Z</time>
      </trkpt>
      <trkpt lat="48.6493" lon="-2.44865">
        <ele>2.5</ele>
        <time>2016-07-06T08:33:22Z</time>
      </trkpt>
      <trkpt lat="48.64925" lon="-2.44879">
        <ele>3</ele>
        <time>2016-07-06T08:33:33Z</time>
      </trkpt>
      <trkpt lat="48.64922" lon="-2.44892">
        <ele>2.7</ele>
        <time>2016-07-06T08:33:45Z</time>
      </trkpt>
      <trkpt lat="48.64919" lon="-2.44905">
        <ele>3.1</ele>
        <time>2016-07-06T08:34:01Z</time>
      </trkpt>
      <trkpt lat="48.64916" lon="-2.44918">
        <ele>3.1</ele>
        <time>2016-07-06T08:34:11Z</time>
      </trkpt>
      <trkpt lat="48.64915" lon="-2.44933">
        <ele>3.2</ele>
        <time>2016-07-06T08:34:22Z</time>
      </trkpt>
      <trkpt lat="48.64914" lon="-2.44948">
        <ele>3.1</ele>
        <time>2016-07-06T08:34:32Z</time>
      </trkpt>
      <trkpt lat="48.6491" lon="-2.44961">
        <ele>3</ele>
        <time>2016-07-06T08:34:41Z</time>
      </trkpt>
      <trkpt lat="48.64907" lon="-2.44974">
        <ele>2.3</ele>
        <time>2016-07-06T08:34:50Z</time>
      </trkpt>
      <trkpt lat="48.64902" lon="-2.44987">
        <ele>3.5</ele>
        <time>2016-07-06T08:35:05Z</time>
      </trkpt>
      <trkpt lat="48.64898" lon="-2.45">
        <ele>4</ele>
        <time>2016-07-06T08:35:15Z</time>
      </trkpt>
      <trkpt lat="48.64892" lon="-2.45011">
        <ele>4</ele>
        <time>2016-07-06T08:35:25Z</time>
      </trkpt>
      <trkpt lat="48.64886" lon="-2.45022">
        <ele>4.4</ele>
        <time>2016-07-06T08:35:34Z</time>
      </trkpt>
      <trkpt lat="48.64881" lon="-2.45033">
        <ele>3</ele>
        <time>2016-07-06T08:35:43Z</time>
      </trkpt>
      <trkpt lat="48.64875" lon="-2.45045">
        <ele>3.3</ele>
        <time>2016-07-06T08:35:53Z</time>
      </trkpt>
      <trkpt lat="48.64869" lon="-2.45056">
        <ele>3</ele>
        <time>2016-07-06T08:36:02Z</time>
      </trkpt>
      <trkpt lat="48.64864" lon="-2.45068">
        <ele>3</ele>
        <time>2016-07-06T08:36:12Z</time>
      </trkpt>
      <trkpt lat="48.64858" lon="-2.45079">
        <ele>3.6</ele>
        <time>2016-07-06T08:36:22Z</time>
      </trkpt>
      <trkpt lat="48.64853" lon="-2.45091">
        <ele>3.7</ele>
        <time>2016-07-06T08:36:31Z</time>
      </trkpt>
      <trkpt lat="48.6485" lon="-2.45104">
        <ele>4.2</ele>
        <time>2016-07-06T08:36:42Z</time>
      </trkpt>
      <trkpt lat="48.64846" lon="-2.45116">
        <ele>5</ele>
        <time>2016-07-06T08:36:52Z</time>
      </trkpt>
      <trkpt lat="48.64842" lon="-2.45129">
        <ele>4.4</ele>
        <time>2016-07-06T08:37:04Z</time>
      </trkpt>
      <trkpt lat="48.64836" lon="-2.45141">
        <ele>4.4</ele>
        <time>2016-07-06T08:38:12Z</time>
      </trkpt>
      <trkpt lat="48.64833" lon="-2.45155">
        <ele>4.5</ele>
        <time>2016-07-06T08:38:24Z</time>
      </trkpt>
      <trkpt lat="48.64829" lon="-2.45168">
        <ele>4.4</ele>
        <time>2016-07-06T08:38:35Z</time>
      </trkpt>
      <trkpt lat="48.64824" lon="-2.45181">
        <ele>4.1</ele>
        <time>2016-07-06T08:38:46Z</time>
      </trkpt>
      <trkpt lat="48.64819" lon="-2.45193">
        <ele>3.7</ele>
        <time>2016-07-06T08:38:56Z</time>
      </trkpt>
      <trkpt lat="48.64815" lon="-2.45206">
        <ele>3.6</ele>
        <time>2016-07-06T08:39:07Z</time>
      </trkpt>
      <trkpt lat="48.64811" lon="-2.4522">
        <ele>4.5</ele>
        <time>2016-07-06T08:39:18Z</time>
      </trkpt>
      <trkpt lat="48.64807" lon="-2.45233">
        <ele>5</ele>
        <time>2016-07-06T08:39:28Z</time>
      </trkpt>
      <trkpt lat="48.64803" lon="-2.45246">
        <ele>5.1</ele>
        <time>2016-07-06T08:39:55Z</time>
      </trkpt>
      <trkpt lat="48.64799" lon="-2.4526">
        <ele>4.3</ele>
        <time>2016-07-06T08:40:04Z</time>
      </trkpt>
      <trkpt lat="48.64795" lon="-2.45272">
        <ele>4.6</ele>
        <time>2016-07-06T08:40:13Z</time>
      </trkpt>
      <trkpt lat="48.64791" lon="-2.45286">
        <ele>5.3</ele>
        <time>2016-07-06T08:40:22Z</time>
      </trkpt>
      <trkpt lat="48.64787" lon="-2.45299">
        <ele>5.6</ele>
        <time>2016-07-06T08:40:31Z</time>
      </trkpt>
      <trkpt lat="48.64781" lon="-2.45309">
        <ele>5.2</ele>
        <time>2016-07-06T08:40:40Z</time>
      </trkpt>
      <trkpt lat="48.64775" lon="-2.4532">
        <ele>6.3</ele>
        <time>2016-07-06T08:40:52Z</time>
      </trkpt>
      <trkpt lat="48.64768" lon="-2.45329">
        <ele>9.7</ele>
        <time>2016-07-06T08:41:09Z</time>
      </trkpt>
      <trkpt lat="48.64766" lon="-2.45342">
        <ele>12.6</ele>
        <time>2016-07-06T08:41:20Z</time>
      </trkpt>
      <trkpt lat="48.64763" lon="-2.45356">
        <ele>14.1</ele>
        <time>2016-07-06T08:41:31Z</time>
      </trkpt>
      <trkpt lat="48.64761" lon="-2.4537">
        <ele>16.5</ele>
        <time>2016-07-06T08:42:12Z</time>
      </trkpt>
      <trkpt lat="48.64757" lon="-2.45384">
        <ele>16.6</ele>
        <time>2016-07-06T08:42:20Z</time>
      </trkpt>
      <trkpt lat="48.64752" lon="-2.45396">
        <ele>17.6</ele>
        <time>2016-07-06T08:42:29Z</time>
      </trkpt>
      <trkpt lat="48.64745" lon="-2.45406">
        <ele>19.2</ele>
        <time>2016-07-06T08:42:39Z</time>
      </trkpt>
      <trkpt lat="48.64736" lon="-2.45412">
        <ele>20.5</ele>
        <time>2016-07-06T08:42:49Z</time>
      </trkpt>
      <trkpt lat="48.64728" lon="-2.45418">
        <ele>20.6</ele>
        <time>2016-07-06T08:42:59Z</time>
      </trkpt>
      <trkpt lat="48.64719" lon="-2.45424">
        <ele>21.9</ele>
        <time>2016-07-06T08:43:30Z</time>
      </trkpt>
      <trkpt lat="48.64711" lon="-2.4543">
        <ele>22.5</ele>
        <time>2016-07-06T08:43:37Z</time>
      </trkpt>
      <trkpt lat="48.64704" lon="-2.45438">
        <ele>23.2</ele>
        <time>2016-07-06T08:43:47Z</time>
      </trkpt>
      <trkpt lat="48.64696" lon="-2.45447">
        <ele>24</ele>
        <time>2016-07-06T08:43:55Z</time>
      </trkpt>
      <trkpt lat="48.64689" lon="-2.45457">
        <ele>25.9</ele>
        <time>2016-07-06T08:44:03Z</time>
      </trkpt>
      <trkpt lat="48.64683" lon="-2.45467">
        <ele>25.8</ele>
        <time>2016-07-06T08:44:11Z</time>
      </trkpt>
      <trkpt lat="48.64677" lon="-2.45478">
        <ele>27.5</ele>
        <time>2016-07-06T08:44:20Z</time>
      </trkpt>
      <trkpt lat="48.6467" lon="-2.45487">
        <ele>27.8</ele>
        <time>2016-07-06T08:44:28Z</time>
      </trkpt>
      <trkpt lat="48.64663" lon="-2.45496">
        <ele>28.2</ele>
        <time>2016-07-06T08:44:36Z</time>
      </trkpt>
      <trkpt lat="48.64659" lon="-2.45509">
        <ele>30.1</ele>
        <time>2016-07-06T08:45:27Z</time>
      </trkpt>
      <trkpt lat="48.64664" lon="-2.45522">
        <ele>34.5</ele>
        <time>2016-07-06T08:45:54Z</time>
      </trkpt>
      <trkpt lat="48.64673" lon="-2.45523">
        <ele>35</ele>
        <time>2016-07-06T08:46:34Z</time>
      </trkpt>
      <trkpt lat="48.6468" lon="-2.45514">
        <ele>34.8</ele>
        <time>2016-07-06T08:46:42Z</time>
      </trkpt>
      <trkpt lat="48.64688" lon="-2.45508">
        <ele>35.8</ele>
        <time>2016-07-06T08:46:52Z</time>
      </trkpt>
      <trkpt lat="48.64697" lon="-2.455">
        <ele>36</ele>
        <time>2016-07-06T08:47:13Z</time>
      </trkpt>
      <trkpt lat="48.64704" lon="-2.45491">
        <ele>36.3</ele>
        <time>2016-07-06T08:47:22Z</time>
      </trkpt>
      <trkpt lat="48.64711" lon="-2.45482">
        <ele>38.8</ele>
        <time>2016-07-06T08:47:30Z</time>
      </trkpt>
      <trkpt lat="48.64719" lon="-2.45474">
        <ele>38.3</ele>
        <time>2016-07-06T08:47:41Z</time>
      </trkpt>
      <trkpt lat="48.64729" lon="-2.45469">
        <ele>38.6</ele>
        <time>2016-07-06T08:47:52Z</time>
      </trkpt>
      <trkpt lat="48.64737" lon="-2.45462">
        <ele>38.8</ele>
        <time>2016-07-06T08:48:03Z</time>
      </trkpt>
      <trkpt lat="48.64746" lon="-2.45461">
        <ele>39</ele>
        <time>2016-07-06T08:48:11Z</time>
      </trkpt>
      <trkpt lat="48.64756" lon="-2.45464">
        <ele>38.4</ele>
        <time>2016-07-06T08:48:28Z</time>
      </trkpt>
      <trkpt lat="48.64766" lon="-2.45463">
        <ele>38.9</ele>
        <time>2016-07-06T08:48:36Z</time>
      </trkpt>
      <trkpt lat="48.64768" lon="-2.45477">
        <ele>38</ele>
        <time>2016-07-06T08:48:45Z</time>
      </trkpt>
      <trkpt lat="48.64764" lon="-2.4549">
        <ele>37.9</ele>
        <time>2016-07-06T08:48:52Z</time>
      </trkpt>
      <trkpt lat="48.64764" lon="-2.45504">
        <ele>38.9</ele>
        <time>2016-07-06T08:49:00Z</time>
      </trkpt>
      <trkpt lat="48.64762" lon="-2.4552">
        <ele>40</ele>
        <time>2016-07-06T08:49:08Z</time>
      </trkpt>
      <trkpt lat="48.6476" lon="-2.45534">
        <ele>38.8</ele>
        <time>2016-07-06T08:49:15Z</time>
      </trkpt>
      <trkpt lat="48.64762" lon="-2.45548">
        <ele>39.3</ele>
        <time>2016-07-06T08:49:23Z</time>
      </trkpt>
      <trkpt lat="48.64768" lon="-2.45561">
        <ele>39.4</ele>
        <time>2016-07-06T08:49:31Z</time>
      </trkpt>
      <trkpt lat="48.64773" lon="-2.45573">
        <ele>39.4</ele>
        <time>2016-07-06T08:49:39Z</time>
      </trkpt>
      <trkpt lat="48.64776" lon="-2.45586">
        <ele>38.2</ele>
        <time>2016-07-06T08:49:47Z</time>
      </trkpt>
      <trkpt lat="48.64776" lon="-2.456">
        <ele>40.1</ele>
        <time>2016-07-06T08:49:57Z</time>
      </trkpt>
      <trkpt lat="48.64775" lon="-2.45615">
        <ele>40.3</ele>
        <time>2016-07-06T08:50:09Z</time>
      </trkpt>
      <trkpt lat="48.64779" lon="-2.45629">
        <ele>41</ele>
        <time>2016-07-06T08:50:19Z</time>
      </trkpt>
      <trkpt lat="48.6478" lon="-2.45642">
        <ele>41.1</ele>
        <time>2016-07-06T08:50:29Z</time>
      </trkpt>
      <trkpt lat="48.64786" lon="-2.45652">
        <ele>43.2</ele>
        <time>2016-07-06T08:50:39Z</time>
      </trkpt>
      <trkpt lat="48.6479" lon="-2.45666">
        <ele>42.1</ele>
        <time>2016-07-06T08:50:59Z</time>
      </trkpt>
      <trkpt lat="48.64791" lon="-2.45683">
        <ele>43.1</ele>
        <time>2016-07-06T08:51:07Z</time>
      </trkpt>
      <trkpt lat="48.64794" lon="-2.45697">
        <ele>41.9</ele>
        <time>2016-07-06T08:51:16Z</time>
      </trkpt>
      <trkpt lat="48.64799" lon="-2.45711">
        <ele>42.7</ele>
        <time>2016-07-06T08:51:24Z</time>
      </trkpt>
      <trkpt lat="48.64805" lon="-2.45722">
        <ele>42.8</ele>
        <time>2016-07-06T08:51:31Z</time>
      </trkpt>
      <trkpt lat="48.64807" lon="-2.45735">
        <ele>43.1</ele>
        <time>2016-07-06T08:51:41Z</time>
      </trkpt>
      <trkpt lat="48.64807" lon="-2.4575">
        <ele>43.6</ele>
        <time>2016-07-06T08:53:04Z</time>
      </trkpt>
      <trkpt lat="48.64808" lon="-2.45764">
        <ele>43.2</ele>
        <time>2016-07-06T08:53:14Z</time>
      </trkpt>
      <trkpt lat="48.64805" lon="-2.45778">
        <ele>43.4</ele>
        <time>2016-07-06T08:53:23Z</time>
      </trkpt>
      <trkpt lat="48.64803" lon="-2.45792">
        <ele>43.2</ele>
        <time>2016-07-06T08:53:32Z</time>
      </trkpt>
      <trkpt lat="48.64801" lon="-2.45805">
        <ele>41.8</ele>
        <time>2016-07-06T08:53:41Z</time>
      </trkpt>
      <trkpt lat="48.64801" lon="-2.4582">
        <ele>41</ele>
        <time>2016-07-06T08:53:55Z</time>
      </trkpt>
      <trkpt lat="48.648" lon="-2.45834">
        <ele>40.4</ele>
        <time>2016-07-06T08:54:10Z</time>
      </trkpt>
      <trkpt lat="48.648" lon="-2.45848">
        <ele>38.3</ele>
        <time>2016-07-06T08:54:22Z</time>
      </trkpt>
      <trkpt lat="48.64798" lon="-2.45862">
        <ele>38.1</ele>
        <time>2016-07-06T08:54:36Z</time>
      </trkpt>
      <trkpt lat="48.64798" lon="-2.45877">
        <ele>36.3</ele>
        <time>2016-07-06T08:54:50Z</time>
      </trkpt>
      <trkpt lat="48.64799" lon="-2.45891">
        <ele>34.6</ele>
        <time>2016-07-06T08:55:11Z</time>
      </trkpt>
      <trkpt lat="48.648" lon="-2.45906">
        <ele>33.5</ele>
        <time>2016-07-06T08:55:24Z</time>
      </trkpt>
      <trkpt lat="48.64794" lon="-2.45917">
        <ele>34.6</ele>
        <time>2016-07-06T08:55:33Z</time>
      </trkpt>
      <trkpt lat="48.64784" lon="-2.45917">
        <ele>33.5</ele>
        <time>2016-07-06T08:55:44Z</time>
      </trkpt>
      <trkpt lat="48.64775" lon="-2.45917">
        <ele>33.9</ele>
        <time>2016-07-06T08:55:52Z</time>
      </trkpt>
      <trkpt lat="48.64765" lon="-2.4592">
        <ele>35</ele>
        <time>2016-07-06T08:55:59Z</time>
      </trkpt>
      <trkpt lat="48.64757" lon="-2.45927">
        <ele>32.9</ele>
        <time>2016-07-06T08:56:08Z</time>
      </trkpt>
      <trkpt lat="48.64749" lon="-2.45934">
        <ele>32.9</ele>
        <time>2016-07-06T08:56:20Z</time>
      </trkpt>
      <trkpt lat="48.6474" lon="-2.45937">
        <ele>33.3</ele>
        <time>2016-07-06T08:56:31Z</time>
      </trkpt>
      <trkpt lat="48.64746" lon="-2.45948">
        <ele>30.1</ele>
        <time>2016-07-06T08:57:15Z</time>
      </trkpt>
      <trkpt lat="48.64746" lon="-2.45961">
        <ele>24.3</ele>
        <time>2016-07-06T08:57:48Z</time>
      </trkpt>
      <trkpt lat="48.64749" lon="-2.45974">
        <ele>23.4</ele>
        <time>2016-07-06T08:58:12Z</time>
      </trkpt>
      <trkpt lat="48.6475" lon="-2.45989">
        <ele>21.7</ele>
        <time>2016-07-06T08:58:33Z</time>
      </trkpt>
      <trkpt lat="48.64754" lon="-2.46002">
        <ele>20.6</ele>
        <time>2016-07-06T08:58:43Z</time>
      </trkpt>
      <trkpt lat="48.64761" lon="-2.46011">
        <ele>18.2</ele>
        <time>2016-07-06T08:58:55Z</time>
      </trkpt>
      <trkpt lat="48.64762" lon="-2.46027">
        <ele>15.8</ele>
        <time>2016-07-06T08:59:12Z</time>
      </trkpt>
      <trkpt lat="48.64762" lon="-2.4604">
        <ele>15.7</ele>
        <time>2016-07-06T08:59:22Z</time>
      </trkpt>
      <trkpt lat="48.64761" lon="-2.46055">
        <ele>13.8</ele>
        <time>2016-07-06T08:59:30Z</time>
      </trkpt>
      <trkpt lat="48.64756" lon="-2.46068">
        <ele>14.5</ele>
        <time>2016-07-06T08:59:39Z</time>
      </trkpt>
      <trkpt lat="48.64748" lon="-2.46077">
        <ele>15.8</ele>
        <time>2016-07-06T08:59:49Z</time>
      </trkpt>
      <trkpt lat="48.64743" lon="-2.46089">
        <ele>14.5</ele>
        <time>2016-07-06T09:00:02Z</time>
      </trkpt>
      <trkpt lat="48.64737" lon="-2.46099">
        <ele>13.2</ele>
        <time>2016-07-06T09:00:12Z</time>
      </trkpt>
      <trkpt lat="48.64737" lon="-2.46114">
        <ele>11.5</ele>
        <time>2016-07-06T09:00:24Z</time>
      </trkpt>
      <trkpt lat="48.64741" lon="-2.46127">
        <ele>11.1</ele>
        <time>2016-07-06T09:00:39Z</time>
      </trkpt>
      <trkpt lat="48.64744" lon="-2.46141">
        <ele>12.3</ele>
        <time>2016-07-06T09:00:49Z</time>
      </trkpt>
      <trkpt lat="48.64745" lon="-2.46155">
        <ele>14.4</ele>
        <time>2016-07-06T09:01:01Z</time>
      </trkpt>
      <trkpt lat="48.64747" lon="-2.46169">
        <ele>13.2</ele>
        <time>2016-07-06T09:01:21Z</time>
      </trkpt>
      <trkpt lat="48.64748" lon="-2.46183">
        <ele>14.6</ele>
        <time>2016-07-06T09:01:30Z</time>
      </trkpt>
      <trkpt lat="48.64749" lon="-2.46197">
        <ele>14.1</ele>
        <time>2016-07-06T09:01:37Z</time>
      </trkpt>
      <trkpt lat="48.64748" lon="-2.46212">
        <ele>12.9</ele>
        <time>2016-07-06T09:01:46Z</time>
      </trkpt>
      <trkpt lat="48.64747" lon="-2.46225">
        <ele>14.4</ele>
        <time>2016-07-06T09:01:58Z</time>
      </trkpt>
      <trkpt lat="48.64749" lon="-2.46239">
        <ele>15.2</ele>
        <time>2016-07-06T09:02:05Z</time>
      </trkpt>
      <trkpt lat="48.64748" lon="-2.46253">
        <ele>15.9</ele>
        <time>2016-07-06T09:02:13Z</time>
      </trkpt>
      <trkpt lat="48.64748" lon="-2.46268">
        <ele>17.6</ele>
        <time>2016-07-06T09:02:21Z</time>
      </trkpt>
      <trkpt lat="48.64749" lon="-2.46283">
        <ele>17.6</ele>
        <time>2016-07-06T09:02:56Z</time>
      </trkpt>
      <trkpt lat="48.64744" lon="-2.46295">
        <ele>17.1</ele>
        <time>2016-07-06T09:03:08Z</time>
      </trkpt>
      <trkpt lat="48.64735" lon="-2.46302">
        <ele>20.3</ele>
        <time>2016-07-06T09:03:22Z</time>
      </trkpt>
      <trkpt lat="48.64728" lon="-2.4631">
        <ele>22.8</ele>
        <time>2016-07-06T09:03:39Z</time>
      </trkpt>
      <trkpt lat="48.6472" lon="-2.46317">
        <ele>25.8</ele>
        <time>2016-07-06T09:04:42Z</time>
      </trkpt>
      <trkpt lat="48.64712" lon="-2.46325">
        <ele>31.1</ele>
        <time>2016-07-06T09:05:32Z</time>
      </trkpt>
      <trkpt lat="48.64705" lon="-2.46335">
        <ele>34.3</ele>
        <time>2016-07-06T09:05:56Z</time>
      </trkpt>
      <trkpt lat="48.64697" lon="-2.46345">
        <ele>38.3</ele>
        <time>2016-07-06T09:06:33Z</time>
      </trkpt>
      <trkpt lat="48.64689" lon="-2.46352">
        <ele>41</ele>
        <time>2016-07-06T09:06:44Z</time>
      </trkpt>
      <trkpt lat="48.64684" lon="-2.46365">
        <ele>42.5</ele>
        <time>2016-07-06T09:06:59Z</time>
      </trkpt>
      <trkpt lat="48.6469" lon="-2.46375">
        <ele>44.5</ele>
        <time>2016-07-06T09:15:46Z</time>
      </trkpt>
      <trkpt lat="48.64697" lon="-2.46384">
        <ele>42.5</ele>
        <time>2016-07-06T09:16:02Z</time>
      </trkpt>
      <trkpt lat="48.64706" lon="-2.46384">
        <ele>41.3</ele>
        <time>2016-07-06T09:16:13Z</time>
      </trkpt>
      <trkpt lat="48.64715" lon="-2.46387">
        <ele>40.9</ele>
        <time>2016-07-06T09:16:23Z</time>
      </trkpt>
      <trkpt lat="48.64724" lon="-2.46392">
        <ele>43.3</ele>
        <time>2016-07-06T09:16:42Z</time>
      </trkpt>
      <trkpt lat="48.64733" lon="-2.46398">
        <ele>43.2</ele>
        <time>2016-07-06T09:16:52Z</time>
      </trkpt>
      <trkpt lat="48.64741" lon="-2.46403">
        <ele>42.6</ele>
        <time>2016-07-06T09:17:00Z</time>
      </trkpt>
      <trkpt lat="48.6475" lon="-2.46409">
        <ele>42.3</ele>
        <time>2016-07-06T09:17:17Z</time>
      </trkpt>
      <trkpt lat="48.6476" lon="-2.46413">
        <ele>42.7</ele>
        <time>2016-07-06T09:18:01Z</time>
      </trkpt>
      <trkpt lat="48.64769" lon="-2.46416">
        <ele>42</ele>
        <time>2016-07-06T09:18:10Z</time>
      </trkpt>
      <trkpt lat="48.64777" lon="-2.46424">
        <ele>41.8</ele>
        <time>2016-07-06T09:18:20Z</time>
      </trkpt>
      <trkpt lat="48.64787" lon="-2.46428">
        <ele>40.3</ele>
        <time>2016-07-06T09:18:30Z</time>
      </trkpt>
      <trkpt lat="48.64794" lon="-2.46436">
        <ele>39.9</ele>
        <time>2016-07-06T09:18:39Z</time>
      </trkpt>
      <trkpt lat="48.64802" lon="-2.46445">
        <ele>39.7</ele>
        <time>2016-07-06T09:18:48Z</time>
      </trkpt>
      <trkpt lat="48.64808" lon="-2.46455">
        <ele>40.1</ele>
        <time>2016-07-06T09:19:04Z</time>
      </trkpt>
      <trkpt lat="48.64814" lon="-2.46466">
        <ele>40.8</ele>
        <time>2016-07-06T09:19:12Z</time>
      </trkpt>
      <trkpt lat="48.64821" lon="-2.46476">
        <ele>39.8</ele>
        <time>2016-07-06T09:19:27Z</time>
      </trkpt>
      <trkpt lat="48.64831" lon="-2.46481">
        <ele>40</ele>
        <time>2016-07-06T09:19:37Z</time>
      </trkpt>
      <trkpt lat="48.64839" lon="-2.46489">
        <ele>40.1</ele>
        <time>2016-07-06T09:19:44Z</time>
      </trkpt>
      <trkpt lat="48.64846" lon="-2.46499">
        <ele>40.8</ele>
        <time>2016-07-06T09:19:53Z</time>
      </trkpt>
      <trkpt lat="48.64853" lon="-2.46509">
        <ele>41.8</ele>
        <time>2016-07-06T09:20:04Z</time>
      </trkpt>
      <trkpt lat="48.64862" lon="-2.46511">
        <ele>43.3</ele>
        <time>2016-07-06T09:20:16Z</time>
      </trkpt>
      <trkpt lat="48.64871" lon="-2.46515">
        <ele>43.8</ele>
        <time>2016-07-06T09:20:43Z</time>
      </trkpt>
      <trkpt lat="48.6487" lon="-2.46529">
        <ele>42.7</ele>
        <time>2016-07-06T09:21:13Z</time>
      </trkpt>
      <trkpt lat="48.64872" lon="-2.46543">
        <ele>43.4</ele>
        <time>2016-07-06T09:21:21Z</time>
      </trkpt>
      <trkpt lat="48.64872" lon="-2.46557">
        <ele>43.3</ele>
        <time>2016-07-06T09:21:29Z</time>
      </trkpt>
      <trkpt lat="48.64874" lon="-2.46571">
        <ele>43.3</ele>
        <time>2016-07-06T09:21:37Z</time>
      </trkpt>
      <trkpt lat="48.64875" lon="-2.46584">
        <ele>43.9</ele>
        <time>2016-07-06T09:21:45Z</time>
      </trkpt>
      <trkpt lat="48.64874" lon="-2.46598">
        <ele>43.3</ele>
        <time>2016-07-06T09:21:52Z</time>
      </trkpt>
      <trkpt lat="48.64875" lon="-2.46611">
        <ele>43.3</ele>
        <time>2016-07-06T09:22:01Z</time>
      </trkpt>
      <trkpt lat="48.64879" lon="-2.46624">
        <ele>43.1</ele>
        <time>2016-07-06T09:22:09Z</time>
      </trkpt>
      <trkpt lat="48.64885" lon="-2.46635">
        <ele>41.9</ele>
        <time>2016-07-06T09:22:17Z</time>
      </trkpt>
      <trkpt lat="48.64891" lon="-2.46646">
        <ele>40.2</ele>
        <time>2016-07-06T09:22:24Z</time>
      </trkpt>
      <trkpt lat="48.64897" lon="-2.46658">
        <ele>41.7</ele>
        <time>2016-07-06T09:22:32Z</time>
      </trkpt>
      <trkpt lat="48.64902" lon="-2.4667">
        <ele>41.7</ele>
        <time>2016-07-06T09:22:39Z</time>
      </trkpt>
      <trkpt lat="48.64907" lon="-2.46683">
        <ele>41.7</ele>
        <time>2016-07-06T09:22:48Z</time>
      </trkpt>
      <trkpt lat="48.64911" lon="-2.46695">
        <ele>41.2</ele>
        <time>2016-07-06T09:22:56Z</time>
      </trkpt>
      <trkpt lat="48.64914" lon="-2.46708">
        <ele>41.5</ele>
        <time>2016-07-06T09:23:03Z</time>
      </trkpt>
      <trkpt lat="48.6492" lon="-2.4672">
        <ele>41.2</ele>
        <time>2016-07-06T09:23:12Z</time>
      </trkpt>
      <trkpt lat="48.64928" lon="-2.46726">
        <ele>40.5</ele>
        <time>2016-07-06T09:23:21Z</time>
      </trkpt>
      <trkpt lat="48.64936" lon="-2.46733">
        <ele>40.5</ele>
        <time>2016-07-06T09:23:30Z</time>
      </trkpt>
      <trkpt lat="48.64942" lon="-2.46744">
        <ele>38.7</ele>
        <time>2016-07-06T09:23:41Z</time>
      </trkpt>
      <trkpt lat="48.64933" lon="-2.46742">
        <ele>40</ele>
        <time>2016-07-06T09:27:29Z</time>
      </trkpt>
      <trkpt lat="48.64924" lon="-2.46748">
        <ele>39.5</ele>
        <time>2016-07-06T09:27:38Z</time>
      </trkpt>
      <trkpt lat="48.64915" lon="-2.46754">
        <ele>40.2</ele>
        <time>2016-07-06T09:27:50Z</time>
      </trkpt>
      <trkpt lat="48.64907" lon="-2.46759">
        <ele>41.1</ele>
        <time>2016-07-06T09:28:02Z</time>
      </trkpt>
      <trkpt lat="48.64898" lon="-2.46766">
        <ele>41.8</ele>
        <time>2016-07-06T09:28:13Z</time>
      </trkpt>
      <trkpt lat="48.64888" lon="-2.46766">
        <ele>42.2</ele>
        <time>2016-07-06T09:28:44Z</time>
      </trkpt>
      <trkpt lat="48.64879" lon="-2.46766">
        <ele>43.8</ele>
        <time>2016-07-06T09:28:59Z</time>
      </trkpt>
      <trkpt lat="48.64869" lon="-2.46765">
        <ele>44.1</ele>
        <time>2016-07-06T09:29:09Z</time>
      </trkpt>
      <trkpt lat="48.64859" lon="-2.46767">
        <ele>44.6</ele>
        <time>2016-07-06T09:29:19Z</time>
      </trkpt>
      <trkpt lat="48.6485" lon="-2.46771">
        <ele>43.2</ele>
        <time>2016-07-06T09:29:27Z</time>
      </trkpt>
      <trkpt lat="48.6484" lon="-2.46775">
        <ele>44.1</ele>
        <time>2016-07-06T09:29:37Z</time>
      </trkpt>
      <trkpt lat="48.64831" lon="-2.4678">
        <ele>44.9</ele>
        <time>2016-07-06T09:29:49Z</time>
      </trkpt>
      <trkpt lat="48.64825" lon="-2.4679">
        <ele>43.4</ele>
        <time>2016-07-06T09:29:59Z</time>
      </trkpt>
      <trkpt lat="48.64823" lon="-2.46805">
        <ele>44.7</ele>
        <time>2016-07-06T09:30:08Z</time>
      </trkpt>
      <trkpt lat="48.6482" lon="-2.46818">
        <ele>45</ele>
        <time>2016-07-06T09:30:17Z</time>
      </trkpt>
      <trkpt lat="48.6482" lon="-2.46832">
        <ele>45.2</ele>
        <time>2016-07-06T09:30:27Z</time>
      </trkpt>
      <trkpt lat="48.6482" lon="-2.46847">
        <ele>44.9</ele>
        <time>2016-07-06T09:30:38Z</time>
      </trkpt>
      <trkpt lat="48.64818" lon="-2.46861">
        <ele>46</ele>
        <time>2016-07-06T09:30:52Z</time>
      </trkpt>
      <trkpt lat="48.64819" lon="-2.46875">
        <ele>45.5</ele>
        <time>2016-07-06T09:31:16Z</time>
      </trkpt>
      <trkpt lat="48.6482" lon="-2.46889">
        <ele>44.5</ele>
        <time>2016-07-06T09:31:23Z</time>
      </trkpt>
      <trkpt lat="48.64818" lon="-2.46904">
        <ele>43.9</ele>
        <time>2016-07-06T09:31:31Z</time>
      </trkpt>
      <trkpt lat="48.64816" lon="-2.46918">
        <ele>47.2</ele>
        <time>2016-07-06T09:31:38Z</time>
      </trkpt>
      <trkpt lat="48.64811" lon="-2.46929">
        <ele>46</ele>
        <time>2016-07-06T09:31:46Z</time>
      </trkpt>
      <trkpt lat="48.64803" lon="-2.46938">
        <ele>46.5</ele>
        <time>2016-07-06T09:31:55Z</time>
      </trkpt>
      <trkpt lat="48.64797" lon="-2.46949">
        <ele>45.9</ele>
        <time>2016-07-06T09:32:06Z</time>
      </trkpt>
      <trkpt lat="48.64791" lon="-2.4696">
        <ele>45.9</ele>
        <time>2016-07-06T09:32:17Z</time>
      </trkpt>
      <trkpt lat="48.64782" lon="-2.46967">
        <ele>44.6</ele>
        <time>2016-07-06T09:32:33Z</time>
      </trkpt>
      <trkpt lat="48.64774" lon="-2.46972">
        <ele>46</ele>
        <time>2016-07-06T09:32:43Z</time>
      </trkpt>
      <trkpt lat="48.64764" lon="-2.46972">
        <ele>44.8</ele>
        <time>2016-07-06T09:32:58Z</time>
      </trkpt>
      <trkpt lat="48.64755" lon="-2.46974">
        <ele>45.6</ele>
        <time>2016-07-06T09:33:05Z</time>
      </trkpt>
      <trkpt lat="48.64746" lon="-2.46979">
        <ele>43.7</ele>
        <time>2016-07-06T09:33:13Z</time>
      </trkpt>
      <trkpt lat="48.64736" lon="-2.46983">
        <ele>44</ele>
        <time>2016-07-06T09:33:22Z</time>
      </trkpt>
      <trkpt lat="48.64726" lon="-2.46989">
        <ele>42.5</ele>
        <time>2016-07-06T09:33:31Z</time>
      </trkpt>
      <trkpt lat="48.64718" lon="-2.46995">
        <ele>40.7</ele>
        <time>2016-07-06T09:33:39Z</time>
      </trkpt>
      <trkpt lat="48.6471" lon="-2.47002">
        <ele>40</ele>
        <time>2016-07-06T09:33:46Z</time>
      </trkpt>
      <trkpt lat="48.64702" lon="-2.47011">
        <ele>40.6</ele>
        <time>2016-07-06T09:33:54Z</time>
      </trkpt>
      <trkpt lat="48.64693" lon="-2.47016">
        <ele>40.9</ele>
        <time>2016-07-06T09:34:02Z</time>
      </trkpt>
      <trkpt lat="48.64684" lon="-2.4702">
        <ele>43.4</ele>
        <time>2016-07-06T09:34:11Z</time>
      </trkpt>
      <trkpt lat="48.64675" lon="-2.47026">
        <ele>43</ele>
        <time>2016-07-06T09:34:19Z</time>
      </trkpt>
      <trkpt lat="48.64666" lon="-2.4703">
        <ele>43.6</ele>
        <time>2016-07-06T09:34:28Z</time>
      </trkpt>
      <trkpt lat="48.64657" lon="-2.47036">
        <ele>45.4</ele>
        <time>2016-07-06T09:34:59Z</time>
      </trkpt>
      <trkpt lat="48.64648" lon="-2.47039">
        <ele>45.1</ele>
        <time>2016-07-06T09:35:06Z</time>
      </trkpt>
      <trkpt lat="48.64639" lon="-2.47044">
        <ele>44.7</ele>
        <time>2016-07-06T09:35:14Z</time>
      </trkpt>
      <trkpt lat="48.6463" lon="-2.47049">
        <ele>45</ele>
        <time>2016-07-06T09:35:22Z</time>
      </trkpt>
      <trkpt lat="48.64621" lon="-2.47057">
        <ele>45.8</ele>
        <time>2016-07-06T09:35:31Z</time>
      </trkpt>
      <trkpt lat="48.64613" lon="-2.47065">
        <ele>44.8</ele>
        <time>2016-07-06T09:35:39Z</time>
      </trkpt>
      <trkpt lat="48.64604" lon="-2.47074">
        <ele>42.5</ele>
        <time>2016-07-06T09:35:47Z</time>
      </trkpt>
      <trkpt lat="48.64598" lon="-2.47085">
        <ele>43.6</ele>
        <time>2016-07-06T09:35:56Z</time>
      </trkpt>
      <trkpt lat="48.64593" lon="-2.47097">
        <ele>45.7</ele>
        <time>2016-07-06T09:36:04Z</time>
      </trkpt>
      <trkpt lat="48.64586" lon="-2.47108">
        <ele>45</ele>
        <time>2016-07-06T09:36:12Z</time>
      </trkpt>
      <trkpt lat="48.6458" lon="-2.4712">
        <ele>43.7</ele>
        <time>2016-07-06T09:36:20Z</time>
      </trkpt>
      <trkpt lat="48.64574" lon="-2.4713">
        <ele>45.5</ele>
        <time>2016-07-06T09:36:28Z</time>
      </trkpt>
      <trkpt lat="48.64568" lon="-2.47142">
        <ele>44.2</ele>
        <time>2016-07-06T09:36:39Z</time>
      </trkpt>
      <trkpt lat="48.64563" lon="-2.47155">
        <ele>43.8</ele>
        <time>2016-07-06T09:36:47Z</time>
      </trkpt>
      <trkpt lat="48.64558" lon="-2.47166">
        <ele>43.9</ele>
        <time>2016-07-06T09:37:19Z</time>
      </trkpt>
      <trkpt lat="48.6455" lon="-2.47173">
        <ele>43.8</ele>
        <time>2016-07-06T09:37:26Z</time>
      </trkpt>
      <trkpt lat="48.64544" lon="-2.47185">
        <ele>44.1</ele>
        <time>2016-07-06T09:37:34Z</time>
      </trkpt>
      <trkpt lat="48.64535" lon="-2.47192">
        <ele>44.6</ele>
        <time>2016-07-06T09:37:42Z</time>
      </trkpt>
      <trkpt lat="48.64525" lon="-2.47187">
        <ele>47</ele>
        <time>2016-07-06T09:37:59Z</time>
      </trkpt>
      <trkpt lat="48.64516" lon="-2.47182">
        <ele>45.9</ele>
        <time>2016-07-06T09:38:06Z</time>
      </trkpt>
      <trkpt lat="48.64507" lon="-2.47179">
        <ele>47.1</ele>
        <time>2016-07-06T09:38:13Z</time>
      </trkpt>
      <trkpt lat="48.64498" lon="-2.47179">
        <ele>46.2</ele>
        <time>2016-07-06T09:38:21Z</time>
      </trkpt>
      <trkpt lat="48.6449" lon="-2.47187">
        <ele>45.5</ele>
        <time>2016-07-06T09:38:31Z</time>
      </trkpt>
      <trkpt lat="48.64483" lon="-2.47198">
        <ele>45.6</ele>
        <time>2016-07-06T09:38:39Z</time>
      </trkpt>
      <trkpt lat="48.64477" lon="-2.47208">
        <ele>45.5</ele>
        <time>2016-07-06T09:38:47Z</time>
      </trkpt>
      <trkpt lat="48.6447" lon="-2.47218">
        <ele>46.9</ele>
        <time>2016-07-06T09:38:54Z</time>
      </trkpt>
      <trkpt lat="48.64464" lon="-2.47229">
        <ele>47.8</ele>
        <time>2016-07-06T09:39:03Z</time>
      </trkpt>
      <trkpt lat="48.64458" lon="-2.47241">
        <ele>46.9</ele>
        <time>2016-07-06T09:39:11Z</time>
      </trkpt>
      <trkpt lat="48.64454" lon="-2.47254">
        <ele>45.1</ele>
        <time>2016-07-06T09:39:27Z</time>
      </trkpt>
      <trkpt lat="48.64458" lon="-2.47267">
        <ele>43.2</ele>
        <time>2016-07-06T09:39:47Z</time>
      </trkpt>
      <trkpt lat="48.64461" lon="-2.4728">
        <ele>39.2</ele>
        <time>2016-07-06T09:40:10Z</time>
      </trkpt>
      <trkpt lat="48.64462" lon="-2.47294">
        <ele>36.2</ele>
        <time>2016-07-06T09:40:28Z</time>
      </trkpt>
      <trkpt lat="48.64466" lon="-2.47306">
        <ele>32.2</ele>
        <time>2016-07-06T09:40:54Z</time>
      </trkpt>
      <trkpt lat="48.64469" lon="-2.47321">
        <ele>28.7</ele>
        <time>2016-07-06T09:41:13Z</time>
      </trkpt>
      <trkpt lat="48.64474" lon="-2.47332">
        <ele>26.9</ele>
        <time>2016-07-06T09:41:33Z</time>
      </trkpt>
      <trkpt lat="48.64479" lon="-2.47344">
        <ele>24.3</ele>
        <time>2016-07-06T09:41:50Z</time>
      </trkpt>
      <trkpt lat="48.64486" lon="-2.47354">
        <ele>21.9</ele>
        <time>2016-07-06T09:42:09Z</time>
      </trkpt>
      <trkpt lat="48.64493" lon="-2.47363">
        <ele>18.8</ele>
        <time>2016-07-06T09:42:23Z</time>
      </trkpt>
      <trkpt lat="48.645" lon="-2.47372">
        <ele>17.3</ele>
        <time>2016-07-06T09:42:40Z</time>
      </trkpt>
      <trkpt lat="48.64505" lon="-2.47385">
        <ele>17</ele>
        <time>2016-07-06T09:42:53Z</time>
      </trkpt>
      <trkpt lat="48.64509" lon="-2.47397">
        <ele>13.6</ele>
        <time>2016-07-06T09:43:10Z</time>
      </trkpt>
      <trkpt lat="48.64507" lon="-2.47411">
        <ele>13.1</ele>
        <time>2016-07-06T09:43:39Z</time>
      </trkpt>
      <trkpt lat="48.645" lon="-2.47421">
        <ele>13.3</ele>
        <time>2016-07-06T09:43:48Z</time>
      </trkpt>
      <trkpt lat="48.64494" lon="-2.47431">
        <ele>14.3</ele>
        <time>2016-07-06T09:43:59Z</time>
      </trkpt>
      <trkpt lat="48.64489" lon="-2.47443">
        <ele>14.9</ele>
        <time>2016-07-06T09:44:08Z</time>
      </trkpt>
      <trkpt lat="48.64485" lon="-2.47457">
        <ele>15.6</ele>
        <time>2016-07-06T09:44:18Z</time>
      </trkpt>
      <trkpt lat="48.64482" lon="-2.4747">
        <ele>14.7</ele>
        <time>2016-07-06T09:44:32Z</time>
      </trkpt>
      <trkpt lat="48.64477" lon="-2.47483">
        <ele>14.2</ele>
        <time>2016-07-06T09:44:41Z</time>
      </trkpt>
      <trkpt lat="48.64469" lon="-2.47491">
        <ele>13.3</ele>
        <time>2016-07-06T09:44:49Z</time>
      </trkpt>
      <trkpt lat="48.64462" lon="-2.475">
        <ele>13.5</ele>
        <time>2016-07-06T09:44:57Z</time>
      </trkpt>
      <trkpt lat="48.64458" lon="-2.47514">
        <ele>14.6</ele>
        <time>2016-07-06T09:45:08Z</time>
      </trkpt>
      <trkpt lat="48.64454" lon="-2.47526">
        <ele>14.1</ele>
        <time>2016-07-06T09:45:28Z</time>
      </trkpt>
      <trkpt lat="48.64447" lon="-2.47535">
        <ele>12.5</ele>
        <time>2016-07-06T09:45:41Z</time>
      </trkpt>
      <trkpt lat="48.64438" lon="-2.4754">
        <ele>12.7</ele>
        <time>2016-07-06T09:45:53Z</time>
      </trkpt>
      <trkpt lat="48.64434" lon="-2.47554">
        <ele>15.6</ele>
        <time>2016-07-06T09:46:12Z</time>
      </trkpt>
      <trkpt lat="48.64428" lon="-2.47565">
        <ele>17.2</ele>
        <time>2016-07-06T09:46:22Z</time>
      </trkpt>
      <trkpt lat="48.64421" lon="-2.47573">
        <ele>17.4</ele>
        <time>2016-07-06T09:46:41Z</time>
      </trkpt>
      <trkpt lat="48.64412" lon="-2.47569">
        <ele>18.5</ele>
        <time>2016-07-06T09:47:09Z</time>
      </trkpt>
      <trkpt lat="48.64405" lon="-2.47559">
        <ele>19.5</ele>
        <time>2016-07-06T09:47:18Z</time>
      </trkpt>
      <trkpt lat="48.64398" lon="-2.4755">
        <ele>19.6</ele>
        <time>2016-07-06T09:47:26Z</time>
      </trkpt>
      <trkpt lat="48.6439" lon="-2.47543">
        <ele>21</ele>
        <time>2016-07-06T09:47:35Z</time>
      </trkpt>
      <trkpt lat="48.6438" lon="-2.47538">
        <ele>21.7</ele>
        <time>2016-07-06T09:47:44Z</time>
      </trkpt>
      <trkpt lat="48.64371" lon="-2.47532">
        <ele>22.9</ele>
        <time>2016-07-06T09:47:53Z</time>
      </trkpt>
      <trkpt lat="48.64362" lon="-2.47529">
        <ele>24.2</ele>
        <time>2016-07-06T09:48:03Z</time>
      </trkpt>
      <trkpt lat="48.64352" lon="-2.47529">
        <ele>26.2</ele>
        <time>2016-07-06T09:48:13Z</time>
      </trkpt>
      <trkpt lat="48.64343" lon="-2.47529">
        <ele>26.8</ele>
        <time>2016-07-06T09:48:22Z</time>
      </trkpt>
      <trkpt lat="48.64334" lon="-2.4753">
        <ele>27.9</ele>
        <time>2016-07-06T09:48:52Z</time>
      </trkpt>
      <trkpt lat="48.64324" lon="-2.47535">
        <ele>28.5</ele>
        <time>2016-07-06T09:49:01Z</time>
      </trkpt>
      <trkpt lat="48.64314" lon="-2.47539">
        <ele>30.4</ele>
        <time>2016-07-06T09:49:11Z</time>
      </trkpt>
      <trkpt lat="48.64306" lon="-2.47546">
        <ele>32.1</ele>
        <time>2016-07-06T09:49:19Z</time>
      </trkpt>
      <trkpt lat="48.64298" lon="-2.47553">
        <ele>32.4</ele>
        <time>2016-07-06T09:49:28Z</time>
      </trkpt>
      <trkpt lat="48.64291" lon="-2.4756">
        <ele>33.1</ele>
        <time>2016-07-06T09:49:39Z</time>
      </trkpt>
      <trkpt lat="48.64283" lon="-2.47569">
        <ele>34.8</ele>
        <time>2016-07-06T09:49:57Z</time>
      </trkpt>
      <trkpt lat="48.64277" lon="-2.47581">
        <ele>34.9</ele>
        <time>2016-07-06T09:50:06Z</time>
      </trkpt>
      <trkpt lat="48.6427" lon="-2.4759">
        <ele>35.7</ele>
        <time>2016-07-06T09:50:14Z</time>
      </trkpt>
      <trkpt lat="48.6427" lon="-2.47604">
        <ele>38.1</ele>
        <time>2016-07-06T09:51:01Z</time>
      </trkpt>
      <trkpt lat="48.64276" lon="-2.47616">
        <ele>39.1</ele>
        <time>2016-07-06T09:51:15Z</time>
      </trkpt>
      <trkpt lat="48.64283" lon="-2.47625">
        <ele>42.2</ele>
        <time>2016-07-06T09:51:33Z</time>
      </trkpt>
      <trkpt lat="48.64288" lon="-2.47638">
        <ele>48</ele>
        <time>2016-07-06T09:52:13Z</time>
      </trkpt>
      <trkpt lat="48.64293" lon="-2.47649">
        <ele>48</ele>
        <time>2016-07-06T09:52:25Z</time>
      </trkpt>
      <trkpt lat="48.64302" lon="-2.47645">
        <ele>49.8</ele>
        <time>2016-07-06T09:55:24Z</time>
      </trkpt>
      <trkpt lat="48.64311" lon="-2.47638">
        <ele>50.1</ele>
        <time>2016-07-06T09:55:36Z</time>
      </trkpt>
      <trkpt lat="48.64311" lon="-2.47624">
        <ele>51.6</ele>
        <time>2016-07-06T09:56:17Z</time>
      </trkpt>
      <trkpt lat="48.64312" lon="-2.4761">
        <ele>51.3</ele>
        <time>2016-07-06T09:56:30Z</time>
      </trkpt>
      <trkpt lat="48.64317" lon="-2.47598">
        <ele>50.2</ele>
        <time>2016-07-06T09:56:47Z</time>
      </trkpt>
      <trkpt lat="48.64325" lon="-2.47592">
        <ele>48.7</ele>
        <time>2016-07-06T09:56:56Z</time>
      </trkpt>
      <trkpt lat="48.64334" lon="-2.47597">
        <ele>48.9</ele>
        <time>2016-07-06T09:57:06Z</time>
      </trkpt>
      <trkpt lat="48.6434" lon="-2.47607">
        <ele>50.4</ele>
        <time>2016-07-06T09:57:17Z</time>
      </trkpt>
      <trkpt lat="48.64347" lon="-2.47616">
        <ele>50.9</ele>
        <time>2016-07-06T09:57:27Z</time>
      </trkpt>
      <trkpt lat="48.64347" lon="-2.4763">
        <ele>52</ele>
        <time>2016-07-06T09:57:36Z</time>
      </trkpt>
      <trkpt lat="48.64346" lon="-2.47645">
        <ele>52.1</ele>
        <time>2016-07-06T09:57:45Z</time>
      </trkpt>
      <trkpt lat="48.64344" lon="-2.47659">
        <ele>51.6</ele>
        <time>2016-07-06T09:57:57Z</time>
      </trkpt>
      <trkpt lat="48.64346" lon="-2.47673">
        <ele>52.7</ele>
        <time>2016-07-06T09:58:07Z</time>
      </trkpt>
      <trkpt lat="48.64347" lon="-2.47687">
        <ele>52.7</ele>
        <time>2016-07-06T09:58:20Z</time>
      </trkpt>
      <trkpt lat="48.64349" lon="-2.47701">
        <ele>53.1</ele>
        <time>2016-07-06T09:58:31Z</time>
      </trkpt>
      <trkpt lat="48.6435" lon="-2.47716">
        <ele>52.2</ele>
        <time>2016-07-06T09:58:39Z</time>
      </trkpt>
      <trkpt lat="48.64351" lon="-2.47731">
        <ele>53.3</ele>
        <time>2016-07-06T09:58:47Z</time>
      </trkpt>
      <trkpt lat="48.64355" lon="-2.47743">
        <ele>52.9</ele>
        <time>2016-07-06T09:58:55Z</time>
      </trkpt>
      <trkpt lat="48.64361" lon="-2.47754">
        <ele>52.1</ele>
        <time>2016-07-06T09:59:04Z</time>
      </trkpt>
      <trkpt lat="48.64366" lon="-2.47766">
        <ele>52.1</ele>
        <time>2016-07-06T09:59:13Z</time>
      </trkpt>
      <trkpt lat="48.64371" lon="-2.47778">
        <ele>52.5</ele>
        <time>2016-07-06T09:59:33Z</time>
      </trkpt>
      <trkpt lat="48.64373" lon="-2.47793">
        <ele>53.6</ele>
        <time>2016-07-06T09:59:42Z</time>
      </trkpt>
      <trkpt lat="48.64374" lon="-2.47807">
        <ele>53.4</ele>
        <time>2016-07-06T09:59:55Z</time>
      </trkpt>
      <trkpt lat="48.64378" lon="-2.4782">
        <ele>53.4</ele>
        <time>2016-07-06T10:00:03Z</time>
      </trkpt>
      <trkpt lat="48.6438" lon="-2.47834">
        <ele>51.8</ele>
        <time>2016-07-06T10:00:14Z</time>
      </trkpt>
      <trkpt lat="48.64378" lon="-2.47849">
        <ele>51.4</ele>
        <time>2016-07-06T10:00:22Z</time>
      </trkpt>
      <trkpt lat="48.64379" lon="-2.47863">
        <ele>52</ele>
        <time>2016-07-06T10:00:32Z</time>
      </trkpt>
      <trkpt lat="48.64379" lon="-2.47877">
        <ele>51.9</ele>
        <time>2016-07-06T10:00:41Z</time>
      </trkpt>
      <trkpt lat="48.64379" lon="-2.47891">
        <ele>51.7</ele>
        <time>2016-07-06T10:00:54Z</time>
      </trkpt>
      <trkpt lat="48.64379" lon="-2.47906">
        <ele>53.9</ele>
        <time>2016-07-06T10:01:17Z</time>
      </trkpt>
      <trkpt lat="48.64381" lon="-2.4792">
        <ele>52.5</ele>
        <time>2016-07-06T10:01:25Z</time>
      </trkpt>
      <trkpt lat="48.64383" lon="-2.47934">
        <ele>53.5</ele>
        <time>2016-07-06T10:01:36Z</time>
      </trkpt>
      <trkpt lat="48.64381" lon="-2.47948">
        <ele>54.1</ele>
        <time>2016-07-06T10:02:08Z</time>
      </trkpt>
      <trkpt lat="48.64378" lon="-2.47962">
        <ele>51.4</ele>
        <time>2016-07-06T10:02:34Z</time>
      </trkpt>
      <trkpt lat="48.64375" lon="-2.47975">
        <ele>49.7</ele>
        <time>2016-07-06T10:02:47Z</time>
      </trkpt>
      <trkpt lat="48.64369" lon="-2.47988">
        <ele>48.7</ele>
        <time>2016-07-06T10:02:58Z</time>
      </trkpt>
      <trkpt lat="48.64367" lon="-2.48002">
        <ele>47.9</ele>
        <time>2016-07-06T10:03:13Z</time>
      </trkpt>
      <trkpt lat="48.64365" lon="-2.48016">
        <ele>47.7</ele>
        <time>2016-07-06T10:03:25Z</time>
      </trkpt>
      <trkpt lat="48.64363" lon="-2.48029">
        <ele>47.7</ele>
        <time>2016-07-06T10:03:33Z</time>
      </trkpt>
      <trkpt lat="48.64361" lon="-2.48043">
        <ele>47.3</ele>
        <time>2016-07-06T10:03:41Z</time>
      </trkpt>
      <trkpt lat="48.64362" lon="-2.48058">
        <ele>46.9</ele>
        <time>2016-07-06T10:03:51Z</time>
      </trkpt>
      <trkpt lat="48.64365" lon="-2.48071">
        <ele>46.3</ele>
        <time>2016-07-06T10:04:04Z</time>
      </trkpt>
      <trkpt lat="48.64367" lon="-2.48085">
        <ele>45.9</ele>
        <time>2016-07-06T10:04:15Z</time>
      </trkpt>
      <trkpt lat="48.64369" lon="-2.48099">
        <ele>45.2</ele>
        <time>2016-07-06T10:04:25Z</time>
      </trkpt>
      <trkpt lat="48.64371" lon="-2.48113">
        <ele>45</ele>
        <time>2016-07-06T10:04:33Z</time>
      </trkpt>
      <trkpt lat="48.64372" lon="-2.48128">
        <ele>44.6</ele>
        <time>2016-07-06T10:04:44Z</time>
      </trkpt>
      <trkpt lat="48.64369" lon="-2.48141">
        <ele>44.4</ele>
        <time>2016-07-06T10:04:53Z</time>
      </trkpt>
      <trkpt lat="48.64365" lon="-2.48154">
        <ele>42.5</ele>
        <time>2016-07-06T10:05:18Z</time>
      </trkpt>
      <trkpt lat="48.64359" lon="-2.48164">
        <ele>42.4</ele>
        <time>2016-07-06T10:05:43Z</time>
      </trkpt>
      <trkpt lat="48.6435" lon="-2.48171">
        <ele>41.2</ele>
        <time>2016-07-06T10:06:55Z</time>
      </trkpt>
      <trkpt lat="48.64347" lon="-2.48183">
        <ele>38</ele>
        <time>2016-07-06T10:07:31Z</time>
      </trkpt>
      <trkpt lat="48.6435" lon="-2.48196">
        <ele>34.7</ele>
        <time>2016-07-06T10:07:43Z</time>
      </trkpt>
      <trkpt lat="48.64353" lon="-2.4821">
        <ele>33.4</ele>
        <time>2016-07-06T10:08:09Z</time>
      </trkpt>
      <trkpt lat="48.64356" lon="-2.48224">
        <ele>35.1</ele>
        <time>2016-07-06T10:08:34Z</time>
      </trkpt>
      <trkpt lat="48.64358" lon="-2.48237">
        <ele>40.2</ele>
        <time>2016-07-06T10:08:53Z</time>
      </trkpt>
      <trkpt lat="48.64367" lon="-2.48242">
        <ele>42.1</ele>
        <time>2016-07-06T10:09:51Z</time>
      </trkpt>
      <trkpt lat="48.64376" lon="-2.48242">
        <ele>42</ele>
        <time>2016-07-06T10:09:59Z</time>
      </trkpt>
      <trkpt lat="48.64382" lon="-2.48252">
        <ele>42.6</ele>
        <time>2016-07-06T10:10:10Z</time>
      </trkpt>
      <trkpt lat="48.64392" lon="-2.48255">
        <ele>44.6</ele>
        <time>2016-07-06T10:10:24Z</time>
      </trkpt>
      <trkpt lat="48.64402" lon="-2.48254">
        <ele>44.8</ele>
        <time>2016-07-06T10:10:35Z</time>
      </trkpt>
      <trkpt lat="48.64412" lon="-2.48254">
        <ele>44.7</ele>
        <time>2016-07-06T10:10:46Z</time>
      </trkpt>
      <trkpt lat="48.64418" lon="-2.48265">
        <ele>44.1</ele>
        <time>2016-07-06T10:11:04Z</time>
      </trkpt>
      <trkpt lat="48.64422" lon="-2.48277">
        <ele>44.8</ele>
        <time>2016-07-06T10:11:17Z</time>
      </trkpt>
      <trkpt lat="48.64424" lon="-2.48293">
        <ele>44.8</ele>
        <time>2016-07-06T10:11:24Z</time>
      </trkpt>
      <trkpt lat="48.64428" lon="-2.48305">
        <ele>44.8</ele>
        <time>2016-07-06T10:11:32Z</time>
      </trkpt>
      <trkpt lat="48.64434" lon="-2.48316">
        <ele>45.1</ele>
        <time>2016-07-06T10:11:40Z</time>
      </trkpt>
      <trkpt lat="48.64439" lon="-2.48327">
        <ele>45.3</ele>
        <time>2016-07-06T10:11:49Z</time>
      </trkpt>
      <trkpt lat="48.64443" lon="-2.4834">
        <ele>46.4</ele>
        <time>2016-07-06T10:12:00Z</time>
      </trkpt>
      <trkpt lat="48.64447" lon="-2.48354">
        <ele>47.2</ele>
        <time>2016-07-06T10:12:11Z</time>
      </trkpt>
      <trkpt lat="48.64451" lon="-2.48366">
        <ele>47.7</ele>
        <time>2016-07-06T10:12:23Z</time>
      </trkpt>
      <trkpt lat="48.64455" lon="-2.48379">
        <ele>49.5</ele>
        <time>2016-07-06T10:12:40Z</time>
      </trkpt>
      <trkpt lat="48.64459" lon="-2.48392">
        <ele>50.2</ele>
        <time>2016-07-06T10:12:50Z</time>
      </trkpt>
      <trkpt lat="48.6446" lon="-2.48406">
        <ele>50.6</ele>
        <time>2016-07-06T10:13:20Z</time>
      </trkpt>
      <trkpt lat="48.64462" lon="-2.48422">
        <ele>50</ele>
        <time>2016-07-06T10:13:31Z</time>
      </trkpt>
      <trkpt lat="48.64462" lon="-2.48435">
        <ele>49.6</ele>
        <time>2016-07-06T10:13:43Z</time>
      </trkpt>
      <trkpt lat="48.64464" lon="-2.4845">
        <ele>48.3</ele>
        <time>2016-07-06T10:13:58Z</time>
      </trkpt>
      <trkpt lat="48.64469" lon="-2.48463">
        <ele>47.4</ele>
        <time>2016-07-06T10:14:07Z</time>
      </trkpt>
      <trkpt lat="48.64475" lon="-2.48473">
        <ele>47</ele>
        <time>2016-07-06T10:14:15Z</time>
      </trkpt>
      <trkpt lat="48.64481" lon="-2.48484">
        <ele>46.8</ele>
        <time>2016-07-06T10:14:22Z</time>
      </trkpt>
      <trkpt lat="48.64486" lon="-2.48496">
        <ele>47.5</ele>
        <time>2016-07-06T10:14:33Z</time>
      </trkpt>
      <trkpt lat="48.64491" lon="-2.48508">
        <ele>47.6</ele>
        <time>2016-07-06T10:14:44Z</time>
      </trkpt>
      <trkpt lat="48.64493" lon="-2.48522">
        <ele>47</ele>
        <time>2016-07-06T10:14:55Z</time>
      </trkpt>
      <trkpt lat="48.6449" lon="-2.48537">
        <ele>50.2</ele>
        <time>2016-07-06T10:15:07Z</time>
      </trkpt>
      <trkpt lat="48.64489" lon="-2.48551">
        <ele>46.8</ele>
        <time>2016-07-06T10:15:15Z</time>
      </trkpt>
      <trkpt lat="48.64488" lon="-2.48566">
        <ele>46.4</ele>
        <time>2016-07-06T10:15:26Z</time>
      </trkpt>
      <trkpt lat="48.64488" lon="-2.48581">
        <ele>46.8</ele>
        <time>2016-07-06T10:15:37Z</time>
      </trkpt>
      <trkpt lat="48.64488" lon="-2.48595">
        <ele>47.8</ele>
        <time>2016-07-06T10:15:49Z</time>
      </trkpt>
      <trkpt lat="48.64485" lon="-2.48608">
        <ele>48.4</ele>
        <time>2016-07-06T10:16:01Z</time>
      </trkpt>
      <trkpt lat="48.64481" lon="-2.48621">
        <ele>50.9</ele>
        <time>2016-07-06T10:17:55Z</time>
      </trkpt>
      <trkpt lat="48.64471" lon="-2.48621">
        <ele>48.2</ele>
        <time>2016-07-06T10:18:40Z</time>
      </trkpt>
      <trkpt lat="48.64462" lon="-2.48621">
        <ele>48.2</ele>
        <time>2016-07-06T10:18:54Z</time>
      </trkpt>
      <trkpt lat="48.64454" lon="-2.48629">
        <ele>47</ele>
        <time>2016-07-06T10:19:12Z</time>
      </trkpt>
      <trkpt lat="48.64448" lon="-2.4864">
        <ele>46.8</ele>
        <time>2016-07-06T10:19:22Z</time>
      </trkpt>
      <trkpt lat="48.64439" lon="-2.48644">
        <ele>46.7</ele>
        <time>2016-07-06T10:19:34Z</time>
      </trkpt>
      <trkpt lat="48.64429" lon="-2.48641">
        <ele>45.9</ele>
        <time>2016-07-06T10:19:55Z</time>
      </trkpt>
      <trkpt lat="48.64422" lon="-2.48633">
        <ele>45.7</ele>
        <time>2016-07-06T10:20:02Z</time>
      </trkpt>
      <trkpt lat="48.64415" lon="-2.48624">
        <ele>45.4</ele>
        <time>2016-07-06T10:20:15Z</time>
      </trkpt>
      <trkpt lat="48.64409" lon="-2.48614">
        <ele>44</ele>
        <time>2016-07-06T10:20:33Z</time>
      </trkpt>
      <trkpt lat="48.644" lon="-2.48618">
        <ele>40.1</ele>
        <time>2016-07-06T10:21:14Z</time>
      </trkpt>
      <trkpt lat="48.64391" lon="-2.48623">
        <ele>38.8</ele>
        <time>2016-07-06T10:21:30Z</time>
      </trkpt>
      <trkpt lat="48.64382" lon="-2.48621">
        <ele>37.5</ele>
        <time>2016-07-06T10:21:38Z</time>
      </trkpt>
      <trkpt lat="48.64372" lon="-2.48618">
        <ele>37.8</ele>
        <time>2016-07-06T10:21:47Z</time>
      </trkpt>
      <trkpt lat="48.64364" lon="-2.48611">
        <ele>38.9</ele>
        <time>2016-07-06T10:21:59Z</time>
      </trkpt>
      <trkpt lat="48.64357" lon="-2.48603">
        <ele>40.2</ele>
        <time>2016-07-06T10:22:24Z</time>
      </trkpt>
      <trkpt lat="48.64347" lon="-2.48601">
        <ele>41.1</ele>
        <time>2016-07-06T10:22:40Z</time>
      </trkpt>
      <trkpt lat="48.64338" lon="-2.486">
        <ele>42.7</ele>
        <time>2016-07-06T10:23:59Z</time>
      </trkpt>
      <trkpt lat="48.64329" lon="-2.48602">
        <ele>44.4</ele>
        <time>2016-07-06T10:24:22Z</time>
      </trkpt>
      <trkpt lat="48.64319" lon="-2.48602">
        <ele>44.4</ele>
        <time>2016-07-06T10:24:32Z</time>
      </trkpt>
      <trkpt lat="48.6431" lon="-2.48601">
        <ele>45</ele>
        <time>2016-07-06T10:24:41Z</time>
      </trkpt>
      <trkpt lat="48.64301" lon="-2.48598">
        <ele>44.8</ele>
        <time>2016-07-06T10:24:55Z</time>
      </trkpt>
      <trkpt lat="48.64292" lon="-2.48595">
        <ele>44.3</ele>
        <time>2016-07-06T10:25:15Z</time>
      </trkpt>
      <trkpt lat="48.64283" lon="-2.48589">
        <ele>42.8</ele>
        <time>2016-07-06T10:25:31Z</time>
      </trkpt>
      <trkpt lat="48.64274" lon="-2.48595">
        <ele>41.4</ele>
        <time>2016-07-06T10:25:49Z</time>
      </trkpt>
      <trkpt lat="48.64264" lon="-2.48596">
        <ele>40.5</ele>
        <time>2016-07-06T10:26:07Z</time>
      </trkpt>
      <trkpt lat="48.64256" lon="-2.48603">
        <ele>38.3</ele>
        <time>2016-07-06T10:26:30Z</time>
      </trkpt>
      <trkpt lat="48.64247" lon="-2.48601">
        <ele>36.6</ele>
        <time>2016-07-06T10:26:45Z</time>
      </trkpt>
      <trkpt lat="48.64238" lon="-2.48593">
        <ele>36.9</ele>
        <time>2016-07-06T10:27:00Z</time>
      </trkpt>
      <trkpt lat="48.64229" lon="-2.48591">
        <ele>37.9</ele>
        <time>2016-07-06T10:27:15Z</time>
      </trkpt>
      <trkpt lat="48.6422" lon="-2.48592">
        <ele>39.5</ele>
        <time>2016-07-06T10:27:27Z</time>
      </trkpt>
      <trkpt lat="48.64211" lon="-2.48598">
        <ele>41.3</ele>
        <time>2016-07-06T10:27:53Z</time>
      </trkpt>
      <trkpt lat="48.64213" lon="-2.48584">
        <ele>40.1</ele>
        <time>2016-07-06T10:48:24Z</time>
      </trkpt>
      <trkpt lat="48.64216" lon="-2.48571">
        <ele>41.8</ele>
        <time>2016-07-06T10:48:47Z</time>
      </trkpt>
      <trkpt lat="48.64218" lon="-2.48558">
        <ele>43.3</ele>
        <time>2016-07-06T10:49:04Z</time>
      </trkpt>
      <trkpt lat="48.6422" lon="-2.48545">
        <ele>46</ele>
        <time>2016-07-06T10:49:23Z</time>
      </trkpt>
      <trkpt lat="48.64223" lon="-2.48532">
        <ele>46.2</ele>
        <time>2016-07-06T10:50:43Z</time>
      </trkpt>
      <trkpt lat="48.64225" lon="-2.48517">
        <ele>46</ele>
        <time>2016-07-06T10:50:55Z</time>
      </trkpt>
      <trkpt lat="48.64221" lon="-2.48504">
        <ele>44.9</ele>
        <time>2016-07-06T10:51:06Z</time>
      </trkpt>
      <trkpt lat="48.64217" lon="-2.48491">
        <ele>45.6</ele>
        <time>2016-07-06T10:51:15Z</time>
      </trkpt>
      <trkpt lat="48.64213" lon="-2.48478">
        <ele>45.6</ele>
        <time>2016-07-06T10:51:28Z</time>
      </trkpt>
      <trkpt lat="48.64209" lon="-2.48464">
        <ele>45.4</ele>
        <time>2016-07-06T10:51:40Z</time>
      </trkpt>
      <trkpt lat="48.64207" lon="-2.4845">
        <ele>45.2</ele>
        <time>2016-07-06T10:51:49Z</time>
      </trkpt>
      <trkpt lat="48.64203" lon="-2.48436">
        <ele>45.1</ele>
        <time>2016-07-06T10:51:58Z</time>
      </trkpt>
      <trkpt lat="48.64204" lon="-2.48422">
        <ele>44.8</ele>
        <time>2016-07-06T10:52:08Z</time>
      </trkpt>
      <trkpt lat="48.64207" lon="-2.48408">
        <ele>45.6</ele>
        <time>2016-07-06T10:52:18Z</time>
      </trkpt>
      <trkpt lat="48.6421" lon="-2.48394">
        <ele>46.5</ele>
        <time>2016-07-06T10:52:27Z</time>
      </trkpt>
      <trkpt lat="48.64214" lon="-2.48381">
        <ele>46.5</ele>
        <time>2016-07-06T10:52:36Z</time>
      </trkpt>
      <trkpt lat="48.64208" lon="-2.48369">
        <ele>47.3</ele>
        <time>2016-07-06T10:53:01Z</time>
      </trkpt>
      <trkpt lat="48.64201" lon="-2.48359">
        <ele>47.7</ele>
        <time>2016-07-06T10:53:12Z</time>
      </trkpt>
      <trkpt lat="48.64194" lon="-2.4835">
        <ele>48.7</ele>
        <time>2016-07-06T10:53:21Z</time>
      </trkpt>
      <trkpt lat="48.64187" lon="-2.4834">
        <ele>49.7</ele>
        <time>2016-07-06T10:53:31Z</time>
      </trkpt>
      <trkpt lat="48.6418" lon="-2.48329">
        <ele>49.9</ele>
        <time>2016-07-06T10:53:40Z</time>
      </trkpt>
      <trkpt lat="48.64174" lon="-2.48319">
        <ele>49.9</ele>
        <time>2016-07-06T10:54:09Z</time>
      </trkpt>
      <trkpt lat="48.64167" lon="-2.4831">
        <ele>50.3</ele>
        <time>2016-07-06T10:54:17Z</time>
      </trkpt>
      <trkpt lat="48.64159" lon="-2.483">
        <ele>50.9</ele>
        <time>2016-07-06T10:54:44Z</time>
      </trkpt>
      <trkpt lat="48.64152" lon="-2.48291">
        <ele>49.9</ele>
        <time>2016-07-06T10:54:53Z</time>
      </trkpt>
      <trkpt lat="48.64144" lon="-2.48281">
        <ele>49.5</ele>
        <time>2016-07-06T10:55:02Z</time>
      </trkpt>
      <trkpt lat="48.64137" lon="-2.48273">
        <ele>49.5</ele>
        <time>2016-07-06T10:55:09Z</time>
      </trkpt>
      <trkpt lat="48.64129" lon="-2.48265">
        <ele>49.7</ele>
        <time>2016-07-06T10:55:18Z</time>
      </trkpt>
      <trkpt lat="48.64121" lon="-2.48259">
        <ele>50.3</ele>
        <time>2016-07-06T10:55:27Z</time>
      </trkpt>
      <trkpt lat="48.64112" lon="-2.48252">
        <ele>52</ele>
        <time>2016-07-06T10:55:35Z</time>
      </trkpt>
      <trkpt lat="48.64103" lon="-2.48247">
        <ele>52.2</ele>
        <time>2016-07-06T10:55:44Z</time>
      </trkpt>
      <trkpt lat="48.64095" lon="-2.48242">
        <ele>52.7</ele>
        <time>2016-07-06T10:55:54Z</time>
      </trkpt>
      <trkpt lat="48.64087" lon="-2.48235">
        <ele>54.3</ele>
        <time>2016-07-06T10:56:20Z</time>
      </trkpt>
      <trkpt lat="48.64078" lon="-2.48229">
        <ele>54.4</ele>
        <time>2016-07-06T10:57:37Z</time>
      </trkpt>
      <trkpt lat="48.6407" lon="-2.48223">
        <ele>54.6</ele>
        <time>2016-07-06T10:57:46Z</time>
      </trkpt>
      <trkpt lat="48.64062" lon="-2.48216">
        <ele>53.5</ele>
        <time>2016-07-06T10:57:54Z</time>
      </trkpt>
      <trkpt lat="48.64054" lon="-2.4821">
        <ele>55.7</ele>
        <time>2016-07-06T10:58:01Z</time>
      </trkpt>
      <trkpt lat="48.64046" lon="-2.48204">
        <ele>55</ele>
        <time>2016-07-06T10:58:08Z</time>
      </trkpt>
      <trkpt lat="48.64037" lon="-2.48198">
        <ele>54.1</ele>
        <time>2016-07-06T10:58:15Z</time>
      </trkpt>
      <trkpt lat="48.64028" lon="-2.48192">
        <ele>54.5</ele>
        <time>2016-07-06T10:58:23Z</time>
      </trkpt>
      <trkpt lat="48.6402" lon="-2.48185">
        <ele>56.1</ele>
        <time>2016-07-06T10:58:31Z</time>
      </trkpt>
      <trkpt lat="48.64011" lon="-2.48178">
        <ele>55.3</ele>
        <time>2016-07-06T10:58:39Z</time>
      </trkpt>
      <trkpt lat="48.64003" lon="-2.48173">
        <ele>55.7</ele>
        <time>2016-07-06T10:58:46Z</time>
      </trkpt>
      <trkpt lat="48.63995" lon="-2.48166">
        <ele>57</ele>
        <time>2016-07-06T10:58:55Z</time>
      </trkpt>
      <trkpt lat="48.63986" lon="-2.48157">
        <ele>57.2</ele>
        <time>2016-07-06T10:59:04Z</time>
      </trkpt>
      <trkpt lat="48.63978" lon="-2.48149">
        <ele>57.6</ele>
        <time>2016-07-06T10:59:11Z</time>
      </trkpt>
      <trkpt lat="48.6397" lon="-2.48138">
        <ele>58.8</ele>
        <time>2016-07-06T10:59:20Z</time>
      </trkpt>
      <trkpt lat="48.63962" lon="-2.4813">
        <ele>60.2</ele>
        <time>2016-07-06T10:59:27Z</time>
      </trkpt>
      <trkpt lat="48.63954" lon="-2.48136">
        <ele>60.8</ele>
        <time>2016-07-06T10:59:38Z</time>
      </trkpt>
      <trkpt lat="48.63945" lon="-2.48138">
        <ele>59.1</ele>
        <time>2016-07-06T11:00:19Z</time>
      </trkpt>
      <trkpt lat="48.63936" lon="-2.48137">
        <ele>57</ele>
        <time>2016-07-06T11:00:30Z</time>
      </trkpt>
      <trkpt lat="48.63926" lon="-2.48137">
        <ele>53.9</ele>
        <time>2016-07-06T11:00:57Z</time>
      </trkpt>
      <trkpt lat="48.63917" lon="-2.48139">
        <ele>52.3</ele>
        <time>2016-07-06T11:01:16Z</time>
      </trkpt>
      <trkpt lat="48.6391" lon="-2.48149">
        <ele>49.6</ele>
        <time>2016-07-06T11:01:36Z</time>
      </trkpt>
      <trkpt lat="48.63901" lon="-2.4815">
        <ele>48.7</ele>
        <time>2016-07-06T11:01:48Z</time>
      </trkpt>
      <trkpt lat="48.63891" lon="-2.48149">
        <ele>48</ele>
        <time>2016-07-06T11:01:57Z</time>
      </trkpt>
      <trkpt lat="48.63884" lon="-2.48157">
        <ele>48.5</ele>
        <time>2016-07-06T11:02:08Z</time>
      </trkpt>
      <trkpt lat="48.63875" lon="-2.48163">
        <ele>50.3</ele>
        <time>2016-07-06T11:02:34Z</time>
      </trkpt>
      <trkpt lat="48.63867" lon="-2.4817">
        <ele>49.6</ele>
        <time>2016-07-06T11:02:44Z</time>
      </trkpt>
      <trkpt lat="48.63857" lon="-2.48173">
        <ele>48.5</ele>
        <time>2016-07-06T11:03:01Z</time>
      </trkpt>
      <trkpt lat="48.63851" lon="-2.48184">
        <ele>47.7</ele>
        <time>2016-07-06T11:03:11Z</time>
      </trkpt>
      <trkpt lat="48.63855" lon="-2.48198">
        <ele>47.2</ele>
        <time>2016-07-06T11:03:38Z</time>
      </trkpt>
      <trkpt lat="48.6386" lon="-2.4821">
        <ele>46.4</ele>
        <time>2016-07-06T11:03:47Z</time>
      </trkpt>
      <trkpt lat="48.63863" lon="-2.48223">
        <ele>45.8</ele>
        <time>2016-07-06T11:03:56Z</time>
      </trkpt>
      <trkpt lat="48.63865" lon="-2.48238">
        <ele>44.6</ele>
        <time>2016-07-06T11:04:05Z</time>
      </trkpt>
      <trkpt lat="48.63868" lon="-2.48251">
        <ele>44.8</ele>
        <time>2016-07-06T11:04:23Z</time>
      </trkpt>
      <trkpt lat="48.63861" lon="-2.4826">
        <ele>43.5</ele>
        <time>2016-07-06T11:04:51Z</time>
      </trkpt>
      <trkpt lat="48.63852" lon="-2.48266">
        <ele>40.4</ele>
        <time>2016-07-06T11:05:21Z</time>
      </trkpt>
      <trkpt lat="48.63843" lon="-2.48266">
        <ele>35.3</ele>
        <time>2016-07-06T11:05:59Z</time>
      </trkpt>
      <trkpt lat="48.63838" lon="-2.48254">
        <ele>35</ele>
        <time>2016-07-06T11:06:06Z</time>
      </trkpt>
      <trkpt lat="48.63834" lon="-2.48242">
        <ele>35.6</ele>
        <time>2016-07-06T11:06:12Z</time>
      </trkpt>
      <trkpt lat="48.63831" lon="-2.48228">
        <ele>35.6</ele>
        <time>2016-07-06T11:06:20Z</time>
      </trkpt>
      <trkpt lat="48.63829" lon="-2.48214">
        <ele>36.6</ele>
        <time>2016-07-06T11:06:32Z</time>
      </trkpt>
      <trkpt lat="48.63826" lon="-2.482">
        <ele>37.4</ele>
        <time>2016-07-06T11:06:49Z</time>
      </trkpt>
      <trkpt lat="48.63823" lon="-2.48186">
        <ele>38.8</ele>
        <time>2016-07-06T11:07:11Z</time>
      </trkpt>
      <trkpt lat="48.63819" lon="-2.48173">
        <ele>38.5</ele>
        <time>2016-07-06T11:07:20Z</time>
      </trkpt>
      <trkpt lat="48.63817" lon="-2.48159">
        <ele>38.5</ele>
        <time>2016-07-06T11:07:30Z</time>
      </trkpt>
      <trkpt lat="48.63816" lon="-2.48146">
        <ele>39.4</ele>
        <time>2016-07-06T11:07:39Z</time>
      </trkpt>
      <trkpt lat="48.63812" lon="-2.48132">
        <ele>39.4</ele>
        <time>2016-07-06T11:07:59Z</time>
      </trkpt>
      <trkpt lat="48.63808" lon="-2.48118">
        <ele>38.2</ele>
        <time>2016-07-06T11:08:08Z</time>
      </trkpt>
      <trkpt lat="48.63807" lon="-2.48104">
        <ele>38.9</ele>
        <time>2016-07-06T11:08:24Z</time>
      </trkpt>
      <trkpt lat="48.63802" lon="-2.48092">
        <ele>40.7</ele>
        <time>2016-07-06T11:08:34Z</time>
      </trkpt>
      <trkpt lat="48.638" lon="-2.48079">
        <ele>42.4</ele>
        <time>2016-07-06T11:08:54Z</time>
      </trkpt>
      <trkpt lat="48.63798" lon="-2.48066">
        <ele>44.6</ele>
        <time>2016-07-06T11:09:24Z</time>
      </trkpt>
      <trkpt lat="48.63795" lon="-2.48053">
        <ele>44.8</ele>
        <time>2016-07-06T11:09:32Z</time>
      </trkpt>
      <trkpt lat="48.63789" lon="-2.48042">
        <ele>46.7</ele>
        <time>2016-07-06T11:09:50Z</time>
      </trkpt>
      <trkpt lat="48.63783" lon="-2.48032">
        <ele>45.8</ele>
        <time>2016-07-06T11:10:00Z</time>
      </trkpt>
      <trkpt lat="48.63775" lon="-2.48023">
        <ele>48.2</ele>
        <time>2016-07-06T11:10:07Z</time>
      </trkpt>
      <trkpt lat="48.63771" lon="-2.4801">
        <ele>49.3</ele>
        <time>2016-07-06T11:10:16Z</time>
      </trkpt>
      <trkpt lat="48.63772" lon="-2.47995">
        <ele>49.5</ele>
        <time>2016-07-06T11:10:24Z</time>
      </trkpt>
      <trkpt lat="48.63776" lon="-2.47981">
        <ele>50.6</ele>
        <time>2016-07-06T11:10:32Z</time>
      </trkpt>
      <trkpt lat="48.63772" lon="-2.47968">
        <ele>51.6</ele>
        <time>2016-07-06T11:10:51Z</time>
      </trkpt>
      <trkpt lat="48.63766" lon="-2.47956">
        <ele>51.4</ele>
        <time>2016-07-06T11:10:58Z</time>
      </trkpt>
      <trkpt lat="48.63763" lon="-2.47942">
        <ele>52.2</ele>
        <time>2016-07-06T11:11:10Z</time>
      </trkpt>
      <trkpt lat="48.63759" lon="-2.4793">
        <ele>52.7</ele>
        <time>2016-07-06T11:11:22Z</time>
      </trkpt>
      <trkpt lat="48.6376" lon="-2.47916">
        <ele>52.5</ele>
        <time>2016-07-06T11:11:45Z</time>
      </trkpt>
      <trkpt lat="48.6376" lon="-2.47902">
        <ele>51.1</ele>
        <time>2016-07-06T11:11:52Z</time>
      </trkpt>
      <trkpt lat="48.63758" lon="-2.47889">
        <ele>51.5</ele>
        <time>2016-07-06T11:12:02Z</time>
      </trkpt>
      <trkpt lat="48.63755" lon="-2.47874">
        <ele>50.2</ele>
        <time>2016-07-06T11:12:12Z</time>
      </trkpt>
      <trkpt lat="48.63751" lon="-2.47861">
        <ele>50.6</ele>
        <time>2016-07-06T11:12:19Z</time>
      </trkpt>
      <trkpt lat="48.6375" lon="-2.47847">
        <ele>51.7</ele>
        <time>2016-07-06T11:12:44Z</time>
      </trkpt>
      <trkpt lat="48.63748" lon="-2.47831">
        <ele>50.6</ele>
        <time>2016-07-06T11:12:54Z</time>
      </trkpt>
      <trkpt lat="48.63754" lon="-2.47818">
        <ele>52.2</ele>
        <time>2016-07-06T11:13:02Z</time>
      </trkpt>
      <trkpt lat="48.63756" lon="-2.47804">
        <ele>49.8</ele>
        <time>2016-07-06T11:13:09Z</time>
      </trkpt>
      <trkpt lat="48.63756" lon="-2.47789">
        <ele>47.4</ele>
        <time>2016-07-06T11:13:18Z</time>
      </trkpt>
      <trkpt lat="48.63755" lon="-2.47775">
        <ele>45.7</ele>
        <time>2016-07-06T11:13:27Z</time>
      </trkpt>
      <trkpt lat="48.63754" lon="-2.47761">
        <ele>45</ele>
        <time>2016-07-06T11:13:35Z</time>
      </trkpt>
      <trkpt lat="48.63749" lon="-2.47749">
        <ele>44.5</ele>
        <time>2016-07-06T11:13:44Z</time>
      </trkpt>
      <trkpt lat="48.63745" lon="-2.47735">
        <ele>42.8</ele>
        <time>2016-07-06T11:13:54Z</time>
      </trkpt>
      <trkpt lat="48.63741" lon="-2.47722">
        <ele>42.6</ele>
        <time>2016-07-06T11:14:46Z</time>
      </trkpt>
      <trkpt lat="48.63736" lon="-2.4771">
        <ele>42.5</ele>
        <time>2016-07-06T11:14:55Z</time>
      </trkpt>
      <trkpt lat="48.63732" lon="-2.47695">
        <ele>42.4</ele>
        <time>2016-07-06T11:15:02Z</time>
      </trkpt>
      <trkpt lat="48.63735" lon="-2.47682">
        <ele>42.2</ele>
        <time>2016-07-06T11:15:14Z</time>
      </trkpt>
      <trkpt lat="48.63739" lon="-2.47669">
        <ele>41.2</ele>
        <time>2016-07-06T11:15:22Z</time>
      </trkpt>
      <trkpt lat="48.63743" lon="-2.47657">
        <ele>41.8</ele>
        <time>2016-07-06T11:15:34Z</time>
      </trkpt>
      <trkpt lat="48.63753" lon="-2.47655">
        <ele>43.3</ele>
        <time>2016-07-06T11:15:43Z</time>
      </trkpt>
      <trkpt lat="48.63746" lon="-2.47646">
        <ele>42.8</ele>
        <time>2016-07-06T11:16:12Z</time>
      </trkpt>
      <trkpt lat="48.63741" lon="-2.47633">
        <ele>40.1</ele>
        <time>2016-07-06T11:16:20Z</time>
      </trkpt>
      <trkpt lat="48.63734" lon="-2.47621">
        <ele>40.1</ele>
        <time>2016-07-06T11:16:28Z</time>
      </trkpt>
      <trkpt lat="48.63731" lon="-2.47607">
        <ele>40.8</ele>
        <time>2016-07-06T11:16:37Z</time>
      </trkpt>
      <trkpt lat="48.63726" lon="-2.47594">
        <ele>41.7</ele>
        <time>2016-07-06T11:16:46Z</time>
      </trkpt>
      <trkpt lat="48.63721" lon="-2.47582">
        <ele>42</ele>
        <time>2016-07-06T11:16:54Z</time>
      </trkpt>
      <trkpt lat="48.63721" lon="-2.47568">
        <ele>42.8</ele>
        <time>2016-07-06T11:17:02Z</time>
      </trkpt>
      <trkpt lat="48.6372" lon="-2.47553">
        <ele>43.3</ele>
        <time>2016-07-06T11:17:21Z</time>
      </trkpt>
      <trkpt lat="48.63717" lon="-2.47538">
        <ele>41.9</ele>
        <time>2016-07-06T11:17:28Z</time>
      </trkpt>
      <trkpt lat="48.63715" lon="-2.47523">
        <ele>43.2</ele>
        <time>2016-07-06T11:17:34Z</time>
      </trkpt>
      <trkpt lat="48.63713" lon="-2.47508">
        <ele>42.4</ele>
        <time>2016-07-06T11:17:40Z</time>
      </trkpt>
      <trkpt lat="48.63708" lon="-2.47496">
        <ele>41.7</ele>
        <time>2016-07-06T11:17:47Z</time>
      </trkpt>
      <trkpt lat="48.63704" lon="-2.47484">
        <ele>41.6</ele>
        <time>2016-07-06T11:17:55Z</time>
      </trkpt>
      <trkpt lat="48.63703" lon="-2.47467">
        <ele>40.3</ele>
        <time>2016-07-06T11:18:05Z</time>
      </trkpt>
      <trkpt lat="48.63696" lon="-2.47458">
        <ele>38.9</ele>
        <time>2016-07-06T11:18:16Z</time>
      </trkpt>
      <trkpt lat="48.63689" lon="-2.47448">
        <ele>37.4</ele>
        <time>2016-07-06T11:18:30Z</time>
      </trkpt>
      <trkpt lat="48.63683" lon="-2.47435">
        <ele>37.1</ele>
        <time>2016-07-06T11:18:40Z</time>
      </trkpt>
      <trkpt lat="48.63678" lon="-2.47424">
        <ele>36.5</ele>
        <time>2016-07-06T11:18:48Z</time>
      </trkpt>
      <trkpt lat="48.63673" lon="-2.47411">
        <ele>33.6</ele>
        <time>2016-07-06T11:19:03Z</time>
      </trkpt>
      <trkpt lat="48.63677" lon="-2.47398">
        <ele>32</ele>
        <time>2016-07-06T11:19:15Z</time>
      </trkpt>
      <trkpt lat="48.63669" lon="-2.47391">
        <ele>28.4</ele>
        <time>2016-07-06T11:19:46Z</time>
      </trkpt>
      <trkpt lat="48.63662" lon="-2.47401">
        <ele>18.4</ele>
        <time>2016-07-06T11:20:35Z</time>
      </trkpt>
      <trkpt lat="48.63653" lon="-2.47398">
        <ele>12.1</ele>
        <time>2016-07-06T11:21:12Z</time>
      </trkpt>
      <trkpt lat="48.63648" lon="-2.47386">
        <ele>10.5</ele>
        <time>2016-07-06T11:21:22Z</time>
      </trkpt>
      <trkpt lat="48.63646" lon="-2.47372">
        <ele>9.9</ele>
        <time>2016-07-06T11:25:57Z</time>
      </trkpt>
      <trkpt lat="48.63645" lon="-2.47357">
        <ele>9.8</ele>
        <time>2016-07-06T11:26:07Z</time>
      </trkpt>
      <trkpt lat="48.63646" lon="-2.47344">
        <ele>9</ele>
        <time>2016-07-06T11:26:15Z</time>
      </trkpt>
      <trkpt lat="48.6365" lon="-2.4733">
        <ele>9.6</ele>
        <time>2016-07-06T11:26:27Z</time>
      </trkpt>
      <trkpt lat="48.63652" lon="-2.47316">
        <ele>9.9</ele>
        <time>2016-07-06T11:26:36Z</time>
      </trkpt>
      <trkpt lat="48.63646" lon="-2.47304">
        <ele>9.3</ele>
        <time>2016-07-06T11:26:42Z</time>
      </trkpt>
      <trkpt lat="48.6364" lon="-2.47294">
        <ele>8.8</ele>
        <time>2016-07-06T11:27:35Z</time>
      </trkpt>
      <trkpt lat="48.63635" lon="-2.4728">
        <ele>8.6</ele>
        <time>2016-07-06T11:27:46Z</time>
      </trkpt>
      <trkpt lat="48.63632" lon="-2.47265">
        <ele>9.3</ele>
        <time>2016-07-06T11:27:55Z</time>
      </trkpt>
      <trkpt lat="48.63629" lon="-2.47252">
        <ele>7.4</ele>
        <time>2016-07-06T11:28:02Z</time>
      </trkpt>
      <trkpt lat="48.63622" lon="-2.47242">
        <ele>7.7</ele>
        <time>2016-07-06T11:28:14Z</time>
      </trkpt>
      <trkpt lat="48.63617" lon="-2.47229">
        <ele>7.6</ele>
        <time>2016-07-06T11:28:31Z</time>
      </trkpt>
      <trkpt lat="48.63617" lon="-2.47214">
        <ele>6.4</ele>
        <time>2016-07-06T11:28:39Z</time>
      </trkpt>
      <trkpt lat="48.63616" lon="-2.472">
        <ele>8.6</ele>
        <time>2016-07-06T11:28:47Z</time>
      </trkpt>
      <trkpt lat="48.63615" lon="-2.47185">
        <ele>9.5</ele>
        <time>2016-07-06T11:28:55Z</time>
      </trkpt>
      <trkpt lat="48.6361" lon="-2.47171">
        <ele>7.4</ele>
        <time>2016-07-06T11:29:00Z</time>
      </trkpt>
      <trkpt lat="48.63606" lon="-2.47157">
        <ele>8</ele>
        <time>2016-07-06T11:29:05Z</time>
      </trkpt>
      <trkpt lat="48.63604" lon="-2.47144">
        <ele>6.5</ele>
        <time>2016-07-06T11:29:13Z</time>
      </trkpt>
      <trkpt lat="48.63607" lon="-2.47131">
        <ele>8.1</ele>
        <time>2016-07-06T11:29:35Z</time>
      </trkpt>
      <trkpt lat="48.63607" lon="-2.47116">
        <ele>8.1</ele>
        <time>2016-07-06T11:29:46Z</time>
      </trkpt>
      <trkpt lat="48.63604" lon="-2.47103">
        <ele>7.6</ele>
        <time>2016-07-06T11:29:55Z</time>
      </trkpt>
      <trkpt lat="48.636" lon="-2.4709">
        <ele>7.6</ele>
        <time>2016-07-06T11:30:01Z</time>
      </trkpt>
      <trkpt lat="48.63598" lon="-2.47075">
        <ele>7.2</ele>
        <time>2016-07-06T11:30:09Z</time>
      </trkpt>
      <trkpt lat="48.63599" lon="-2.4706">
        <ele>7.2</ele>
        <time>2016-07-06T11:30:21Z</time>
      </trkpt>
      <trkpt lat="48.63596" lon="-2.47047">
        <ele>7.6</ele>
        <time>2016-07-06T11:30:29Z</time>
      </trkpt>
      <trkpt lat="48.63594" lon="-2.47032">
        <ele>7.2</ele>
        <time>2016-07-06T11:30:37Z</time>
      </trkpt>
      <trkpt lat="48.63595" lon="-2.47018">
        <ele>8.1</ele>
        <time>2016-07-06T11:30:46Z</time>
      </trkpt>
      <trkpt lat="48.63595" lon="-2.47003">
        <ele>7.1</ele>
        <time>2016-07-06T11:30:55Z</time>
      </trkpt>
      <trkpt lat="48.63595" lon="-2.46988">
        <ele>7.4</ele>
        <time>2016-07-06T11:31:02Z</time>
      </trkpt>
      <trkpt lat="48.63597" lon="-2.46974">
        <ele>7.6</ele>
        <time>2016-07-06T11:31:12Z</time>
      </trkpt>
      <trkpt lat="48.63598" lon="-2.4696">
        <ele>7.6</ele>
        <time>2016-07-06T11:31:19Z</time>
      </trkpt>
      <trkpt lat="48.63602" lon="-2.46946">
        <ele>7.7</ele>
        <time>2016-07-06T11:31:28Z</time>
      </trkpt>
      <trkpt lat="48.6361" lon="-2.46941">
        <ele>9.3</ele>
        <time>2016-07-06T11:31:56Z</time>
      </trkpt>
      <trkpt lat="48.63619" lon="-2.46938">
        <ele>8.6</ele>
        <time>2016-07-06T11:32:12Z</time>
      </trkpt>
      <trkpt lat="48.63627" lon="-2.4693">
        <ele>7.3</ele>
        <time>2016-07-06T11:32:20Z</time>
      </trkpt>
      <trkpt lat="48.63635" lon="-2.46923">
        <ele>6.7</ele>
        <time>2016-07-06T11:32:29Z</time>
      </trkpt>
      <trkpt lat="48.63643" lon="-2.46914">
        <ele>6.6</ele>
        <time>2016-07-06T11:32:38Z</time>
      </trkpt>
      <trkpt lat="48.6365" lon="-2.46904">
        <ele>6.9</ele>
        <time>2016-07-06T11:32:47Z</time>
      </trkpt>
      <trkpt lat="48.63656" lon="-2.46894">
        <ele>6.4</ele>
        <time>2016-07-06T11:32:56Z</time>
      </trkpt>
      <trkpt lat="48.63662" lon="-2.46883">
        <ele>5.1</ele>
        <time>2016-07-06T11:49:24Z</time>
      </trkpt>
      <trkpt lat="48.63672" lon="-2.46883">
        <ele>4.8</ele>
        <time>2016-07-06T11:49:35Z</time>
      </trkpt>
      <trkpt lat="48.63662" lon="-2.46877">
        <ele>5.5</ele>
        <time>2016-07-06T11:51:28Z</time>
      </trkpt>
      <trkpt lat="48.63655" lon="-2.46886">
        <ele>5.7</ele>
        <time>2016-07-06T11:51:37Z</time>
      </trkpt>
      <trkpt lat="48.63646" lon="-2.46889">
        <ele>4.6</ele>
        <time>2016-07-06T11:52:37Z</time>
      </trkpt>
      <trkpt lat="48.63637" lon="-2.46883">
        <ele>4.9</ele>
        <time>2016-07-06T11:52:48Z</time>
      </trkpt>
      <trkpt lat="48.63629" lon="-2.46878">
        <ele>6.1</ele>
        <time>2016-07-06T11:52:58Z</time>
      </trkpt>
      <trkpt lat="48.63622" lon="-2.46868">
        <ele>5.7</ele>
        <time>2016-07-06T11:53:08Z</time>
      </trkpt>
      <trkpt lat="48.6362" lon="-2.46853">
        <ele>6.2</ele>
        <time>2016-07-06T11:53:20Z</time>
      </trkpt>
      <trkpt lat="48.63617" lon="-2.4684">
        <ele>4.6</ele>
        <time>2016-07-06T11:53:28Z</time>
      </trkpt>
      <trkpt lat="48.63612" lon="-2.46827">
        <ele>6.2</ele>
        <time>2016-07-06T11:53:36Z</time>
      </trkpt>
      <trkpt lat="48.63603" lon="-2.46826">
        <ele>3.7</ele>
        <time>2016-07-06T11:54:01Z</time>
      </trkpt>
      <trkpt lat="48.63594" lon="-2.4683">
        <ele>3.1</ele>
        <time>2016-07-06T11:54:11Z</time>
      </trkpt>
      <trkpt lat="48.63585" lon="-2.46827">
        <ele>3.2</ele>
        <time>2016-07-06T11:54:22Z</time>
      </trkpt>
      <trkpt lat="48.63577" lon="-2.4682">
        <ele>3</ele>
        <time>2016-07-06T11:54:31Z</time>
      </trkpt>
      <trkpt lat="48.63568" lon="-2.46813">
        <ele>2.5</ele>
        <time>2016-07-06T11:54:41Z</time>
      </trkpt>
      <trkpt lat="48.6356" lon="-2.46808">
        <ele>2.4</ele>
        <time>2016-07-06T11:54:51Z</time>
      </trkpt>
      <trkpt lat="48.63552" lon="-2.46801">
        <ele>1.3</ele>
        <time>2016-07-06T11:55:01Z</time>
      </trkpt>
      <trkpt lat="48.63542" lon="-2.46799">
        <ele>2</ele>
        <time>2016-07-06T11:55:11Z</time>
      </trkpt>
      <trkpt lat="48.63533" lon="-2.46799">
        <ele>2.5</ele>
        <time>2016-07-06T11:55:21Z</time>
      </trkpt>
      <trkpt lat="48.63523" lon="-2.46801">
        <ele>2.5</ele>
        <time>2016-07-06T11:55:31Z</time>
      </trkpt>
      <trkpt lat="48.63514" lon="-2.46801">
        <ele>2.3</ele>
        <time>2016-07-06T11:55:40Z</time>
      </trkpt>
      <trkpt lat="48.63505" lon="-2.46799">
        <ele>1.5</ele>
        <time>2016-07-06T11:55:49Z</time>
      </trkpt>
      <trkpt lat="48.63495" lon="-2.46798">
        <ele>1.3</ele>
        <time>2016-07-06T11:56:01Z</time>
      </trkpt>
      <trkpt lat="48.63486" lon="-2.46795">
        <ele>2.7</ele>
        <time>2016-07-06T11:56:11Z</time>
      </trkpt>
      <trkpt lat="48.63476" lon="-2.46793">
        <ele>3</ele>
        <time>2016-07-06T11:56:20Z</time>
      </trkpt>
      <trkpt lat="48.63467" lon="-2.4679">
        <ele>2.9</ele>
        <time>2016-07-06T11:56:29Z</time>
      </trkpt>
      <trkpt lat="48.63457" lon="-2.46786">
        <ele>2.3</ele>
        <time>2016-07-06T11:56:38Z</time>
      </trkpt>
      <trkpt lat="48.63448" lon="-2.46783">
        <ele>1.2</ele>
        <time>2016-07-06T11:56:46Z</time>
      </trkpt>
      <trkpt lat="48.63439" lon="-2.4678">
        <ele>0.3</ele>
        <time>2016-07-06T11:56:54Z</time>
      </trkpt>
      <trkpt lat="48.6343" lon="-2.46776">
        <ele>1.9</ele>
        <time>2016-07-06T11:57:01Z</time>
      </trkpt>
      <trkpt lat="48.6342" lon="-2.46774">
        <ele>2.6</ele>
        <time>2016-07-06T11:57:10Z</time>
      </trkpt>
      <trkpt lat="48.63411" lon="-2.4677">
        <ele>2.2</ele>
        <time>2016-07-06T11:57:18Z</time>
      </trkpt>
      <trkpt lat="48.63401" lon="-2.46768">
        <ele>1.8</ele>
        <time>2016-07-06T11:57:26Z</time>
      </trkpt>
      <trkpt lat="48.63392" lon="-2.46767">
        <ele>1.4</ele>
        <time>2016-07-06T11:57:34Z</time>
      </trkpt>
      <trkpt lat="48.63382" lon="-2.46765">
        <ele>1.3</ele>
        <time>2016-07-06T11:57:43Z</time>
      </trkpt>
      <trkpt lat="48.63373" lon="-2.46764">
        <ele>1.2</ele>
        <time>2016-07-06T11:57:51Z</time>
      </trkpt>
      <trkpt lat="48.63363" lon="-2.46763">
        <ele>1.7</ele>
        <time>2016-07-06T11:57:59Z</time>
      </trkpt>
      <trkpt lat="48.63354" lon="-2.46763">
        <ele>2</ele>
        <time>2016-07-06T11:58:07Z</time>
      </trkpt>
      <trkpt lat="48.63344" lon="-2.46762">
        <ele>1.4</ele>
        <time>2016-07-06T11:58:15Z</time>
      </trkpt>
      <trkpt lat="48.63335" lon="-2.46761">
        <ele>0.9</ele>
        <time>2016-07-06T11:58:23Z</time>
      </trkpt>
      <trkpt lat="48.63326" lon="-2.4676">
        <ele>1.1</ele>
        <time>2016-07-06T11:58:31Z</time>
      </trkpt>
      <trkpt lat="48.63316" lon="-2.4676">
        <ele>0.9</ele>
        <time>2016-07-06T11:58:39Z</time>
      </trkpt>
      <trkpt lat="48.63307" lon="-2.4676">
        <ele>0.7</ele>
        <time>2016-07-06T11:58:47Z</time>
      </trkpt>
      <trkpt lat="48.63298" lon="-2.46758">
        <ele>1.1</ele>
        <time>2016-07-06T11:58:55Z</time>
      </trkpt>
      <trkpt lat="48.63288" lon="-2.46757">
        <ele>0.4</ele>
        <time>2016-07-06T11:59:03Z</time>
      </trkpt>
      <trkpt lat="48.63278" lon="-2.46755">
        <ele>2.2</ele>
        <time>2016-07-06T11:59:11Z</time>
      </trkpt>
      <trkpt lat="48.63269" lon="-2.46755">
        <ele>2.1</ele>
        <time>2016-07-06T11:59:19Z</time>
      </trkpt>
      <trkpt lat="48.63259" lon="-2.46755">
        <ele>2</ele>
        <time>2016-07-06T11:59:41Z</time>
      </trkpt>
      <trkpt lat="48.63249" lon="-2.46756">
        <ele>2.9</ele>
        <time>2016-07-06T11:59:49Z</time>
      </trkpt>
      <trkpt lat="48.6324" lon="-2.46757">
        <ele>0.6</ele>
        <time>2016-07-06T11:59:57Z</time>
      </trkpt>
      <trkpt lat="48.6323" lon="-2.46758">
        <ele>0.1</ele>
        <time>2016-07-06T12:00:05Z</time>
      </trkpt>
      <trkpt lat="48.63221" lon="-2.4676">
        <ele>0.6</ele>
        <time>2016-07-06T12:00:13Z</time>
      </trkpt>
      <trkpt lat="48.63211" lon="-2.46762">
        <ele>1.5</ele>
        <time>2016-07-06T12:00:21Z</time>
      </trkpt>
      <trkpt lat="48.63202" lon="-2.46762">
        <ele>2</ele>
        <time>2016-07-06T12:00:29Z</time>
      </trkpt>
      <trkpt lat="48.63193" lon="-2.46763">
        <ele>2.4</ele>
        <time>2016-07-06T12:00:37Z</time>
      </trkpt>
      <trkpt lat="48.63183" lon="-2.46764">
        <ele>0.5</ele>
        <time>2016-07-06T12:00:45Z</time>
      </trkpt>
      <trkpt lat="48.63174" lon="-2.46766">
        <ele>0.1</ele>
        <time>2016-07-06T12:00:53Z</time>
      </trkpt>
      <trkpt lat="48.63164" lon="-2.46769">
        <ele>1.5</ele>
        <time>2016-07-06T12:01:01Z</time>
      </trkpt>
      <trkpt lat="48.63155" lon="-2.46773">
        <ele>1.5</ele>
        <time>2016-07-06T12:01:08Z</time>
      </trkpt>
      <trkpt lat="48.63146" lon="-2.46777">
        <ele>2</ele>
        <time>2016-07-06T12:01:16Z</time>
      </trkpt>
      <trkpt lat="48.63136" lon="-2.4678">
        <ele>1.3</ele>
        <time>2016-07-06T12:01:24Z</time>
      </trkpt>
      <trkpt lat="48.63127" lon="-2.46783">
        <ele>2.3</ele>
        <time>2016-07-06T12:01:32Z</time>
      </trkpt>
      <trkpt lat="48.63117" lon="-2.46787">
        <ele>0.4</ele>
        <time>2016-07-06T12:01:40Z</time>
      </trkpt>
      <trkpt lat="48.63107" lon="-2.46792">
        <ele>4.3</ele>
        <time>2016-07-06T12:01:48Z</time>
      </trkpt>
      <trkpt lat="48.631" lon="-2.46801">
        <ele>2.3</ele>
        <time>2016-07-06T12:01:55Z</time>
      </trkpt>
      <trkpt lat="48.63091" lon="-2.46809">
        <ele>0.2</ele>
        <time>2016-07-06T12:02:03Z</time>
      </trkpt>
      <trkpt lat="48.63084" lon="-2.46818">
        <ele>1.6</ele>
        <time>2016-07-06T12:02:11Z</time>
      </trkpt>
      <trkpt lat="48.63076" lon="-2.46825">
        <ele>1.3</ele>
        <time>2016-07-06T12:02:19Z</time>
      </trkpt>
      <trkpt lat="48.63068" lon="-2.46832">
        <ele>2.4</ele>
        <time>2016-07-06T12:02:27Z</time>
      </trkpt>
      <trkpt lat="48.63059" lon="-2.4684">
        <ele>3</ele>
        <time>2016-07-06T12:02:36Z</time>
      </trkpt>
      <trkpt lat="48.63051" lon="-2.46848">
        <ele>2.5</ele>
        <time>2016-07-06T12:02:44Z</time>
      </trkpt>
      <trkpt lat="48.63045" lon="-2.46859">
        <ele>1.1</ele>
        <time>2016-07-06T12:02:53Z</time>
      </trkpt>
      <trkpt lat="48.63038" lon="-2.46869">
        <ele>-0.2</ele>
        <time>2016-07-06T12:03:04Z</time>
      </trkpt>
      <trkpt lat="48.63029" lon="-2.46874">
        <ele>0.7</ele>
        <time>2016-07-06T12:03:16Z</time>
      </trkpt>
      <trkpt lat="48.63022" lon="-2.46882">
        <ele>1.6</ele>
        <time>2016-07-06T12:03:25Z</time>
      </trkpt>
      <trkpt lat="48.63013" lon="-2.46886">
        <ele>1.6</ele>
        <time>2016-07-06T12:03:34Z</time>
      </trkpt>
      <trkpt lat="48.63004" lon="-2.4689">
        <ele>1.7</ele>
        <time>2016-07-06T12:03:46Z</time>
      </trkpt>
      <trkpt lat="48.62995" lon="-2.46895">
        <ele>2.5</ele>
        <time>2016-07-06T12:03:58Z</time>
      </trkpt>
      <trkpt lat="48.62986" lon="-2.46897">
        <ele>1.8</ele>
        <time>2016-07-06T12:04:09Z</time>
      </trkpt>
      <trkpt lat="48.62977" lon="-2.469">
        <ele>2.6</ele>
        <time>2016-07-06T12:04:20Z</time>
      </trkpt>
      <trkpt lat="48.62967" lon="-2.46904">
        <ele>2.8</ele>
        <time>2016-07-06T12:04:31Z</time>
      </trkpt>
      <trkpt lat="48.62959" lon="-2.46912">
        <ele>3.6</ele>
        <time>2016-07-06T12:04:39Z</time>
      </trkpt>
      <trkpt lat="48.62952" lon="-2.4692">
        <ele>4.1</ele>
        <time>2016-07-06T12:04:49Z</time>
      </trkpt>
      <trkpt lat="48.62944" lon="-2.4693">
        <ele>3.5</ele>
        <time>2016-07-06T12:04:58Z</time>
      </trkpt>
      <trkpt lat="48.62939" lon="-2.4694">
        <ele>3.1</ele>
        <time>2016-07-06T12:05:06Z</time>
      </trkpt>
      <trkpt lat="48.62933" lon="-2.46953">
        <ele>3.6</ele>
        <time>2016-07-06T12:05:15Z</time>
      </trkpt>
      <trkpt lat="48.62927" lon="-2.46966">
        <ele>3.5</ele>
        <time>2016-07-06T12:05:23Z</time>
      </trkpt>
      <trkpt lat="48.62922" lon="-2.46978">
        <ele>4.4</ele>
        <time>2016-07-06T12:05:31Z</time>
      </trkpt>
      <trkpt lat="48.62917" lon="-2.46991">
        <ele>5.1</ele>
        <time>2016-07-06T12:05:46Z</time>
      </trkpt>
      <trkpt lat="48.62913" lon="-2.47004">
        <ele>5.9</ele>
        <time>2016-07-06T12:05:54Z</time>
      </trkpt>
      <trkpt lat="48.6291" lon="-2.47018">
        <ele>3</ele>
        <time>2016-07-06T12:06:02Z</time>
      </trkpt>
      <trkpt lat="48.62907" lon="-2.47032">
        <ele>4.9</ele>
        <time>2016-07-06T12:06:10Z</time>
      </trkpt>
      <trkpt lat="48.62905" lon="-2.47046">
        <ele>2.7</ele>
        <time>2016-07-06T12:06:18Z</time>
      </trkpt>
      <trkpt lat="48.62902" lon="-2.4706">
        <ele>3.2</ele>
        <time>2016-07-06T12:06:26Z</time>
      </trkpt>
      <trkpt lat="48.62899" lon="-2.47074">
        <ele>3.7</ele>
        <time>2016-07-06T12:06:34Z</time>
      </trkpt>
      <trkpt lat="48.62897" lon="-2.47087">
        <ele>3.4</ele>
        <time>2016-07-06T12:06:45Z</time>
      </trkpt>
      <trkpt lat="48.62895" lon="-2.47102">
        <ele>3.9</ele>
        <time>2016-07-06T12:06:54Z</time>
      </trkpt>
      <trkpt lat="48.62895" lon="-2.47117">
        <ele>3</ele>
        <time>2016-07-06T12:07:03Z</time>
      </trkpt>
      <trkpt lat="48.62886" lon="-2.47116">
        <ele>4.8</ele>
        <time>2016-07-06T12:07:14Z</time>
      </trkpt>
      <trkpt lat="48.62877" lon="-2.4711">
        <ele>6.6</ele>
        <time>2016-07-06T12:07:23Z</time>
      </trkpt>
      <trkpt lat="48.62869" lon="-2.47103">
        <ele>8.3</ele>
        <time>2016-07-06T12:07:32Z</time>
      </trkpt>
      <trkpt lat="48.6286" lon="-2.47104">
        <ele>10</ele>
        <time>2016-07-06T12:08:18Z</time>
      </trkpt>
      <trkpt lat="48.62861" lon="-2.47119">
        <ele>12.5</ele>
        <time>2016-07-06T12:08:29Z</time>
      </trkpt>
      <trkpt lat="48.62867" lon="-2.4713">
        <ele>13.2</ele>
        <time>2016-07-06T12:08:38Z</time>
      </trkpt>
      <trkpt lat="48.62857" lon="-2.47128">
        <ele>16.8</ele>
        <time>2016-07-06T12:09:45Z</time>
      </trkpt>
      <trkpt lat="48.62852" lon="-2.47115">
        <ele>15.2</ele>
        <time>2016-07-06T12:09:53Z</time>
      </trkpt>
      <trkpt lat="48.62847" lon="-2.47104">
        <ele>15.4</ele>
        <time>2016-07-06T12:10:00Z</time>
      </trkpt>
      <trkpt lat="48.62841" lon="-2.47092">
        <ele>16.2</ele>
        <time>2016-07-06T12:10:08Z</time>
      </trkpt>
      <trkpt lat="48.62838" lon="-2.47078">
        <ele>18</ele>
        <time>2016-07-06T12:10:17Z</time>
      </trkpt>
      <trkpt lat="48.62832" lon="-2.47066">
        <ele>18.3</ele>
        <time>2016-07-06T12:10:29Z</time>
      </trkpt>
      <trkpt lat="48.62826" lon="-2.47056">
        <ele>20.8</ele>
        <time>2016-07-06T12:10:38Z</time>
      </trkpt>
      <trkpt lat="48.62819" lon="-2.47046">
        <ele>20.3</ele>
        <time>2016-07-06T12:10:46Z</time>
      </trkpt>
      <trkpt lat="48.62809" lon="-2.47051">
        <ele>21.4</ele>
        <time>2016-07-06T12:11:25Z</time>
      </trkpt>
      <trkpt lat="48.62804" lon="-2.47066">
        <ele>19.8</ele>
        <time>2016-07-06T12:11:32Z</time>
      </trkpt>
      <trkpt lat="48.62803" lon="-2.4708">
        <ele>20.9</ele>
        <time>2016-07-06T12:11:39Z</time>
      </trkpt>
      <trkpt lat="48.628" lon="-2.47093">
        <ele>21.2</ele>
        <time>2016-07-06T12:11:47Z</time>
      </trkpt>
      <trkpt lat="48.62799" lon="-2.47108">
        <ele>23.8</ele>
        <time>2016-07-06T12:11:56Z</time>
      </trkpt>
      <trkpt lat="48.62796" lon="-2.47122">
        <ele>22.6</ele>
        <time>2016-07-06T12:12:04Z</time>
      </trkpt>
      <trkpt lat="48.62792" lon="-2.47135">
        <ele>21.7</ele>
        <time>2016-07-06T12:12:12Z</time>
      </trkpt>
      <trkpt lat="48.62788" lon="-2.47147">
        <ele>22.4</ele>
        <time>2016-07-06T12:12:20Z</time>
      </trkpt>
      <trkpt lat="48.62786" lon="-2.47161">
        <ele>23.7</ele>
        <time>2016-07-06T12:12:27Z</time>
      </trkpt>
      <trkpt lat="48.62783" lon="-2.47176">
        <ele>25.9</ele>
        <time>2016-07-06T12:12:35Z</time>
      </trkpt>
      <trkpt lat="48.62781" lon="-2.47189">
        <ele>24.7</ele>
        <time>2016-07-06T12:12:45Z</time>
      </trkpt>
      <trkpt lat="48.62779" lon="-2.47203">
        <ele>26.9</ele>
        <time>2016-07-06T12:12:59Z</time>
      </trkpt>
      <trkpt lat="48.62775" lon="-2.47215">
        <ele>29</ele>
        <time>2016-07-06T12:13:07Z</time>
      </trkpt>
      <trkpt lat="48.62769" lon="-2.47226">
        <ele>28.5</ele>
        <time>2016-07-06T12:13:16Z</time>
      </trkpt>
      <trkpt lat="48.62763" lon="-2.47237">
        <ele>28.1</ele>
        <time>2016-07-06T12:13:25Z</time>
      </trkpt>
      <trkpt lat="48.62753" lon="-2.47241">
        <ele>28.4</ele>
        <time>2016-07-06T12:13:50Z</time>
      </trkpt>
      <trkpt lat="48.62744" lon="-2.47243">
        <ele>28.7</ele>
        <time>2016-07-06T12:13:57Z</time>
      </trkpt>
      <trkpt lat="48.62734" lon="-2.47247">
        <ele>29</ele>
        <time>2016-07-06T12:14:05Z</time>
      </trkpt>
      <trkpt lat="48.62724" lon="-2.4725">
        <ele>30.1</ele>
        <time>2016-07-06T12:14:13Z</time>
      </trkpt>
      <trkpt lat="48.62715" lon="-2.47254">
        <ele>30.3</ele>
        <time>2016-07-06T12:14:21Z</time>
      </trkpt>
      <trkpt lat="48.62705" lon="-2.47256">
        <ele>30.2</ele>
        <time>2016-07-06T12:14:29Z</time>
      </trkpt>
      <trkpt lat="48.62695" lon="-2.47259">
        <ele>30.5</ele>
        <time>2016-07-06T12:14:37Z</time>
      </trkpt>
      <trkpt lat="48.62686" lon="-2.47262">
        <ele>32</ele>
        <time>2016-07-06T12:14:45Z</time>
      </trkpt>
      <trkpt lat="48.62677" lon="-2.47268">
        <ele>33.6</ele>
        <time>2016-07-06T12:14:53Z</time>
      </trkpt>
      <trkpt lat="48.62667" lon="-2.4727">
        <ele>33.4</ele>
        <time>2016-07-06T12:15:51Z</time>
      </trkpt>
      <trkpt lat="48.62658" lon="-2.47272">
        <ele>33.9</ele>
        <time>2016-07-06T12:15:59Z</time>
      </trkpt>
      <trkpt lat="48.62648" lon="-2.4727">
        <ele>33.7</ele>
        <time>2016-07-06T12:16:07Z</time>
      </trkpt>
      <trkpt lat="48.62638" lon="-2.47269">
        <ele>35.1</ele>
        <time>2016-07-06T12:16:14Z</time>
      </trkpt>
      <trkpt lat="48.62629" lon="-2.4727">
        <ele>34.9</ele>
        <time>2016-07-06T12:16:21Z</time>
      </trkpt>
      <trkpt lat="48.62621" lon="-2.47277">
        <ele>36.3</ele>
        <time>2016-07-06T12:16:29Z</time>
      </trkpt>
      <trkpt lat="48.6263" lon="-2.47273">
        <ele>36.9</ele>
        <time>2016-07-06T12:17:15Z</time>
      </trkpt>
      <trkpt lat="48.62639" lon="-2.47275">
        <ele>37.3</ele>
        <time>2016-07-06T12:17:23Z</time>
      </trkpt>
      <trkpt lat="48.62649" lon="-2.47274">
        <ele>35.3</ele>
        <time>2016-07-06T12:17:31Z</time>
      </trkpt>
      <trkpt lat="48.62658" lon="-2.47274">
        <ele>36</ele>
        <time>2016-07-06T12:17:40Z</time>
      </trkpt>
      <trkpt lat="48.62668" lon="-2.47271">
        <ele>35.1</ele>
        <time>2016-07-06T12:17:49Z</time>
      </trkpt>
      <trkpt lat="48.62661" lon="-2.47281">
        <ele>31.1</ele>
        <time>2016-07-06T12:18:02Z</time>
      </trkpt>
      <trkpt lat="48.62652" lon="-2.47286">
        <ele>33.6</ele>
        <time>2016-07-06T12:18:10Z</time>
      </trkpt>
      <trkpt lat="48.62642" lon="-2.47287">
        <ele>29.1</ele>
        <time>2016-07-06T12:18:18Z</time>
      </trkpt>
      <trkpt lat="48.62632" lon="-2.47289">
        <ele>32.2</ele>
        <time>2016-07-06T12:18:26Z</time>
      </trkpt>
      <trkpt lat="48.62622" lon="-2.47293">
        <ele>30.9</ele>
        <time>2016-07-06T12:18:34Z</time>
      </trkpt>
      <trkpt lat="48.62613" lon="-2.47299">
        <ele>29.5</ele>
        <time>2016-07-06T12:18:42Z</time>
      </trkpt>
      <trkpt lat="48.62605" lon="-2.47305">
        <ele>29.3</ele>
        <time>2016-07-06T12:18:49Z</time>
      </trkpt>
      <trkpt lat="48.62596" lon="-2.4731">
        <ele>27.7</ele>
        <time>2016-07-06T12:18:56Z</time>
      </trkpt>
      <trkpt lat="48.62588" lon="-2.47319">
        <ele>25.5</ele>
        <time>2016-07-06T12:19:04Z</time>
      </trkpt>
      <trkpt lat="48.6258" lon="-2.47328">
        <ele>26.6</ele>
        <time>2016-07-06T12:19:11Z</time>
      </trkpt>
      <trkpt lat="48.62574" lon="-2.47338">
        <ele>27.9</ele>
        <time>2016-07-06T12:19:18Z</time>
      </trkpt>
      <trkpt lat="48.62565" lon="-2.47345">
        <ele>27</ele>
        <time>2016-07-06T12:19:26Z</time>
      </trkpt>
      <trkpt lat="48.6256" lon="-2.47358">
        <ele>24.2</ele>
        <time>2016-07-06T12:19:35Z</time>
      </trkpt>
      <trkpt lat="48.6255" lon="-2.47354">
        <ele>21.7</ele>
        <time>2016-07-06T12:19:49Z</time>
      </trkpt>
      <trkpt lat="48.62546" lon="-2.47341">
        <ele>23.1</ele>
        <time>2016-07-06T12:19:57Z</time>
      </trkpt>
      <trkpt lat="48.62546" lon="-2.47327">
        <ele>18.4</ele>
        <time>2016-07-06T12:20:04Z</time>
      </trkpt>
      <trkpt lat="48.62542" lon="-2.47339">
        <ele>20.6</ele>
        <time>2016-07-06T12:20:15Z</time>
      </trkpt>
      <trkpt lat="48.62546" lon="-2.47352">
        <ele>20.5</ele>
        <time>2016-07-06T12:20:22Z</time>
      </trkpt>
      <trkpt lat="48.6255" lon="-2.47364">
        <ele>19.4</ele>
        <time>2016-07-06T12:20:30Z</time>
      </trkpt>
      <trkpt lat="48.62554" lon="-2.47377">
        <ele>18.3</ele>
        <time>2016-07-06T12:20:38Z</time>
      </trkpt>
      <trkpt lat="48.62545" lon="-2.47373">
        <ele>17</ele>
        <time>2016-07-06T12:20:51Z</time>
      </trkpt>
      <trkpt lat="48.6254" lon="-2.47361">
        <ele>16.8</ele>
        <time>2016-07-06T12:20:58Z</time>
      </trkpt>
      <trkpt lat="48.62534" lon="-2.47349">
        <ele>15.3</ele>
        <time>2016-07-06T12:21:06Z</time>
      </trkpt>
      <trkpt lat="48.62528" lon="-2.4734">
        <ele>14</ele>
        <time>2016-07-06T12:21:14Z</time>
      </trkpt>
      <trkpt lat="48.62523" lon="-2.47327">
        <ele>12.8</ele>
        <time>2016-07-06T12:21:22Z</time>
      </trkpt>
      <trkpt lat="48.62527" lon="-2.47314">
        <ele>8.5</ele>
        <time>2016-07-06T12:21:30Z</time>
      </trkpt>
      <trkpt lat="48.62532" lon="-2.47302">
        <ele>8.1</ele>
        <time>2016-07-06T12:21:39Z</time>
      </trkpt>
      <trkpt lat="48.62522" lon="-2.47299">
        <ele>7.6</ele>
        <time>2016-07-06T12:21:52Z</time>
      </trkpt>
      <trkpt lat="48.62513" lon="-2.47299">
        <ele>6.2</ele>
        <time>2016-07-06T12:22:01Z</time>
      </trkpt>
      <trkpt lat="48.62506" lon="-2.47308">
        <ele>5.8</ele>
        <time>2016-07-06T12:22:09Z</time>
      </trkpt>
      <trkpt lat="48.62499" lon="-2.47318">
        <ele>4.8</ele>
        <time>2016-07-06T12:22:17Z</time>
      </trkpt>
      <trkpt lat="48.62492" lon="-2.47328">
        <ele>7.2</ele>
        <time>2016-07-06T12:22:25Z</time>
      </trkpt>
      <trkpt lat="48.62483" lon="-2.47336">
        <ele>5.2</ele>
        <time>2016-07-06T12:22:33Z</time>
      </trkpt>
      <trkpt lat="48.62475" lon="-2.47344">
        <ele>3.7</ele>
        <time>2016-07-06T12:22:41Z</time>
      </trkpt>
      <trkpt lat="48.62468" lon="-2.47354">
        <ele>6.2</ele>
        <time>2016-07-06T12:22:49Z</time>
      </trkpt>
      <trkpt lat="48.62463" lon="-2.47365">
        <ele>4.8</ele>
        <time>2016-07-06T12:22:57Z</time>
      </trkpt>
      <trkpt lat="48.62457" lon="-2.47377">
        <ele>5.1</ele>
        <time>2016-07-06T12:23:05Z</time>
      </trkpt>
      <trkpt lat="48.6245" lon="-2.47388">
        <ele>5.6</ele>
        <time>2016-07-06T12:23:14Z</time>
      </trkpt>
      <trkpt lat="48.62445" lon="-2.47399">
        <ele>6.1</ele>
        <time>2016-07-06T12:23:22Z</time>
      </trkpt>
      <trkpt lat="48.62439" lon="-2.4741">
        <ele>6.9</ele>
        <time>2016-07-06T12:23:30Z</time>
      </trkpt>
      <trkpt lat="48.62433" lon="-2.4742">
        <ele>4.9</ele>
        <time>2016-07-06T12:23:40Z</time>
      </trkpt>
      <trkpt lat="48.62426" lon="-2.47431">
        <ele>4.2</ele>
        <time>2016-07-06T12:23:50Z</time>
      </trkpt>
      <trkpt lat="48.62419" lon="-2.47442">
        <ele>6.3</ele>
        <time>2016-07-06T12:23:59Z</time>
      </trkpt>
      <trkpt lat="48.62412" lon="-2.47453">
        <ele>4.5</ele>
        <time>2016-07-06T12:24:07Z</time>
      </trkpt>
      <trkpt lat="48.62406" lon="-2.47464">
        <ele>7.5</ele>
        <time>2016-07-06T12:24:15Z</time>
      </trkpt>
      <trkpt lat="48.624" lon="-2.47476">
        <ele>4.9</ele>
        <time>2016-07-06T12:24:23Z</time>
      </trkpt>
      <trkpt lat="48.62393" lon="-2.47487">
        <ele>4</ele>
        <time>2016-07-06T12:24:31Z</time>
      </trkpt>
      <trkpt lat="48.62388" lon="-2.47499">
        <ele>5.4</ele>
        <time>2016-07-06T12:25:09Z</time>
      </trkpt>
      <trkpt lat="48.62382" lon="-2.47511">
        <ele>5.4</ele>
        <time>2016-07-06T12:25:30Z</time>
      </trkpt>
      <trkpt lat="48.62376" lon="-2.47522">
        <ele>6.1</ele>
        <time>2016-07-06T12:25:38Z</time>
      </trkpt>
      <trkpt lat="48.6237" lon="-2.47532">
        <ele>4.3</ele>
        <time>2016-07-06T12:25:50Z</time>
      </trkpt>
      <trkpt lat="48.62363" lon="-2.47542">
        <ele>6.3</ele>
        <time>2016-07-06T12:25:58Z</time>
      </trkpt>
      <trkpt lat="48.62356" lon="-2.47553">
        <ele>2.7</ele>
        <time>2016-07-06T12:26:06Z</time>
      </trkpt>
      <trkpt lat="48.6235" lon="-2.47564">
        <ele>4</ele>
        <time>2016-07-06T12:26:13Z</time>
      </trkpt>
      <trkpt lat="48.62343" lon="-2.47574">
        <ele>6.7</ele>
        <time>2016-07-06T12:26:20Z</time>
      </trkpt>
      <trkpt lat="48.62336" lon="-2.47585">
        <ele>5.4</ele>
        <time>2016-07-06T12:26:28Z</time>
      </trkpt>
      <trkpt lat="48.6233" lon="-2.47595">
        <ele>2.6</ele>
        <time>2016-07-06T12:26:35Z</time>
      </trkpt>
      <trkpt lat="48.62323" lon="-2.47606">
        <ele>3</ele>
        <time>2016-07-06T12:26:43Z</time>
      </trkpt>
      <trkpt lat="48.62317" lon="-2.47617">
        <ele>5</ele>
        <time>2016-07-06T12:26:50Z</time>
      </trkpt>
      <trkpt lat="48.62311" lon="-2.47629">
        <ele>7.3</ele>
        <time>2016-07-06T12:26:58Z</time>
      </trkpt>
      <trkpt lat="48.62306" lon="-2.4764">
        <ele>6.6</ele>
        <time>2016-07-06T12:27:05Z</time>
      </trkpt>
      <trkpt lat="48.623" lon="-2.47652">
        <ele>4.5</ele>
        <time>2016-07-06T12:27:12Z</time>
      </trkpt>
      <trkpt lat="48.62294" lon="-2.47663">
        <ele>2.9</ele>
        <time>2016-07-06T12:27:20Z</time>
      </trkpt>
      <trkpt lat="48.62288" lon="-2.47674">
        <ele>3.7</ele>
        <time>2016-07-06T12:27:27Z</time>
      </trkpt>
      <trkpt lat="48.62281" lon="-2.47685">
        <ele>4.9</ele>
        <time>2016-07-06T12:27:35Z</time>
      </trkpt>
      <trkpt lat="48.62274" lon="-2.47695">
        <ele>6.3</ele>
        <time>2016-07-06T12:27:42Z</time>
      </trkpt>
      <trkpt lat="48.62268" lon="-2.47706">
        <ele>4.5</ele>
        <time>2016-07-06T12:27:49Z</time>
      </trkpt>
      <trkpt lat="48.62261" lon="-2.47716">
        <ele>2</ele>
        <time>2016-07-06T12:27:56Z</time>
      </trkpt>
      <trkpt lat="48.62255" lon="-2.47727">
        <ele>3.5</ele>
        <time>2016-07-06T12:28:21Z</time>
      </trkpt>
      <trkpt lat="48.62248" lon="-2.47737">
        <ele>5.7</ele>
        <time>2016-07-06T12:28:28Z</time>
      </trkpt>
      <trkpt lat="48.62241" lon="-2.47748">
        <ele>5.3</ele>
        <time>2016-07-06T12:28:36Z</time>
      </trkpt>
      <trkpt lat="48.62235" lon="-2.47758">
        <ele>4.6</ele>
        <time>2016-07-06T12:28:43Z</time>
      </trkpt>
      <trkpt lat="48.62228" lon="-2.47768">
        <ele>4.3</ele>
        <time>2016-07-06T12:28:50Z</time>
      </trkpt>
      <trkpt lat="48.62221" lon="-2.47778">
        <ele>2.5</ele>
        <time>2016-07-06T12:28:57Z</time>
      </trkpt>
      <trkpt lat="48.62214" lon="-2.47789">
        <ele>3.1</ele>
        <time>2016-07-06T12:29:05Z</time>
      </trkpt>
      <trkpt lat="48.62207" lon="-2.47799">
        <ele>4.5</ele>
        <time>2016-07-06T12:29:12Z</time>
      </trkpt>
      <trkpt lat="48.622" lon="-2.47809">
        <ele>6.7</ele>
        <time>2016-07-06T12:29:19Z</time>
      </trkpt>
      <trkpt lat="48.62194" lon="-2.4782">
        <ele>4</ele>
        <time>2016-07-06T12:29:27Z</time>
      </trkpt>
      <trkpt lat="48.62186" lon="-2.4783">
        <ele>3.6</ele>
        <time>2016-07-06T12:29:34Z</time>
      </trkpt>
      <trkpt lat="48.62178" lon="-2.47841">
        <ele>4.9</ele>
        <time>2016-07-06T12:29:42Z</time>
      </trkpt>
      <trkpt lat="48.62172" lon="-2.47852">
        <ele>7.1</ele>
        <time>2016-07-06T12:29:49Z</time>
      </trkpt>
      <trkpt lat="48.62164" lon="-2.47862">
        <ele>8.1</ele>
        <time>2016-07-06T12:29:57Z</time>
      </trkpt>
      <trkpt lat="48.62158" lon="-2.47872">
        <ele>8</ele>
        <time>2016-07-06T12:30:04Z</time>
      </trkpt>
      <trkpt lat="48.62153" lon="-2.47884">
        <ele>3.7</ele>
        <time>2016-07-06T12:30:17Z</time>
      </trkpt>
      <trkpt lat="48.62146" lon="-2.47894">
        <ele>5.3</ele>
        <time>2016-07-06T12:30:25Z</time>
      </trkpt>
      <trkpt lat="48.62139" lon="-2.47904">
        <ele>5.5</ele>
        <time>2016-07-06T12:30:32Z</time>
      </trkpt>
      <trkpt lat="48.62133" lon="-2.47914">
        <ele>3.5</ele>
        <time>2016-07-06T12:30:39Z</time>
      </trkpt>
      <trkpt lat="48.62126" lon="-2.47924">
        <ele>3.6</ele>
        <time>2016-07-06T12:30:46Z</time>
      </trkpt>
      <trkpt lat="48.6212" lon="-2.47935">
        <ele>2.4</ele>
        <time>2016-07-06T12:30:53Z</time>
      </trkpt>
      <trkpt lat="48.62115" lon="-2.47946">
        <ele>2.3</ele>
        <time>2016-07-06T12:31:00Z</time>
      </trkpt>
      <trkpt lat="48.62109" lon="-2.47956">
        <ele>2</ele>
        <time>2016-07-06T12:31:06Z</time>
      </trkpt>
      <trkpt lat="48.62102" lon="-2.47967">
        <ele>2.9</ele>
        <time>2016-07-06T12:31:13Z</time>
      </trkpt>
      <trkpt lat="48.62095" lon="-2.47978">
        <ele>1.1</ele>
        <time>2016-07-06T12:31:20Z</time>
      </trkpt>
      <trkpt lat="48.62088" lon="-2.47988">
        <ele>3</ele>
        <time>2016-07-06T12:31:28Z</time>
      </trkpt>
      <trkpt lat="48.62083" lon="-2.47998">
        <ele>4</ele>
        <time>2016-07-06T12:31:35Z</time>
      </trkpt>
      <trkpt lat="48.62076" lon="-2.48007">
        <ele>4.7</ele>
        <time>2016-07-06T12:32:03Z</time>
      </trkpt>
      <trkpt lat="48.62071" lon="-2.48019">
        <ele>3.5</ele>
        <time>2016-07-06T12:32:24Z</time>
      </trkpt>
      <trkpt lat="48.62066" lon="-2.48031">
        <ele>3.7</ele>
        <time>2016-07-06T12:32:31Z</time>
      </trkpt>
      <trkpt lat="48.62058" lon="-2.48041">
        <ele>3.9</ele>
        <time>2016-07-06T12:32:38Z</time>
      </trkpt>
      <trkpt lat="48.62051" lon="-2.48052">
        <ele>3.4</ele>
        <time>2016-07-06T12:32:45Z</time>
      </trkpt>
      <trkpt lat="48.62045" lon="-2.48065">
        <ele>3.1</ele>
        <time>2016-07-06T12:32:53Z</time>
      </trkpt>
      <trkpt lat="48.62039" lon="-2.48075">
        <ele>3.7</ele>
        <time>2016-07-06T12:33:00Z</time>
      </trkpt>
      <trkpt lat="48.62033" lon="-2.48085">
        <ele>3.7</ele>
        <time>2016-07-06T12:33:07Z</time>
      </trkpt>
      <trkpt lat="48.62026" lon="-2.48096">
        <ele>3.7</ele>
        <time>2016-07-06T12:33:14Z</time>
      </trkpt>
      <trkpt lat="48.62019" lon="-2.48106">
        <ele>3.7</ele>
        <time>2016-07-06T12:33:21Z</time>
      </trkpt>
      <trkpt lat="48.62012" lon="-2.48116">
        <ele>3.4</ele>
        <time>2016-07-06T12:33:28Z</time>
      </trkpt>
      <trkpt lat="48.62006" lon="-2.48128">
        <ele>3.2</ele>
        <time>2016-07-06T12:33:36Z</time>
      </trkpt>
      <trkpt lat="48.62" lon="-2.48139">
        <ele>3.1</ele>
        <time>2016-07-06T12:33:43Z</time>
      </trkpt>
      <trkpt lat="48.61993" lon="-2.48149">
        <ele>2.9</ele>
        <time>2016-07-06T12:33:50Z</time>
      </trkpt>
      <trkpt lat="48.61987" lon="-2.48159">
        <ele>2.9</ele>
        <time>2016-07-06T12:33:57Z</time>
      </trkpt>
      <trkpt lat="48.6198" lon="-2.48169">
        <ele>4.4</ele>
        <time>2016-07-06T12:34:15Z</time>
      </trkpt>
      <trkpt lat="48.61974" lon="-2.4818">
        <ele>4.1</ele>
        <time>2016-07-06T12:34:22Z</time>
      </trkpt>
      <trkpt lat="48.61968" lon="-2.48191">
        <ele>3.1</ele>
        <time>2016-07-06T12:34:29Z</time>
      </trkpt>
      <trkpt lat="48.61961" lon="-2.48202">
        <ele>3.8</ele>
        <time>2016-07-06T12:34:36Z</time>
      </trkpt>
      <trkpt lat="48.61955" lon="-2.48213">
        <ele>5</ele>
        <time>2016-07-06T12:34:43Z</time>
      </trkpt>
      <trkpt lat="48.6195" lon="-2.48224">
        <ele>4</ele>
        <time>2016-07-06T12:34:50Z</time>
      </trkpt>
      <trkpt lat="48.61944" lon="-2.48235">
        <ele>3.5</ele>
        <time>2016-07-06T12:34:57Z</time>
      </trkpt>
      <trkpt lat="48.61938" lon="-2.48246">
        <ele>3.1</ele>
        <time>2016-07-06T12:35:04Z</time>
      </trkpt>
      <trkpt lat="48.61933" lon="-2.48256">
        <ele>2.7</ele>
        <time>2016-07-06T12:35:11Z</time>
      </trkpt>
      <trkpt lat="48.61926" lon="-2.48267">
        <ele>2.8</ele>
        <time>2016-07-06T12:35:18Z</time>
      </trkpt>
      <trkpt lat="48.6192" lon="-2.48278">
        <ele>2.6</ele>
        <time>2016-07-06T12:35:25Z</time>
      </trkpt>
      <trkpt lat="48.61913" lon="-2.48289">
        <ele>3.1</ele>
        <time>2016-07-06T12:35:32Z</time>
      </trkpt>
      <trkpt lat="48.61906" lon="-2.48299">
        <ele>3.9</ele>
        <time>2016-07-06T12:35:39Z</time>
      </trkpt>
      <trkpt lat="48.619" lon="-2.4831">
        <ele>4.2</ele>
        <time>2016-07-06T12:35:46Z</time>
      </trkpt>
      <trkpt lat="48.61894" lon="-2.48321">
        <ele>4.7</ele>
        <time>2016-07-06T12:35:53Z</time>
      </trkpt>
      <trkpt lat="48.61887" lon="-2.48332">
        <ele>4.4</ele>
        <time>2016-07-06T12:36:00Z</time>
      </trkpt>
      <trkpt lat="48.61881" lon="-2.48343">
        <ele>3.6</ele>
        <time>2016-07-06T12:36:07Z</time>
      </trkpt>
      <trkpt lat="48.61875" lon="-2.48354">
        <ele>3.9</ele>
        <time>2016-07-06T12:36:14Z</time>
      </trkpt>
      <trkpt lat="48.61869" lon="-2.48365">
        <ele>4</ele>
        <time>2016-07-06T12:36:21Z</time>
      </trkpt>
      <trkpt lat="48.61862" lon="-2.48376">
        <ele>4.6</ele>
        <time>2016-07-06T12:36:28Z</time>
      </trkpt>
      <trkpt lat="48.61857" lon="-2.48387">
        <ele>3.4</ele>
        <time>2016-07-06T12:36:36Z</time>
      </trkpt>
      <trkpt lat="48.6185" lon="-2.48398">
        <ele>4.1</ele>
        <time>2016-07-06T12:36:43Z</time>
      </trkpt>
      <trkpt lat="48.61844" lon="-2.48409">
        <ele>4.4</ele>
        <time>2016-07-06T12:36:57Z</time>
      </trkpt>
      <trkpt lat="48.61837" lon="-2.48419">
        <ele>3.9</ele>
        <time>2016-07-06T12:37:04Z</time>
      </trkpt>
      <trkpt lat="48.61831" lon="-2.4843">
        <ele>3.9</ele>
        <time>2016-07-06T12:37:11Z</time>
      </trkpt>
      <trkpt lat="48.61824" lon="-2.48439">
        <ele>3.7</ele>
        <time>2016-07-06T12:37:17Z</time>
      </trkpt>
      <trkpt lat="48.61818" lon="-2.48451">
        <ele>4.4</ele>
        <time>2016-07-06T12:37:30Z</time>
      </trkpt>
      <trkpt lat="48.61813" lon="-2.48462">
        <ele>4.1</ele>
        <time>2016-07-06T12:37:37Z</time>
      </trkpt>
      <trkpt lat="48.61806" lon="-2.48473">
        <ele>4.1</ele>
        <time>2016-07-06T12:37:44Z</time>
      </trkpt>
      <trkpt lat="48.61801" lon="-2.48484">
        <ele>4</ele>
        <time>2016-07-06T12:37:51Z</time>
      </trkpt>
      <trkpt lat="48.61795" lon="-2.48494">
        <ele>4.4</ele>
        <time>2016-07-06T12:37:58Z</time>
      </trkpt>
      <trkpt lat="48.61789" lon="-2.48504">
        <ele>4.7</ele>
        <time>2016-07-06T12:38:05Z</time>
      </trkpt>
      <trkpt lat="48.61783" lon="-2.48516">
        <ele>3.9</ele>
        <time>2016-07-06T12:38:12Z</time>
      </trkpt>
      <trkpt lat="48.61777" lon="-2.48526">
        <ele>3.5</ele>
        <time>2016-07-06T12:38:19Z</time>
      </trkpt>
      <trkpt lat="48.61771" lon="-2.48537">
        <ele>4.1</ele>
        <time>2016-07-06T12:38:26Z</time>
      </trkpt>
      <trkpt lat="48.61765" lon="-2.48547">
        <ele>4.9</ele>
        <time>2016-07-06T12:38:33Z</time>
      </trkpt>
      <trkpt lat="48.61758" lon="-2.48557">
        <ele>4.2</ele>
        <time>2016-07-06T12:38:40Z</time>
      </trkpt>
      <trkpt lat="48.61752" lon="-2.48568">
        <ele>3.4</ele>
        <time>2016-07-06T12:38:47Z</time>
      </trkpt>
      <trkpt lat="48.61746" lon="-2.4858">
        <ele>3.1</ele>
        <time>2016-07-06T12:38:55Z</time>
      </trkpt>
      <trkpt lat="48.6174" lon="-2.48592">
        <ele>3.1</ele>
        <time>2016-07-06T12:39:02Z</time>
      </trkpt>
      <trkpt lat="48.61735" lon="-2.48603">
        <ele>3.5</ele>
        <time>2016-07-06T12:39:09Z</time>
      </trkpt>
      <trkpt lat="48.6173" lon="-2.48615">
        <ele>3.6</ele>
        <time>2016-07-06T12:39:16Z</time>
      </trkpt>
      <trkpt lat="48.61725" lon="-2.48627">
        <ele>4.5</ele>
        <time>2016-07-06T12:39:23Z</time>
      </trkpt>
      <trkpt lat="48.6172" lon="-2.48638">
        <ele>5.1</ele>
        <time>2016-07-06T12:39:30Z</time>
      </trkpt>
      <trkpt lat="48.61713" lon="-2.4865">
        <ele>4.7</ele>
        <time>2016-07-06T12:39:38Z</time>
      </trkpt>
      <trkpt lat="48.61706" lon="-2.48662">
        <ele>4</ele>
        <time>2016-07-06T12:39:46Z</time>
      </trkpt>
      <trkpt lat="48.61701" lon="-2.48675">
        <ele>3.1</ele>
        <time>2016-07-06T12:40:05Z</time>
      </trkpt>
      <trkpt lat="48.61695" lon="-2.48687">
        <ele>3.6</ele>
        <time>2016-07-06T12:40:13Z</time>
      </trkpt>
      <trkpt lat="48.61688" lon="-2.48698">
        <ele>3.9</ele>
        <time>2016-07-06T12:40:21Z</time>
      </trkpt>
      <trkpt lat="48.61681" lon="-2.48709">
        <ele>4</ele>
        <time>2016-07-06T12:40:29Z</time>
      </trkpt>
      <trkpt lat="48.61675" lon="-2.48721">
        <ele>3.8</ele>
        <time>2016-07-06T12:40:47Z</time>
      </trkpt>
      <trkpt lat="48.61668" lon="-2.4873">
        <ele>4.2</ele>
        <time>2016-07-06T12:40:54Z</time>
      </trkpt>
      <trkpt lat="48.61661" lon="-2.48741">
        <ele>4</ele>
        <time>2016-07-06T12:41:02Z</time>
      </trkpt>
      <trkpt lat="48.61654" lon="-2.48751">
        <ele>4.4</ele>
        <time>2016-07-06T12:41:10Z</time>
      </trkpt>
      <trkpt lat="48.61647" lon="-2.48762">
        <ele>5.4</ele>
        <time>2016-07-06T12:41:18Z</time>
      </trkpt>
      <trkpt lat="48.6164" lon="-2.48772">
        <ele>4.7</ele>
        <time>2016-07-06T12:41:26Z</time>
      </trkpt>
      <trkpt lat="48.61634" lon="-2.48783">
        <ele>5.2</ele>
        <time>2016-07-06T12:41:34Z</time>
      </trkpt>
      <trkpt lat="48.61628" lon="-2.48793">
        <ele>5.3</ele>
        <time>2016-07-06T12:41:42Z</time>
      </trkpt>
      <trkpt lat="48.6162" lon="-2.48801">
        <ele>5.3</ele>
        <time>2016-07-06T12:41:50Z</time>
      </trkpt>
      <trkpt lat="48.61614" lon="-2.48813">
        <ele>5</ele>
        <time>2016-07-06T12:41:59Z</time>
      </trkpt>
      <trkpt lat="48.6161" lon="-2.48825">
        <ele>5.6</ele>
        <time>2016-07-06T12:42:07Z</time>
      </trkpt>
      <trkpt lat="48.61606" lon="-2.48838">
        <ele>5.7</ele>
        <time>2016-07-06T12:42:16Z</time>
      </trkpt>
      <trkpt lat="48.616" lon="-2.48851">
        <ele>5.8</ele>
        <time>2016-07-06T12:42:30Z</time>
      </trkpt>
      <trkpt lat="48.61594" lon="-2.48861">
        <ele>5.4</ele>
        <time>2016-07-06T12:42:39Z</time>
      </trkpt>
      <trkpt lat="48.6159" lon="-2.48873">
        <ele>5.3</ele>
        <time>2016-07-06T12:42:47Z</time>
      </trkpt>
      <trkpt lat="48.61587" lon="-2.48887">
        <ele>5.6</ele>
        <time>2016-07-06T12:42:55Z</time>
      </trkpt>
      <trkpt lat="48.61585" lon="-2.489">
        <ele>5.3</ele>
        <time>2016-07-06T12:43:05Z</time>
      </trkpt>
      <trkpt lat="48.61579" lon="-2.48912">
        <ele>5.4</ele>
        <time>2016-07-06T12:43:12Z</time>
      </trkpt>
      <trkpt lat="48.61574" lon="-2.48924">
        <ele>5.3</ele>
        <time>2016-07-06T12:43:20Z</time>
      </trkpt>
      <trkpt lat="48.61568" lon="-2.48935">
        <ele>4.8</ele>
        <time>2016-07-06T12:43:30Z</time>
      </trkpt>
      <trkpt lat="48.61563" lon="-2.48948">
        <ele>5.7</ele>
        <time>2016-07-06T12:43:43Z</time>
      </trkpt>
      <trkpt lat="48.61558" lon="-2.48962">
        <ele>5.8</ele>
        <time>2016-07-06T12:43:51Z</time>
      </trkpt>
      <trkpt lat="48.61553" lon="-2.48973">
        <ele>5.4</ele>
        <time>2016-07-06T12:44:00Z</time>
      </trkpt>
      <trkpt lat="48.61546" lon="-2.48985">
        <ele>5.3</ele>
        <time>2016-07-06T12:44:08Z</time>
      </trkpt>
      <trkpt lat="48.61541" lon="-2.48999">
        <ele>5.8</ele>
        <time>2016-07-06T12:44:17Z</time>
      </trkpt>
      <trkpt lat="48.61538" lon="-2.49012">
        <ele>5.4</ele>
        <time>2016-07-06T12:44:25Z</time>
      </trkpt>
      <trkpt lat="48.61532" lon="-2.49024">
        <ele>5.4</ele>
        <time>2016-07-06T12:44:33Z</time>
      </trkpt>
      <trkpt lat="48.61526" lon="-2.49037">
        <ele>5.1</ele>
        <time>2016-07-06T12:44:41Z</time>
      </trkpt>
      <trkpt lat="48.61521" lon="-2.49051">
        <ele>3.8</ele>
        <time>2016-07-06T12:44:49Z</time>
      </trkpt>
      <trkpt lat="48.61516" lon="-2.49063">
        <ele>4.3</ele>
        <time>2016-07-06T12:44:57Z</time>
      </trkpt>
      <trkpt lat="48.6151" lon="-2.49074">
        <ele>3.7</ele>
        <time>2016-07-06T12:45:04Z</time>
      </trkpt>
      <trkpt lat="48.61503" lon="-2.49083">
        <ele>3.4</ele>
        <time>2016-07-06T12:45:13Z</time>
      </trkpt>
      <trkpt lat="48.61495" lon="-2.49094">
        <ele>3.8</ele>
        <time>2016-07-06T12:45:21Z</time>
      </trkpt>
      <trkpt lat="48.61488" lon="-2.49104">
        <ele>3.7</ele>
        <time>2016-07-06T12:45:29Z</time>
      </trkpt>
      <trkpt lat="48.61481" lon="-2.49115">
        <ele>3.5</ele>
        <time>2016-07-06T12:45:37Z</time>
      </trkpt>
      <trkpt lat="48.61474" lon="-2.49124">
        <ele>3.3</ele>
        <time>2016-07-06T12:45:45Z</time>
      </trkpt>
      <trkpt lat="48.61468" lon="-2.49134">
        <ele>3.5</ele>
        <time>2016-07-06T12:45:53Z</time>
      </trkpt>
      <trkpt lat="48.61461" lon="-2.49145">
        <ele>3.8</ele>
        <time>2016-07-06T12:46:01Z</time>
      </trkpt>
      <trkpt lat="48.61455" lon="-2.49157">
        <ele>4</ele>
        <time>2016-07-06T12:46:08Z</time>
      </trkpt>
      <trkpt lat="48.61448" lon="-2.49166">
        <ele>3.4</ele>
        <time>2016-07-06T12:46:15Z</time>
      </trkpt>
      <trkpt lat="48.61442" lon="-2.49176">
        <ele>3</ele>
        <time>2016-07-06T12:46:22Z</time>
      </trkpt>
      <trkpt lat="48.61435" lon="-2.49185">
        <ele>2.9</ele>
        <time>2016-07-06T12:46:29Z</time>
      </trkpt>
      <trkpt lat="48.61428" lon="-2.49194">
        <ele>4</ele>
        <time>2016-07-06T12:46:53Z</time>
      </trkpt>
      <trkpt lat="48.61421" lon="-2.49203">
        <ele>3.4</ele>
        <time>2016-07-06T12:47:00Z</time>
      </trkpt>
      <trkpt lat="48.61414" lon="-2.49213">
        <ele>2.8</ele>
        <time>2016-07-06T12:47:08Z</time>
      </trkpt>
      <trkpt lat="48.61409" lon="-2.49225">
        <ele>2.9</ele>
        <time>2016-07-06T12:47:16Z</time>
      </trkpt>
      <trkpt lat="48.61401" lon="-2.49236">
        <ele>2.6</ele>
        <time>2016-07-06T12:47:24Z</time>
      </trkpt>
      <trkpt lat="48.61394" lon="-2.49246">
        <ele>2.8</ele>
        <time>2016-07-06T12:47:32Z</time>
      </trkpt>
      <trkpt lat="48.61389" lon="-2.49259">
        <ele>2.5</ele>
        <time>2016-07-06T12:47:39Z</time>
      </trkpt>
      <trkpt lat="48.61382" lon="-2.4927">
        <ele>2.7</ele>
        <time>2016-07-06T12:47:48Z</time>
      </trkpt>
      <trkpt lat="48.61376" lon="-2.49281">
        <ele>2.4</ele>
        <time>2016-07-06T12:47:56Z</time>
      </trkpt>
      <trkpt lat="48.61369" lon="-2.4929">
        <ele>3.2</ele>
        <time>2016-07-06T12:48:02Z</time>
      </trkpt>
      <trkpt lat="48.61362" lon="-2.49301">
        <ele>3.3</ele>
        <time>2016-07-06T12:48:10Z</time>
      </trkpt>
      <trkpt lat="48.61356" lon="-2.49314">
        <ele>2.2</ele>
        <time>2016-07-06T12:48:17Z</time>
      </trkpt>
      <trkpt lat="48.61349" lon="-2.49325">
        <ele>2.6</ele>
        <time>2016-07-06T12:48:25Z</time>
      </trkpt>
      <trkpt lat="48.61343" lon="-2.49335">
        <ele>2.5</ele>
        <time>2016-07-06T12:48:32Z</time>
      </trkpt>
      <trkpt lat="48.61336" lon="-2.49346">
        <ele>3</ele>
        <time>2016-07-06T12:48:40Z</time>
      </trkpt>
      <trkpt lat="48.61329" lon="-2.49355">
        <ele>2.7</ele>
        <time>2016-07-06T12:48:47Z</time>
      </trkpt>
      <trkpt lat="48.61324" lon="-2.49368">
        <ele>2.3</ele>
        <time>2016-07-06T12:49:15Z</time>
      </trkpt>
      <trkpt lat="48.61318" lon="-2.49379">
        <ele>3.1</ele>
        <time>2016-07-06T12:49:22Z</time>
      </trkpt>
      <trkpt lat="48.61311" lon="-2.4939">
        <ele>2.3</ele>
        <time>2016-07-06T12:49:30Z</time>
      </trkpt>
      <trkpt lat="48.61303" lon="-2.49399">
        <ele>2.6</ele>
        <time>2016-07-06T12:49:38Z</time>
      </trkpt>
      <trkpt lat="48.61297" lon="-2.49411">
        <ele>3</ele>
        <time>2016-07-06T12:49:45Z</time>
      </trkpt>
      <trkpt lat="48.61291" lon="-2.49422">
        <ele>2.5</ele>
        <time>2016-07-06T12:49:53Z</time>
      </trkpt>
      <trkpt lat="48.61284" lon="-2.49433">
        <ele>1.9</ele>
        <time>2016-07-06T12:50:00Z</time>
      </trkpt>
      <trkpt lat="48.61279" lon="-2.49445">
        <ele>2.7</ele>
        <time>2016-07-06T12:50:07Z</time>
      </trkpt>
      <trkpt lat="48.61272" lon="-2.49457">
        <ele>2.3</ele>
        <time>2016-07-06T12:50:15Z</time>
      </trkpt>
      <trkpt lat="48.61267" lon="-2.49469">
        <ele>2.1</ele>
        <time>2016-07-06T12:50:22Z</time>
      </trkpt>
      <trkpt lat="48.61262" lon="-2.49481">
        <ele>1.8</ele>
        <time>2016-07-06T12:50:29Z</time>
      </trkpt>
      <trkpt lat="48.61256" lon="-2.49492">
        <ele>2.1</ele>
        <time>2016-07-06T12:50:36Z</time>
      </trkpt>
      <trkpt lat="48.6125" lon="-2.49503">
        <ele>1.4</ele>
        <time>2016-07-06T12:50:54Z</time>
      </trkpt>
      <trkpt lat="48.61244" lon="-2.49516">
        <ele>2</ele>
        <time>2016-07-06T12:51:01Z</time>
      </trkpt>
      <trkpt lat="48.61239" lon="-2.49528">
        <ele>1.8</ele>
        <time>2016-07-06T12:51:09Z</time>
      </trkpt>
      <trkpt lat="48.61233" lon="-2.49538">
        <ele>1.5</ele>
        <time>2016-07-06T12:51:16Z</time>
      </trkpt>
      <trkpt lat="48.61227" lon="-2.4955">
        <ele>2.1</ele>
        <time>2016-07-06T12:51:23Z</time>
      </trkpt>
      <trkpt lat="48.61222" lon="-2.49562">
        <ele>2.2</ele>
        <time>2016-07-06T12:51:30Z</time>
      </trkpt>
      <trkpt lat="48.61215" lon="-2.49573">
        <ele>1.4</ele>
        <time>2016-07-06T12:51:38Z</time>
      </trkpt>
      <trkpt lat="48.61209" lon="-2.49586">
        <ele>1.6</ele>
        <time>2016-07-06T12:51:46Z</time>
      </trkpt>
      <trkpt lat="48.61205" lon="-2.49598">
        <ele>1.9</ele>
        <time>2016-07-06T12:51:53Z</time>
      </trkpt>
      <trkpt lat="48.61199" lon="-2.49609">
        <ele>1.3</ele>
        <time>2016-07-06T12:52:00Z</time>
      </trkpt>
      <trkpt lat="48.61193" lon="-2.4962">
        <ele>2.3</ele>
        <time>2016-07-06T12:52:07Z</time>
      </trkpt>
      <trkpt lat="48.61188" lon="-2.49631">
        <ele>1.9</ele>
        <time>2016-07-06T12:52:14Z</time>
      </trkpt>
      <trkpt lat="48.61182" lon="-2.49642">
        <ele>2.2</ele>
        <time>2016-07-06T12:52:21Z</time>
      </trkpt>
      <trkpt lat="48.61176" lon="-2.49654">
        <ele>2.4</ele>
        <time>2016-07-06T12:52:56Z</time>
      </trkpt>
      <trkpt lat="48.6117" lon="-2.49666">
        <ele>1.5</ele>
        <time>2016-07-06T12:53:03Z</time>
      </trkpt>
      <trkpt lat="48.61165" lon="-2.49678">
        <ele>2.4</ele>
        <time>2016-07-06T12:53:10Z</time>
      </trkpt>
      <trkpt lat="48.6116" lon="-2.49692">
        <ele>2.9</ele>
        <time>2016-07-06T12:53:18Z</time>
      </trkpt>
      <trkpt lat="48.61155" lon="-2.49703">
        <ele>1</ele>
        <time>2016-07-06T12:53:25Z</time>
      </trkpt>
      <trkpt lat="48.6115" lon="-2.49715">
        <ele>0.6</ele>
        <time>2016-07-06T12:53:32Z</time>
      </trkpt>
      <trkpt lat="48.61144" lon="-2.49727">
        <ele>0.6</ele>
        <time>2016-07-06T12:53:40Z</time>
      </trkpt>
      <trkpt lat="48.61139" lon="-2.49739">
        <ele>1.4</ele>
        <time>2016-07-06T12:53:47Z</time>
      </trkpt>
      <trkpt lat="48.61134" lon="-2.4975">
        <ele>0.9</ele>
        <time>2016-07-06T12:53:54Z</time>
      </trkpt>
      <trkpt lat="48.61128" lon="-2.49762">
        <ele>0.8</ele>
        <time>2016-07-06T12:54:01Z</time>
      </trkpt>
      <trkpt lat="48.61123" lon="-2.49773">
        <ele>1.3</ele>
        <time>2016-07-06T12:54:08Z</time>
      </trkpt>
      <trkpt lat="48.61117" lon="-2.49784">
        <ele>1.6</ele>
        <time>2016-07-06T12:54:15Z</time>
      </trkpt>
      <trkpt lat="48.61112" lon="-2.49796">
        <ele>1.6</ele>
        <time>2016-07-06T12:54:22Z</time>
      </trkpt>
      <trkpt lat="48.61108" lon="-2.49808">
        <ele>1.3</ele>
        <time>2016-07-06T12:54:29Z</time>
      </trkpt>
      <trkpt lat="48.61102" lon="-2.49821">
        <ele>1.3</ele>
        <time>2016-07-06T12:54:37Z</time>
      </trkpt>
      <trkpt lat="48.61097" lon="-2.49833">
        <ele>0.8</ele>
        <time>2016-07-06T12:54:44Z</time>
      </trkpt>
      <trkpt lat="48.61092" lon="-2.49844">
        <ele>0.8</ele>
        <time>2016-07-06T12:54:51Z</time>
      </trkpt>
      <trkpt lat="48.61087" lon="-2.49857">
        <ele>0.6</ele>
        <time>2016-07-06T12:54:58Z</time>
      </trkpt>
      <trkpt lat="48.61082" lon="-2.49868">
        <ele>0.6</ele>
        <time>2016-07-06T12:55:05Z</time>
      </trkpt>
      <trkpt lat="48.61076" lon="-2.49881">
        <ele>1.3</ele>
        <time>2016-07-06T12:55:13Z</time>
      </trkpt>
      <trkpt lat="48.61069" lon="-2.49893">
        <ele>0.3</ele>
        <time>2016-07-06T12:55:21Z</time>
      </trkpt>
      <trkpt lat="48.61064" lon="-2.49905">
        <ele>0.5</ele>
        <time>2016-07-06T12:55:28Z</time>
      </trkpt>
      <trkpt lat="48.61058" lon="-2.49916">
        <ele>0.8</ele>
        <time>2016-07-06T12:55:35Z</time>
      </trkpt>
      <trkpt lat="48.61052" lon="-2.49928">
        <ele>1.2</ele>
        <time>2016-07-06T12:55:42Z</time>
      </trkpt>
      <trkpt lat="48.61046" lon="-2.49939">
        <ele>1.7</ele>
        <time>2016-07-06T12:55:49Z</time>
      </trkpt>
      <trkpt lat="48.61041" lon="-2.4995">
        <ele>1.1</ele>
        <time>2016-07-06T12:55:56Z</time>
      </trkpt>
      <trkpt lat="48.61036" lon="-2.49964">
        <ele>0.7</ele>
        <time>2016-07-06T12:56:04Z</time>
      </trkpt>
      <trkpt lat="48.6103" lon="-2.49975">
        <ele>0.4</ele>
        <time>2016-07-06T12:56:11Z</time>
      </trkpt>
      <trkpt lat="48.61024" lon="-2.49986">
        <ele>0.4</ele>
        <time>2016-07-06T12:56:18Z</time>
      </trkpt>
      <trkpt lat="48.61019" lon="-2.49997">
        <ele>0.2</ele>
        <time>2016-07-06T12:56:25Z</time>
      </trkpt>
      <trkpt lat="48.61013" lon="-2.50009">
        <ele>0.3</ele>
        <time>2016-07-06T12:56:32Z</time>
      </trkpt>
      <trkpt lat="48.61008" lon="-2.5002">
        <time>2016-07-06T12:56:39Z</time>
      </trkpt>
      <trkpt lat="48.61003" lon="-2.50033">
        <ele>-0.2</ele>
        <time>2016-07-06T12:56:46Z</time>
      </trkpt>
      <trkpt lat="48.60998" lon="-2.50044">
        <ele>-0.1</ele>
        <time>2016-07-06T12:56:53Z</time>
      </trkpt>
      <trkpt lat="48.60993" lon="-2.50057">
        <ele>0.2</ele>
        <time>2016-07-06T12:57:00Z</time>
      </trkpt>
      <trkpt lat="48.60988" lon="-2.50069">
        <ele>0.4</ele>
        <time>2016-07-06T12:57:07Z</time>
      </trkpt>
      <trkpt lat="48.60984" lon="-2.50081">
        <ele>0.7</ele>
        <time>2016-07-06T12:57:14Z</time>
      </trkpt>
      <trkpt lat="48.60979" lon="-2.50094">
        <ele>0.7</ele>
        <time>2016-07-06T12:57:21Z</time>
      </trkpt>
      <trkpt lat="48.60974" lon="-2.50106">
        <ele>0.7</ele>
        <time>2016-07-06T12:57:28Z</time>
      </trkpt>
      <trkpt lat="48.60968" lon="-2.50116">
        <ele>0.7</ele>
        <time>2016-07-06T12:57:35Z</time>
      </trkpt>
      <trkpt lat="48.60963" lon="-2.50129">
        <ele>0.1</ele>
        <time>2016-07-06T12:57:42Z</time>
      </trkpt>
      <trkpt lat="48.60958" lon="-2.50142">
        <ele>0.4</ele>
        <time>2016-07-06T12:57:50Z</time>
      </trkpt>
      <trkpt lat="48.60953" lon="-2.50154">
        <ele>0.8</ele>
        <time>2016-07-06T12:57:57Z</time>
      </trkpt>
      <trkpt lat="48.60947" lon="-2.50167">
        <ele>1</ele>
        <time>2016-07-06T12:58:05Z</time>
      </trkpt>
      <trkpt lat="48.60943" lon="-2.50179">
        <ele>0.5</ele>
        <time>2016-07-06T12:58:12Z</time>
      </trkpt>
      <trkpt lat="48.60937" lon="-2.50191">
        <ele>0.8</ele>
        <time>2016-07-06T12:58:19Z</time>
      </trkpt>
      <trkpt lat="48.60932" lon="-2.50203">
        <ele>0.9</ele>
        <time>2016-07-06T12:58:26Z</time>
      </trkpt>
      <trkpt lat="48.60928" lon="-2.50215">
        <ele>0.8</ele>
        <time>2016-07-06T12:58:33Z</time>
      </trkpt>
      <trkpt lat="48.60923" lon="-2.50228">
        <ele>0.6</ele>
        <time>2016-07-06T12:58:40Z</time>
      </trkpt>
      <trkpt lat="48.60918" lon="-2.5024">
        <ele>0.7</ele>
        <time>2016-07-06T12:58:47Z</time>
      </trkpt>
      <trkpt lat="48.60913" lon="-2.50252">
        <ele>0.7</ele>
        <time>2016-07-06T12:58:54Z</time>
      </trkpt>
      <trkpt lat="48.60909" lon="-2.50264">
        <ele>0.9</ele>
        <time>2016-07-06T12:59:01Z</time>
      </trkpt>
      <trkpt lat="48.60905" lon="-2.50277">
        <ele>0.7</ele>
        <time>2016-07-06T12:59:08Z</time>
      </trkpt>
      <trkpt lat="48.60901" lon="-2.5029">
        <time>2016-07-06T12:59:15Z</time>
      </trkpt>
      <trkpt lat="48.60896" lon="-2.50302">
        <ele>1.6</ele>
        <time>2016-07-06T12:59:42Z</time>
      </trkpt>
      <trkpt lat="48.60893" lon="-2.50316">
        <ele>1.3</ele>
        <time>2016-07-06T12:59:49Z</time>
      </trkpt>
      <trkpt lat="48.60888" lon="-2.50329">
        <ele>1.4</ele>
        <time>2016-07-06T12:59:56Z</time>
      </trkpt>
      <trkpt lat="48.60884" lon="-2.50341">
        <ele>0.6</ele>
        <time>2016-07-06T13:00:03Z</time>
      </trkpt>
      <trkpt lat="48.6088" lon="-2.50354">
        <ele>0.8</ele>
        <time>2016-07-06T13:00:10Z</time>
      </trkpt>
      <trkpt lat="48.60876" lon="-2.50366">
        <ele>0.5</ele>
        <time>2016-07-06T13:00:17Z</time>
      </trkpt>
      <trkpt lat="48.60871" lon="-2.50379">
        <ele>0.7</ele>
        <time>2016-07-06T13:00:24Z</time>
      </trkpt>
      <trkpt lat="48.60867" lon="-2.50393">
        <ele>0.6</ele>
        <time>2016-07-06T13:00:31Z</time>
      </trkpt>
      <trkpt lat="48.60863" lon="-2.50405">
        <ele>0.8</ele>
        <time>2016-07-06T13:00:38Z</time>
      </trkpt>
      <trkpt lat="48.60858" lon="-2.50417">
        <ele>1.1</ele>
        <time>2016-07-06T13:00:45Z</time>
      </trkpt>
      <trkpt lat="48.60853" lon="-2.5043">
        <ele>1</ele>
        <time>2016-07-06T13:00:53Z</time>
      </trkpt>
      <trkpt lat="48.60849" lon="-2.50445">
        <ele>0.8</ele>
        <time>2016-07-06T13:01:01Z</time>
      </trkpt>
      <trkpt lat="48.60845" lon="-2.50457">
        <ele>1</ele>
        <time>2016-07-06T13:01:08Z</time>
      </trkpt>
      <trkpt lat="48.6084" lon="-2.50471">
        <ele>1.3</ele>
        <time>2016-07-06T13:01:16Z</time>
      </trkpt>
      <trkpt lat="48.60835" lon="-2.50483">
        <ele>1.1</ele>
        <time>2016-07-06T13:01:23Z</time>
      </trkpt>
      <trkpt lat="48.6083" lon="-2.50496">
        <ele>1</ele>
        <time>2016-07-06T13:01:30Z</time>
      </trkpt>
      <trkpt lat="48.60826" lon="-2.50508">
        <time>2016-07-06T13:01:37Z</time>
      </trkpt>
      <trkpt lat="48.60822" lon="-2.50522">
        <ele>-0.1</ele>
        <time>2016-07-06T13:01:44Z</time>
      </trkpt>
      <trkpt lat="48.60818" lon="-2.50535">
        <ele>0.3</ele>
        <time>2016-07-06T13:02:03Z</time>
      </trkpt>
      <trkpt lat="48.60813" lon="-2.50549">
        <ele>0.8</ele>
        <time>2016-07-06T13:02:10Z</time>
      </trkpt>
      <trkpt lat="48.60808" lon="-2.50561">
        <ele>0.5</ele>
        <time>2016-07-06T13:02:17Z</time>
      </trkpt>
      <trkpt lat="48.60803" lon="-2.50575">
        <ele>0.3</ele>
        <time>2016-07-06T13:02:25Z</time>
      </trkpt>
      <trkpt lat="48.60798" lon="-2.50588">
        <ele>0.4</ele>
        <time>2016-07-06T13:02:33Z</time>
      </trkpt>
      <trkpt lat="48.60793" lon="-2.506">
        <ele>0.1</ele>
        <time>2016-07-06T13:02:40Z</time>
      </trkpt>
      <trkpt lat="48.60789" lon="-2.50614">
        <ele>0.1</ele>
        <time>2016-07-06T13:02:48Z</time>
      </trkpt>
      <trkpt lat="48.60784" lon="-2.50627">
        <time>2016-07-06T13:02:56Z</time>
      </trkpt>
      <trkpt lat="48.60779" lon="-2.50641">
        <ele>0.1</ele>
        <time>2016-07-06T13:03:04Z</time>
      </trkpt>
      <trkpt lat="48.60775" lon="-2.50656">
        <ele>0.5</ele>
        <time>2016-07-06T13:03:12Z</time>
      </trkpt>
      <trkpt lat="48.6077" lon="-2.50668">
        <ele>-0.4</ele>
        <time>2016-07-06T13:03:19Z</time>
      </trkpt>
      <trkpt lat="48.60766" lon="-2.50681">
        <ele>-0.6</ele>
        <time>2016-07-06T13:03:27Z</time>
      </trkpt>
      <trkpt lat="48.60761" lon="-2.50693">
        <ele>-0.7</ele>
        <time>2016-07-06T13:03:34Z</time>
      </trkpt>
      <trkpt lat="48.60757" lon="-2.50706">
        <ele>-0.5</ele>
        <time>2016-07-06T13:03:59Z</time>
      </trkpt>
      <trkpt lat="48.60754" lon="-2.5072">
        <ele>-0.5</ele>
        <time>2016-07-06T13:04:11Z</time>
      </trkpt>
      <trkpt lat="48.60749" lon="-2.50732">
        <ele>-0.1</ele>
        <time>2016-07-06T13:04:18Z</time>
      </trkpt>
      <trkpt lat="48.60745" lon="-2.50745">
        <ele>-0.8</ele>
        <time>2016-07-06T13:04:25Z</time>
      </trkpt>
      <trkpt lat="48.6074" lon="-2.50758">
        <ele>-1</ele>
        <time>2016-07-06T13:04:33Z</time>
      </trkpt>
      <trkpt lat="48.60735" lon="-2.50772">
        <ele>-1.7</ele>
        <time>2016-07-06T13:04:41Z</time>
      </trkpt>
      <trkpt lat="48.60731" lon="-2.50785">
        <ele>-1.3</ele>
        <time>2016-07-06T13:04:48Z</time>
      </trkpt>
      <trkpt lat="48.60726" lon="-2.50798">
        <ele>-0.2</ele>
        <time>2016-07-06T13:04:56Z</time>
      </trkpt>
      <trkpt lat="48.60721" lon="-2.5081">
        <ele>-0.7</ele>
        <time>2016-07-06T13:05:03Z</time>
      </trkpt>
      <trkpt lat="48.60716" lon="-2.50824">
        <ele>-1.4</ele>
        <time>2016-07-06T13:05:11Z</time>
      </trkpt>
      <trkpt lat="48.60712" lon="-2.50837">
        <ele>-1.1</ele>
        <time>2016-07-06T13:05:19Z</time>
      </trkpt>
      <trkpt lat="48.60709" lon="-2.5085">
        <ele>-1.1</ele>
        <time>2016-07-06T13:05:26Z</time>
      </trkpt>
      <trkpt lat="48.60704" lon="-2.50863">
        <ele>-1.4</ele>
        <time>2016-07-06T13:05:34Z</time>
      </trkpt>
      <trkpt lat="48.60699" lon="-2.50875">
        <ele>-1.3</ele>
        <time>2016-07-06T13:05:41Z</time>
      </trkpt>
      <trkpt lat="48.60695" lon="-2.50888">
        <ele>-1.1</ele>
        <time>2016-07-06T13:05:49Z</time>
      </trkpt>
      <trkpt lat="48.6069" lon="-2.50901">
        <ele>-1.2</ele>
        <time>2016-07-06T13:05:57Z</time>
      </trkpt>
      <trkpt lat="48.60685" lon="-2.50913">
        <ele>-1.2</ele>
        <time>2016-07-06T13:06:04Z</time>
      </trkpt>
      <trkpt lat="48.60681" lon="-2.50927">
        <ele>-1.1</ele>
        <time>2016-07-06T13:06:12Z</time>
      </trkpt>
      <trkpt lat="48.60677" lon="-2.50941">
        <ele>-1.4</ele>
        <time>2016-07-06T13:06:19Z</time>
      </trkpt>
      <trkpt lat="48.60673" lon="-2.50953">
        <ele>-1.6</ele>
        <time>2016-07-06T13:06:26Z</time>
      </trkpt>
      <trkpt lat="48.60668" lon="-2.50966">
        <ele>-1.6</ele>
        <time>2016-07-06T13:06:34Z</time>
      </trkpt>
      <trkpt lat="48.60663" lon="-2.50979">
        <ele>-1.5</ele>
        <time>2016-07-06T13:06:42Z</time>
      </trkpt>
      <trkpt lat="48.60659" lon="-2.50993">
        <ele>-1.5</ele>
        <time>2016-07-06T13:06:49Z</time>
      </trkpt>
      <trkpt lat="48.60655" lon="-2.51006">
        <ele>-0.4</ele>
        <time>2016-07-06T13:06:56Z</time>
      </trkpt>
      <trkpt lat="48.60651" lon="-2.51019">
        <ele>-0.9</ele>
        <time>2016-07-06T13:07:05Z</time>
      </trkpt>
      <trkpt lat="48.60647" lon="-2.51034">
        <ele>-1.1</ele>
        <time>2016-07-06T13:07:35Z</time>
      </trkpt>
      <trkpt lat="48.60642" lon="-2.51047">
        <ele>-2.3</ele>
        <time>2016-07-06T13:07:43Z</time>
      </trkpt>
      <trkpt lat="48.60638" lon="-2.5106">
        <ele>-2.3</ele>
        <time>2016-07-06T13:07:50Z</time>
      </trkpt>
      <trkpt lat="48.60634" lon="-2.51073">
        <ele>-1.9</ele>
        <time>2016-07-06T13:07:58Z</time>
      </trkpt>
      <trkpt lat="48.60629" lon="-2.51087">
        <ele>-1.6</ele>
        <time>2016-07-06T13:08:05Z</time>
      </trkpt>
      <trkpt lat="48.60624" lon="-2.51099">
        <ele>-1.3</ele>
        <time>2016-07-06T13:08:12Z</time>
      </trkpt>
      <trkpt lat="48.6062" lon="-2.51112">
        <ele>-1.6</ele>
        <time>2016-07-06T13:08:19Z</time>
      </trkpt>
      <trkpt lat="48.60616" lon="-2.51126">
        <ele>-1</ele>
        <time>2016-07-06T13:08:27Z</time>
      </trkpt>
      <trkpt lat="48.60612" lon="-2.51139">
        <ele>-1.5</ele>
        <time>2016-07-06T13:08:34Z</time>
      </trkpt>
      <trkpt lat="48.60609" lon="-2.51152">
        <ele>-0.7</ele>
        <time>2016-07-06T13:09:16Z</time>
      </trkpt>
      <trkpt lat="48.60605" lon="-2.51165">
        <ele>-1.4</ele>
        <time>2016-07-06T13:09:24Z</time>
      </trkpt>
      <trkpt lat="48.60601" lon="-2.51179">
        <ele>-2</ele>
        <time>2016-07-06T13:09:32Z</time>
      </trkpt>
      <trkpt lat="48.60596" lon="-2.51191">
        <ele>-1.7</ele>
        <time>2016-07-06T13:09:39Z</time>
      </trkpt>
      <trkpt lat="48.60592" lon="-2.51205">
        <ele>-1.6</ele>
        <time>2016-07-06T13:09:47Z</time>
      </trkpt>
      <trkpt lat="48.60587" lon="-2.51217">
        <ele>-2</ele>
        <time>2016-07-06T13:09:54Z</time>
      </trkpt>
      <trkpt lat="48.60583" lon="-2.51229">
        <ele>-1.9</ele>
        <time>2016-07-06T13:10:01Z</time>
      </trkpt>
      <trkpt lat="48.60579" lon="-2.51244">
        <ele>-1.9</ele>
        <time>2016-07-06T13:10:09Z</time>
      </trkpt>
      <trkpt lat="48.60575" lon="-2.51256">
        <ele>-1.7</ele>
        <time>2016-07-06T13:10:16Z</time>
      </trkpt>
      <trkpt lat="48.60571" lon="-2.51269">
        <ele>-2</ele>
        <time>2016-07-06T13:10:23Z</time>
      </trkpt>
      <trkpt lat="48.60567" lon="-2.51281">
        <ele>-1.7</ele>
        <time>2016-07-06T13:10:30Z</time>
      </trkpt>
      <trkpt lat="48.60563" lon="-2.51296">
        <ele>-1.6</ele>
        <time>2016-07-06T13:10:38Z</time>
      </trkpt>
      <trkpt lat="48.6056" lon="-2.5131">
        <ele>-1.8</ele>
        <time>2016-07-06T13:10:46Z</time>
      </trkpt>
      <trkpt lat="48.60556" lon="-2.51323">
        <ele>-1.9</ele>
        <time>2016-07-06T13:10:53Z</time>
      </trkpt>
      <trkpt lat="48.60552" lon="-2.51337">
        <ele>-1.9</ele>
        <time>2016-07-06T13:11:01Z</time>
      </trkpt>
      <trkpt lat="48.60547" lon="-2.5135">
        <ele>-2.1</ele>
        <time>2016-07-06T13:11:09Z</time>
      </trkpt>
      <trkpt lat="48.60543" lon="-2.51363">
        <ele>-1.2</ele>
        <time>2016-07-06T13:11:16Z</time>
      </trkpt>
      <trkpt lat="48.60541" lon="-2.51377">
        <ele>-1.4</ele>
        <time>2016-07-06T13:11:23Z</time>
      </trkpt>
      <trkpt lat="48.60539" lon="-2.51391">
        <ele>-1.8</ele>
        <time>2016-07-06T13:11:31Z</time>
      </trkpt>
      <trkpt lat="48.60538" lon="-2.51405">
        <ele>-2.7</ele>
        <time>2016-07-06T13:11:38Z</time>
      </trkpt>
      <trkpt lat="48.60534" lon="-2.51417">
        <ele>-2.4</ele>
        <time>2016-07-06T13:11:48Z</time>
      </trkpt>
      <trkpt lat="48.60532" lon="-2.51431">
        <ele>-2.1</ele>
        <time>2016-07-06T13:11:55Z</time>
      </trkpt>
      <trkpt lat="48.6053" lon="-2.51444">
        <ele>-2.5</ele>
        <time>2016-07-06T13:12:02Z</time>
      </trkpt>
      <trkpt lat="48.60526" lon="-2.51458">
        <ele>-2.6</ele>
        <time>2016-07-06T13:12:09Z</time>
      </trkpt>
      <trkpt lat="48.60523" lon="-2.51471">
        <ele>-2</ele>
        <time>2016-07-06T13:12:16Z</time>
      </trkpt>
      <trkpt lat="48.60518" lon="-2.51483">
        <ele>-2.5</ele>
        <time>2016-07-06T13:12:23Z</time>
      </trkpt>
      <trkpt lat="48.60514" lon="-2.51497">
        <ele>-2.4</ele>
        <time>2016-07-06T13:12:31Z</time>
      </trkpt>
      <trkpt lat="48.6051" lon="-2.51511">
        <ele>-2.6</ele>
        <time>2016-07-06T13:12:39Z</time>
      </trkpt>
      <trkpt lat="48.60506" lon="-2.51524">
        <ele>-1.4</ele>
        <time>2016-07-06T13:12:46Z</time>
      </trkpt>
      <trkpt lat="48.60503" lon="-2.51536">
        <ele>-2.4</ele>
        <time>2016-07-06T13:12:53Z</time>
      </trkpt>
      <trkpt lat="48.605" lon="-2.51549">
        <ele>-2.3</ele>
        <time>2016-07-06T13:13:23Z</time>
      </trkpt>
      <trkpt lat="48.60495" lon="-2.51562">
        <ele>-2.2</ele>
        <time>2016-07-06T13:13:30Z</time>
      </trkpt>
      <trkpt lat="48.60491" lon="-2.51575">
        <ele>-2</ele>
        <time>2016-07-06T13:13:37Z</time>
      </trkpt>
      <trkpt lat="48.60486" lon="-2.51588">
        <ele>-2.1</ele>
        <time>2016-07-06T13:13:44Z</time>
      </trkpt>
      <trkpt lat="48.60482" lon="-2.51601">
        <ele>-3.1</ele>
        <time>2016-07-06T13:13:52Z</time>
      </trkpt>
      <trkpt lat="48.60478" lon="-2.51615">
        <ele>-4</ele>
        <time>2016-07-06T13:13:59Z</time>
      </trkpt>
      <trkpt lat="48.60474" lon="-2.51627">
        <ele>-3.8</ele>
        <time>2016-07-06T13:14:06Z</time>
      </trkpt>
      <trkpt lat="48.6047" lon="-2.5164">
        <ele>-2.5</ele>
        <time>2016-07-06T13:14:13Z</time>
      </trkpt>
      <trkpt lat="48.60466" lon="-2.51653">
        <ele>-3</ele>
        <time>2016-07-06T13:14:21Z</time>
      </trkpt>
      <trkpt lat="48.60461" lon="-2.51666">
        <ele>-3.5</ele>
        <time>2016-07-06T13:14:28Z</time>
      </trkpt>
      <trkpt lat="48.60457" lon="-2.51678">
        <ele>-3.1</ele>
        <time>2016-07-06T13:14:35Z</time>
      </trkpt>
      <trkpt lat="48.60453" lon="-2.51691">
        <ele>-3.6</ele>
        <time>2016-07-06T13:14:43Z</time>
      </trkpt>
      <trkpt lat="48.60449" lon="-2.51705">
        <ele>-2.9</ele>
        <time>2016-07-06T13:14:50Z</time>
      </trkpt>
      <trkpt lat="48.60445" lon="-2.51719">
        <ele>-3.2</ele>
        <time>2016-07-06T13:14:58Z</time>
      </trkpt>
      <trkpt lat="48.60441" lon="-2.51733">
        <ele>-3.9</ele>
        <time>2016-07-06T13:15:06Z</time>
      </trkpt>
      <trkpt lat="48.60436" lon="-2.51745">
        <ele>-3.8</ele>
        <time>2016-07-06T13:15:13Z</time>
      </trkpt>
      <trkpt lat="48.60433" lon="-2.51758">
        <ele>-3.8</ele>
        <time>2016-07-06T13:15:20Z</time>
      </trkpt>
      <trkpt lat="48.60429" lon="-2.51771">
        <ele>-3.8</ele>
        <time>2016-07-06T13:15:36Z</time>
      </trkpt>
      <trkpt lat="48.60424" lon="-2.51783">
        <ele>-4</ele>
        <time>2016-07-06T13:15:43Z</time>
      </trkpt>
      <trkpt lat="48.60421" lon="-2.51796">
        <ele>-3.7</ele>
        <time>2016-07-06T13:15:50Z</time>
      </trkpt>
      <trkpt lat="48.60416" lon="-2.51809">
        <ele>-3.8</ele>
        <time>2016-07-06T13:15:57Z</time>
      </trkpt>
      <trkpt lat="48.60412" lon="-2.51822">
        <ele>-3.9</ele>
        <time>2016-07-06T13:16:04Z</time>
      </trkpt>
      <trkpt lat="48.60407" lon="-2.51834">
        <ele>-3.8</ele>
        <time>2016-07-06T13:16:11Z</time>
      </trkpt>
      <trkpt lat="48.60402" lon="-2.51848">
        <ele>-2</ele>
        <time>2016-07-06T13:16:18Z</time>
      </trkpt>
      <trkpt lat="48.60397" lon="-2.51861">
        <ele>-2</ele>
        <time>2016-07-06T13:16:28Z</time>
      </trkpt>
      <trkpt lat="48.60393" lon="-2.51874">
        <ele>-2.9</ele>
        <time>2016-07-06T13:16:36Z</time>
      </trkpt>
      <trkpt lat="48.60388" lon="-2.51887">
        <ele>-3.7</ele>
        <time>2016-07-06T13:16:58Z</time>
      </trkpt>
      <trkpt lat="48.60383" lon="-2.51901">
        <ele>-4</ele>
        <time>2016-07-06T13:17:05Z</time>
      </trkpt>
      <trkpt lat="48.60379" lon="-2.51914">
        <ele>-3.5</ele>
        <time>2016-07-06T13:17:12Z</time>
      </trkpt>
      <trkpt lat="48.60374" lon="-2.51926">
        <ele>-3.5</ele>
        <time>2016-07-06T13:17:19Z</time>
      </trkpt>
      <trkpt lat="48.60369" lon="-2.51938">
        <ele>-4.5</ele>
        <time>2016-07-06T13:17:26Z</time>
      </trkpt>
      <trkpt lat="48.60366" lon="-2.51953">
        <ele>-4.8</ele>
        <time>2016-07-06T13:17:33Z</time>
      </trkpt>
      <trkpt lat="48.60362" lon="-2.51967">
        <ele>-4.4</ele>
        <time>2016-07-06T13:17:40Z</time>
      </trkpt>
      <trkpt lat="48.60358" lon="-2.5198">
        <ele>-3.9</ele>
        <time>2016-07-06T13:17:47Z</time>
      </trkpt>
      <trkpt lat="48.60353" lon="-2.51994">
        <ele>-3.7</ele>
        <time>2016-07-06T13:17:55Z</time>
      </trkpt>
      <trkpt lat="48.60349" lon="-2.52008">
        <ele>-3.4</ele>
        <time>2016-07-06T13:18:02Z</time>
      </trkpt>
      <trkpt lat="48.60344" lon="-2.5202">
        <ele>-4.1</ele>
        <time>2016-07-06T13:18:09Z</time>
      </trkpt>
      <trkpt lat="48.60338" lon="-2.52032">
        <ele>-3.8</ele>
        <time>2016-07-06T13:18:16Z</time>
      </trkpt>
      <trkpt lat="48.60334" lon="-2.52045">
        <ele>-4.7</ele>
        <time>2016-07-06T13:18:23Z</time>
      </trkpt>
      <trkpt lat="48.60329" lon="-2.52059">
        <ele>-4.5</ele>
        <time>2016-07-06T13:18:30Z</time>
      </trkpt>
      <trkpt lat="48.60324" lon="-2.5207">
        <ele>-4.6</ele>
        <time>2016-07-06T13:18:37Z</time>
      </trkpt>
      <trkpt lat="48.6032" lon="-2.52084">
        <ele>-4.6</ele>
        <time>2016-07-06T13:18:44Z</time>
      </trkpt>
      <trkpt lat="48.60316" lon="-2.52096">
        <ele>-4.1</ele>
        <time>2016-07-06T13:18:51Z</time>
      </trkpt>
      <trkpt lat="48.60311" lon="-2.52109">
        <ele>-3.9</ele>
        <time>2016-07-06T13:19:37Z</time>
      </trkpt>
      <trkpt lat="48.60306" lon="-2.52123">
        <ele>-2.7</ele>
        <time>2016-07-06T13:19:44Z</time>
      </trkpt>
      <trkpt lat="48.60303" lon="-2.52136">
        <ele>-3.1</ele>
        <time>2016-07-06T13:19:51Z</time>
      </trkpt>
      <trkpt lat="48.60299" lon="-2.52149">
        <ele>-3.9</ele>
        <time>2016-07-06T13:19:58Z</time>
      </trkpt>
      <trkpt lat="48.60296" lon="-2.52163">
        <ele>-3.6</ele>
        <time>2016-07-06T13:20:05Z</time>
      </trkpt>
      <trkpt lat="48.60293" lon="-2.52176">
        <ele>-2.6</ele>
        <time>2016-07-06T13:20:17Z</time>
      </trkpt>
      <trkpt lat="48.6029" lon="-2.52189">
        <ele>-3.8</ele>
        <time>2016-07-06T13:20:24Z</time>
      </trkpt>
      <trkpt lat="48.60286" lon="-2.52202">
        <ele>-4.5</ele>
        <time>2016-07-06T13:20:31Z</time>
      </trkpt>
      <trkpt lat="48.60282" lon="-2.52215">
        <ele>-3.6</ele>
        <time>2016-07-06T13:20:39Z</time>
      </trkpt>
      <trkpt lat="48.60275" lon="-2.52225">
        <ele>-4.8</ele>
        <time>2016-07-06T13:20:47Z</time>
      </trkpt>
      <trkpt lat="48.60269" lon="-2.52237">
        <ele>-4.1</ele>
        <time>2016-07-06T13:21:25Z</time>
      </trkpt>
      <trkpt lat="48.60264" lon="-2.52248">
        <ele>-4.6</ele>
        <time>2016-07-06T13:21:32Z</time>
      </trkpt>
      <trkpt lat="48.60258" lon="-2.52259">
        <ele>-3.8</ele>
        <time>2016-07-06T13:21:39Z</time>
      </trkpt>
      <trkpt lat="48.60251" lon="-2.52271">
        <ele>-3.2</ele>
        <time>2016-07-06T13:21:47Z</time>
      </trkpt>
      <trkpt lat="48.60246" lon="-2.52284">
        <ele>-3.2</ele>
        <time>2016-07-06T13:21:55Z</time>
      </trkpt>
      <trkpt lat="48.60241" lon="-2.52297">
        <ele>-4.4</ele>
        <time>2016-07-06T13:22:03Z</time>
      </trkpt>
      <trkpt lat="48.60237" lon="-2.52309">
        <ele>-3.7</ele>
        <time>2016-07-06T13:22:10Z</time>
      </trkpt>
      <trkpt lat="48.60231" lon="-2.52321">
        <ele>-4</ele>
        <time>2016-07-06T13:22:17Z</time>
      </trkpt>
      <trkpt lat="48.60227" lon="-2.52334">
        <ele>-3.8</ele>
        <time>2016-07-06T13:22:25Z</time>
      </trkpt>
      <trkpt lat="48.60222" lon="-2.52346">
        <ele>-3.2</ele>
        <time>2016-07-06T13:22:32Z</time>
      </trkpt>
      <trkpt lat="48.60218" lon="-2.52359">
        <ele>-3.9</ele>
        <time>2016-07-06T13:22:40Z</time>
      </trkpt>
      <trkpt lat="48.60213" lon="-2.52371">
        <ele>-4.2</ele>
        <time>2016-07-06T13:22:47Z</time>
      </trkpt>
      <trkpt lat="48.60209" lon="-2.52384">
        <ele>-3.3</ele>
        <time>2016-07-06T13:22:54Z</time>
      </trkpt>
      <trkpt lat="48.60205" lon="-2.52397">
        <ele>-4</ele>
        <time>2016-07-06T13:23:01Z</time>
      </trkpt>
      <trkpt lat="48.602" lon="-2.52409">
        <ele>-2.9</ele>
        <time>2016-07-06T13:23:38Z</time>
      </trkpt>
      <trkpt lat="48.60193" lon="-2.52421">
        <ele>-2.5</ele>
        <time>2016-07-06T13:23:46Z</time>
      </trkpt>
      <trkpt lat="48.60189" lon="-2.52433">
        <ele>-3.5</ele>
        <time>2016-07-06T13:23:53Z</time>
      </trkpt>
      <trkpt lat="48.60185" lon="-2.52446">
        <ele>-3.2</ele>
        <time>2016-07-06T13:24:00Z</time>
      </trkpt>
      <trkpt lat="48.60181" lon="-2.52459">
        <ele>-3.2</ele>
        <time>2016-07-06T13:24:08Z</time>
      </trkpt>
      <trkpt lat="48.60177" lon="-2.52472">
        <ele>-3.1</ele>
        <time>2016-07-06T13:24:15Z</time>
      </trkpt>
      <trkpt lat="48.60173" lon="-2.52485">
        <ele>-2.8</ele>
        <time>2016-07-06T13:24:23Z</time>
      </trkpt>
      <trkpt lat="48.60168" lon="-2.52498">
        <ele>-3.4</ele>
        <time>2016-07-06T13:24:31Z</time>
      </trkpt>
      <trkpt lat="48.60164" lon="-2.52511">
        <ele>-2.8</ele>
        <time>2016-07-06T13:24:38Z</time>
      </trkpt>
      <trkpt lat="48.60159" lon="-2.52525">
        <ele>-3.1</ele>
        <time>2016-07-06T13:24:46Z</time>
      </trkpt>
      <trkpt lat="48.60156" lon="-2.52538">
        <ele>-3.4</ele>
        <time>2016-07-06T13:24:54Z</time>
      </trkpt>
      <trkpt lat="48.60151" lon="-2.52552">
        <ele>-3.2</ele>
        <time>2016-07-06T13:25:02Z</time>
      </trkpt>
      <trkpt lat="48.60147" lon="-2.52565">
        <ele>-2.8</ele>
        <time>2016-07-06T13:25:17Z</time>
      </trkpt>
      <trkpt lat="48.60143" lon="-2.52578">
        <ele>-3.5</ele>
        <time>2016-07-06T13:25:23Z</time>
      </trkpt>
      <trkpt lat="48.60138" lon="-2.52591">
        <ele>-3.5</ele>
        <time>2016-07-06T13:25:30Z</time>
      </trkpt>
      <trkpt lat="48.60134" lon="-2.52605">
        <ele>-2.2</ele>
        <time>2016-07-06T13:25:37Z</time>
      </trkpt>
      <trkpt lat="48.60129" lon="-2.52618">
        <ele>-2.5</ele>
        <time>2016-07-06T13:26:05Z</time>
      </trkpt>
      <trkpt lat="48.60125" lon="-2.52631">
        <ele>-2.8</ele>
        <time>2016-07-06T13:26:12Z</time>
      </trkpt>
      <trkpt lat="48.6012" lon="-2.52644">
        <ele>-3.3</ele>
        <time>2016-07-06T13:26:19Z</time>
      </trkpt>
      <trkpt lat="48.60116" lon="-2.52656">
        <ele>-3</ele>
        <time>2016-07-06T13:26:26Z</time>
      </trkpt>
      <trkpt lat="48.60112" lon="-2.52669">
        <ele>-2.8</ele>
        <time>2016-07-06T13:26:33Z</time>
      </trkpt>
      <trkpt lat="48.60108" lon="-2.52683">
        <ele>-1.8</ele>
        <time>2016-07-06T13:26:46Z</time>
      </trkpt>
      <trkpt lat="48.60103" lon="-2.52697">
        <ele>-1.4</ele>
        <time>2016-07-06T13:27:04Z</time>
      </trkpt>
      <trkpt lat="48.60099" lon="-2.52711">
        <ele>-2.3</ele>
        <time>2016-07-06T13:27:11Z</time>
      </trkpt>
      <trkpt lat="48.60094" lon="-2.52725">
        <ele>-2.4</ele>
        <time>2016-07-06T13:27:18Z</time>
      </trkpt>
      <trkpt lat="48.6009" lon="-2.52738">
        <ele>-1.7</ele>
        <time>2016-07-06T13:27:25Z</time>
      </trkpt>
      <trkpt lat="48.60086" lon="-2.52751">
        <ele>-2.2</ele>
        <time>2016-07-06T13:27:32Z</time>
      </trkpt>
      <trkpt lat="48.6008" lon="-2.52764">
        <ele>-2.7</ele>
        <time>2016-07-06T13:27:40Z</time>
      </trkpt>
      <trkpt lat="48.60076" lon="-2.52778">
        <ele>-1.7</ele>
        <time>2016-07-06T13:28:38Z</time>
      </trkpt>
      <trkpt lat="48.60072" lon="-2.5279">
        <ele>-2.1</ele>
        <time>2016-07-06T13:28:45Z</time>
      </trkpt>
      <trkpt lat="48.60067" lon="-2.52803">
        <ele>-2.2</ele>
        <time>2016-07-06T13:28:53Z</time>
      </trkpt>
      <trkpt lat="48.60062" lon="-2.52814">
        <ele>-1.7</ele>
        <time>2016-07-06T13:29:00Z</time>
      </trkpt>
      <trkpt lat="48.60058" lon="-2.52827">
        <ele>-1.9</ele>
        <time>2016-07-06T13:29:07Z</time>
      </trkpt>
      <trkpt lat="48.60053" lon="-2.5284">
        <ele>-1.9</ele>
        <time>2016-07-06T13:29:14Z</time>
      </trkpt>
      <trkpt lat="48.60049" lon="-2.52852">
        <ele>-1.1</ele>
        <time>2016-07-06T13:29:21Z</time>
      </trkpt>
      <trkpt lat="48.60046" lon="-2.52865">
        <ele>-1.9</ele>
        <time>2016-07-06T13:29:28Z</time>
      </trkpt>
      <trkpt lat="48.60042" lon="-2.52879">
        <ele>-1.6</ele>
        <time>2016-07-06T13:29:35Z</time>
      </trkpt>
      <trkpt lat="48.60038" lon="-2.52892">
        <ele>-1.7</ele>
        <time>2016-07-06T13:29:42Z</time>
      </trkpt>
      <trkpt lat="48.60036" lon="-2.52907">
        <ele>-1.8</ele>
        <time>2016-07-06T13:29:50Z</time>
      </trkpt>
      <trkpt lat="48.60032" lon="-2.5292">
        <ele>-1.5</ele>
        <time>2016-07-06T13:29:57Z</time>
      </trkpt>
      <trkpt lat="48.60029" lon="-2.52933">
        <ele>-1.5</ele>
        <time>2016-07-06T13:30:05Z</time>
      </trkpt>
      <trkpt lat="48.60025" lon="-2.52947">
        <ele>-2.1</ele>
        <time>2016-07-06T13:30:13Z</time>
      </trkpt>
      <trkpt lat="48.60022" lon="-2.5296">
        <ele>-2.2</ele>
        <time>2016-07-06T13:30:20Z</time>
      </trkpt>
      <trkpt lat="48.60018" lon="-2.52974">
        <ele>-1.6</ele>
        <time>2016-07-06T13:30:44Z</time>
      </trkpt>
      <trkpt lat="48.60013" lon="-2.52987">
        <ele>-1.9</ele>
        <time>2016-07-06T13:30:51Z</time>
      </trkpt>
      <trkpt lat="48.60008" lon="-2.53001">
        <ele>-1.8</ele>
        <time>2016-07-06T13:30:56Z</time>
      </trkpt>
      <trkpt lat="48.60003" lon="-2.53013">
        <ele>-2.3</ele>
        <time>2016-07-06T13:31:04Z</time>
      </trkpt>
      <trkpt lat="48.59998" lon="-2.53026">
        <ele>-2</ele>
        <time>2016-07-06T13:31:11Z</time>
      </trkpt>
      <trkpt lat="48.59994" lon="-2.5304">
        <ele>-1.9</ele>
        <time>2016-07-06T13:31:17Z</time>
      </trkpt>
      <trkpt lat="48.5999" lon="-2.53054">
        <ele>-1.5</ele>
        <time>2016-07-06T13:31:24Z</time>
      </trkpt>
      <trkpt lat="48.59986" lon="-2.53067">
        <ele>-1.4</ele>
        <time>2016-07-06T13:31:32Z</time>
      </trkpt>
      <trkpt lat="48.59984" lon="-2.5308">
        <ele>-1.9</ele>
        <time>2016-07-06T13:31:43Z</time>
      </trkpt>
      <trkpt lat="48.5998" lon="-2.53095">
        <ele>-1.5</ele>
        <time>2016-07-06T13:31:51Z</time>
      </trkpt>
      <trkpt lat="48.59975" lon="-2.53108">
        <ele>-1.8</ele>
        <time>2016-07-06T13:31:59Z</time>
      </trkpt>
      <trkpt lat="48.5997" lon="-2.53122">
        <ele>-1.8</ele>
        <time>2016-07-06T13:32:07Z</time>
      </trkpt>
      <trkpt lat="48.59965" lon="-2.53134">
        <ele>-1.5</ele>
        <time>2016-07-06T13:32:14Z</time>
      </trkpt>
      <trkpt lat="48.59961" lon="-2.53146">
        <ele>-1.4</ele>
        <time>2016-07-06T13:32:21Z</time>
      </trkpt>
      <trkpt lat="48.59956" lon="-2.5316">
        <ele>-1</ele>
        <time>2016-07-06T13:32:29Z</time>
      </trkpt>
      <trkpt lat="48.59952" lon="-2.53173">
        <ele>-1.6</ele>
        <time>2016-07-06T13:32:37Z</time>
      </trkpt>
      <trkpt lat="48.59947" lon="-2.53185">
        <ele>-0.7</ele>
        <time>2016-07-06T13:32:44Z</time>
      </trkpt>
      <trkpt lat="48.59943" lon="-2.53197">
        <ele>-0.6</ele>
        <time>2016-07-06T13:32:51Z</time>
      </trkpt>
      <trkpt lat="48.59938" lon="-2.5321">
        <ele>-0.9</ele>
        <time>2016-07-06T13:32:58Z</time>
      </trkpt>
      <trkpt lat="48.59933" lon="-2.53222">
        <ele>-0.9</ele>
        <time>2016-07-06T13:33:05Z</time>
      </trkpt>
      <trkpt lat="48.59928" lon="-2.53235">
        <ele>-1</ele>
        <time>2016-07-06T13:33:12Z</time>
      </trkpt>
      <trkpt lat="48.59923" lon="-2.53248">
        <ele>-0.2</ele>
        <time>2016-07-06T13:33:20Z</time>
      </trkpt>
      <trkpt lat="48.59919" lon="-2.5326">
        <ele>-0.9</ele>
        <time>2016-07-06T13:33:49Z</time>
      </trkpt>
      <trkpt lat="48.59914" lon="-2.53274">
        <ele>-0.2</ele>
        <time>2016-07-06T13:33:56Z</time>
      </trkpt>
      <trkpt lat="48.59909" lon="-2.53287">
        <ele>-0.2</ele>
        <time>2016-07-06T13:34:03Z</time>
      </trkpt>
      <trkpt lat="48.59903" lon="-2.533">
        <ele>-0.3</ele>
        <time>2016-07-06T13:34:10Z</time>
      </trkpt>
      <trkpt lat="48.59898" lon="-2.53313">
        <ele>0.6</ele>
        <time>2016-07-06T13:34:17Z</time>
      </trkpt>
      <trkpt lat="48.59893" lon="-2.53325">
        <time>2016-07-06T13:34:24Z</time>
      </trkpt>
      <trkpt lat="48.59888" lon="-2.53337">
        <ele>0.1</ele>
        <time>2016-07-06T13:34:31Z</time>
      </trkpt>
      <trkpt lat="48.59882" lon="-2.5335">
        <ele>1</ele>
        <time>2016-07-06T13:34:38Z</time>
      </trkpt>
      <trkpt lat="48.59877" lon="-2.53362">
        <ele>0.3</ele>
        <time>2016-07-06T13:34:46Z</time>
      </trkpt>
      <trkpt lat="48.59872" lon="-2.53375">
        <ele>0.3</ele>
        <time>2016-07-06T13:34:53Z</time>
      </trkpt>
      <trkpt lat="48.59867" lon="-2.53386">
        <ele>0.6</ele>
        <time>2016-07-06T13:35:00Z</time>
      </trkpt>
      <trkpt lat="48.59862" lon="-2.53398">
        <ele>0.6</ele>
        <time>2016-07-06T13:35:07Z</time>
      </trkpt>
      <trkpt lat="48.59857" lon="-2.5341">
        <ele>0.9</ele>
        <time>2016-07-06T13:35:14Z</time>
      </trkpt>
      <trkpt lat="48.59851" lon="-2.53421">
        <ele>1.1</ele>
        <time>2016-07-06T13:35:23Z</time>
      </trkpt>
      <trkpt lat="48.59847" lon="-2.53433">
        <ele>0.7</ele>
        <time>2016-07-06T13:35:29Z</time>
      </trkpt>
      <trkpt lat="48.59841" lon="-2.53446">
        <ele>1.7</ele>
        <time>2016-07-06T13:35:36Z</time>
      </trkpt>
      <trkpt lat="48.59837" lon="-2.53457">
        <ele>1.4</ele>
        <time>2016-07-06T13:35:43Z</time>
      </trkpt>
      <trkpt lat="48.59832" lon="-2.53469">
        <ele>1.4</ele>
        <time>2016-07-06T13:35:50Z</time>
      </trkpt>
      <trkpt lat="48.59827" lon="-2.53482">
        <ele>0.9</ele>
        <time>2016-07-06T13:35:57Z</time>
      </trkpt>
      <trkpt lat="48.59821" lon="-2.53495">
        <ele>1.3</ele>
        <time>2016-07-06T13:36:04Z</time>
      </trkpt>
      <trkpt lat="48.59816" lon="-2.53506">
        <ele>2.1</ele>
        <time>2016-07-06T13:36:11Z</time>
      </trkpt>
      <trkpt lat="48.59811" lon="-2.53518">
        <ele>1.9</ele>
        <time>2016-07-06T13:36:37Z</time>
      </trkpt>
      <trkpt lat="48.59806" lon="-2.53531">
        <ele>1.3</ele>
        <time>2016-07-06T13:36:45Z</time>
      </trkpt>
      <trkpt lat="48.598" lon="-2.53543">
        <ele>1.6</ele>
        <time>2016-07-06T13:36:52Z</time>
      </trkpt>
      <trkpt lat="48.59795" lon="-2.53555">
        <ele>2.4</ele>
        <time>2016-07-06T13:36:59Z</time>
      </trkpt>
      <trkpt lat="48.59789" lon="-2.53566">
        <ele>2.4</ele>
        <time>2016-07-06T13:37:06Z</time>
      </trkpt>
      <trkpt lat="48.59783" lon="-2.53577">
        <ele>2.8</ele>
        <time>2016-07-06T13:37:13Z</time>
      </trkpt>
      <trkpt lat="48.59778" lon="-2.5359">
        <ele>2.5</ele>
        <time>2016-07-06T13:37:20Z</time>
      </trkpt>
      <trkpt lat="48.59771" lon="-2.53601">
        <ele>2.2</ele>
        <time>2016-07-06T13:37:27Z</time>
      </trkpt>
      <trkpt lat="48.59766" lon="-2.53612">
        <ele>2.1</ele>
        <time>2016-07-06T13:37:34Z</time>
      </trkpt>
      <trkpt lat="48.59759" lon="-2.53624">
        <ele>2.1</ele>
        <time>2016-07-06T13:37:41Z</time>
      </trkpt>
      <trkpt lat="48.59753" lon="-2.53634">
        <ele>2.6</ele>
        <time>2016-07-06T13:37:48Z</time>
      </trkpt>
      <trkpt lat="48.59746" lon="-2.53645">
        <ele>2.8</ele>
        <time>2016-07-06T13:37:55Z</time>
      </trkpt>
      <trkpt lat="48.59739" lon="-2.53656">
        <ele>3.3</ele>
        <time>2016-07-06T13:38:02Z</time>
      </trkpt>
      <trkpt lat="48.59733" lon="-2.53667">
        <ele>3.6</ele>
        <time>2016-07-06T13:38:09Z</time>
      </trkpt>
      <trkpt lat="48.59728" lon="-2.53679">
        <ele>3.5</ele>
        <time>2016-07-06T13:38:16Z</time>
      </trkpt>
      <trkpt lat="48.59721" lon="-2.53688">
        <ele>3.5</ele>
        <time>2016-07-06T13:38:25Z</time>
      </trkpt>
      <trkpt lat="48.59715" lon="-2.53699">
        <ele>3.6</ele>
        <time>2016-07-06T13:38:32Z</time>
      </trkpt>
      <trkpt lat="48.59709" lon="-2.53711">
        <ele>3.6</ele>
        <time>2016-07-06T13:38:41Z</time>
      </trkpt>
      <trkpt lat="48.59705" lon="-2.53725">
        <ele>3.8</ele>
        <time>2016-07-06T13:38:49Z</time>
      </trkpt>
      <trkpt lat="48.59696" lon="-2.53729">
        <ele>4.8</ele>
        <time>2016-07-06T13:38:59Z</time>
      </trkpt>
      <trkpt lat="48.59687" lon="-2.53725">
        <ele>6.7</ele>
        <time>2016-07-06T13:39:08Z</time>
      </trkpt>
      <trkpt lat="48.59678" lon="-2.53726">
        <ele>9.7</ele>
        <time>2016-07-06T13:39:22Z</time>
      </trkpt>
      <trkpt lat="48.59671" lon="-2.53735">
        <ele>11</ele>
        <time>2016-07-06T13:39:33Z</time>
      </trkpt>
      <trkpt lat="48.59662" lon="-2.53734">
        <ele>12.5</ele>
        <time>2016-07-06T13:39:43Z</time>
      </trkpt>
      <trkpt lat="48.59664" lon="-2.53748">
        <ele>13.7</ele>
        <time>2016-07-06T13:39:58Z</time>
      </trkpt>
      <trkpt lat="48.59661" lon="-2.53761">
        <ele>14.8</ele>
        <time>2016-07-06T13:51:58Z</time>
      </trkpt>
      <trkpt lat="48.59662" lon="-2.53776">
        <ele>14.4</ele>
        <time>2016-07-06T13:52:08Z</time>
      </trkpt>
      <trkpt lat="48.59656" lon="-2.53787">
        <ele>18.7</ele>
        <time>2016-07-06T13:52:32Z</time>
      </trkpt>
      <trkpt lat="48.59653" lon="-2.53801">
        <ele>23.8</ele>
        <time>2016-07-06T13:53:17Z</time>
      </trkpt>
      <trkpt lat="48.59652" lon="-2.53815">
        <ele>25.5</ele>
        <time>2016-07-06T13:53:29Z</time>
      </trkpt>
      <trkpt lat="48.59651" lon="-2.5383">
        <ele>26.1</ele>
        <time>2016-07-06T13:53:38Z</time>
      </trkpt>
      <trkpt lat="48.59653" lon="-2.53844">
        <ele>26.1</ele>
        <time>2016-07-06T13:53:46Z</time>
      </trkpt>
      <trkpt lat="48.59653" lon="-2.53858">
        <ele>26.8</ele>
        <time>2016-07-06T13:53:56Z</time>
      </trkpt>
      <trkpt lat="48.59655" lon="-2.53871">
        <ele>27</ele>
        <time>2016-07-06T13:54:07Z</time>
      </trkpt>
      <trkpt lat="48.59654" lon="-2.53886">
        <ele>27</ele>
        <time>2016-07-06T13:54:15Z</time>
      </trkpt>
      <trkpt lat="48.59651" lon="-2.539">
        <ele>27.4</ele>
        <time>2016-07-06T13:54:24Z</time>
      </trkpt>
      <trkpt lat="48.5965" lon="-2.53916">
        <ele>27.8</ele>
        <time>2016-07-06T13:54:33Z</time>
      </trkpt>
      <trkpt lat="48.59651" lon="-2.53929">
        <ele>28.7</ele>
        <time>2016-07-06T13:54:42Z</time>
      </trkpt>
      <trkpt lat="48.59655" lon="-2.53942">
        <ele>28.8</ele>
        <time>2016-07-06T13:54:51Z</time>
      </trkpt>
      <trkpt lat="48.5966" lon="-2.53953">
        <ele>28.8</ele>
        <time>2016-07-06T13:54:58Z</time>
      </trkpt>
      <trkpt lat="48.5966" lon="-2.53968">
        <ele>29.3</ele>
        <time>2016-07-06T13:55:04Z</time>
      </trkpt>
      <trkpt lat="48.59666" lon="-2.5398">
        <ele>29.6</ele>
        <time>2016-07-06T13:55:12Z</time>
      </trkpt>
      <trkpt lat="48.59671" lon="-2.53993">
        <ele>29.7</ele>
        <time>2016-07-06T13:55:20Z</time>
      </trkpt>
      <trkpt lat="48.59673" lon="-2.54007">
        <ele>30.8</ele>
        <time>2016-07-06T13:55:29Z</time>
      </trkpt>
      <trkpt lat="48.59676" lon="-2.5402">
        <ele>30.7</ele>
        <time>2016-07-06T13:55:36Z</time>
      </trkpt>
      <trkpt lat="48.5968" lon="-2.54032">
        <ele>29.9</ele>
        <time>2016-07-06T13:55:44Z</time>
      </trkpt>
      <trkpt lat="48.59686" lon="-2.54044">
        <ele>30.7</ele>
        <time>2016-07-06T13:55:52Z</time>
      </trkpt>
      <trkpt lat="48.59691" lon="-2.54058">
        <ele>30.3</ele>
        <time>2016-07-06T13:56:00Z</time>
      </trkpt>
      <trkpt lat="48.59694" lon="-2.5407">
        <ele>30.3</ele>
        <time>2016-07-06T13:56:08Z</time>
      </trkpt>
      <trkpt lat="48.59697" lon="-2.54084">
        <ele>31.3</ele>
        <time>2016-07-06T13:56:17Z</time>
      </trkpt>
      <trkpt lat="48.59699" lon="-2.54098">
        <ele>32.9</ele>
        <time>2016-07-06T13:56:26Z</time>
      </trkpt>
      <trkpt lat="48.59698" lon="-2.54112">
        <ele>33.8</ele>
        <time>2016-07-06T13:57:05Z</time>
      </trkpt>
      <trkpt lat="48.59695" lon="-2.54126">
        <ele>37.3</ele>
        <time>2016-07-06T13:57:28Z</time>
      </trkpt>
      <trkpt lat="48.59694" lon="-2.5414">
        <ele>41.2</ele>
        <time>2016-07-06T13:58:24Z</time>
      </trkpt>
      <trkpt lat="48.59693" lon="-2.54154">
        <ele>48.5</ele>
        <time>2016-07-06T13:59:05Z</time>
      </trkpt>
      <trkpt lat="48.59687" lon="-2.54164">
        <ele>49.4</ele>
        <time>2016-07-06T13:59:33Z</time>
      </trkpt>
      <trkpt lat="48.59679" lon="-2.54171">
        <ele>56</ele>
        <time>2016-07-06T14:00:40Z</time>
      </trkpt>
      <trkpt lat="48.59683" lon="-2.54184">
        <ele>57.3</ele>
        <time>2016-07-06T14:00:49Z</time>
      </trkpt>
      <trkpt lat="48.5968" lon="-2.54197">
        <ele>59.7</ele>
        <time>2016-07-06T14:01:07Z</time>
      </trkpt>
      <trkpt lat="48.59678" lon="-2.54211">
        <ele>61</ele>
        <time>2016-07-06T14:01:23Z</time>
      </trkpt>
      <trkpt lat="48.59681" lon="-2.54224">
        <ele>62.6</ele>
        <time>2016-07-06T14:02:31Z</time>
      </trkpt>
      <trkpt lat="48.59685" lon="-2.54238">
        <ele>64.1</ele>
        <time>2016-07-06T14:02:41Z</time>
      </trkpt>
      <trkpt lat="48.59688" lon="-2.54251">
        <ele>65.1</ele>
        <time>2016-07-06T14:02:51Z</time>
      </trkpt>
      <trkpt lat="48.59689" lon="-2.54265">
        <ele>66.4</ele>
        <time>2016-07-06T14:03:07Z</time>
      </trkpt>
      <trkpt lat="48.59693" lon="-2.54278">
        <ele>68.4</ele>
        <time>2016-07-06T14:03:21Z</time>
      </trkpt>
      <trkpt lat="48.59697" lon="-2.5429">
        <ele>68</ele>
        <time>2016-07-06T14:04:02Z</time>
      </trkpt>
      <trkpt lat="48.59701" lon="-2.54305">
        <ele>67.9</ele>
        <time>2016-07-06T14:04:10Z</time>
      </trkpt>
      <trkpt lat="48.59704" lon="-2.5432">
        <ele>68.5</ele>
        <time>2016-07-06T14:04:18Z</time>
      </trkpt>
      <trkpt lat="48.59705" lon="-2.54335">
        <ele>67.7</ele>
        <time>2016-07-06T14:04:34Z</time>
      </trkpt>
      <trkpt lat="48.59705" lon="-2.5435">
        <ele>68.6</ele>
        <time>2016-07-06T14:04:41Z</time>
      </trkpt>
      <trkpt lat="48.59706" lon="-2.54364">
        <ele>69.4</ele>
        <time>2016-07-06T14:04:49Z</time>
      </trkpt>
      <trkpt lat="48.59704" lon="-2.54378">
        <ele>71.3</ele>
        <time>2016-07-06T14:05:07Z</time>
      </trkpt>
      <trkpt lat="48.59707" lon="-2.54391">
        <ele>73.4</ele>
        <time>2016-07-06T14:05:21Z</time>
      </trkpt>
      <trkpt lat="48.59713" lon="-2.54403">
        <ele>73.2</ele>
        <time>2016-07-06T14:05:30Z</time>
      </trkpt>
      <trkpt lat="48.59715" lon="-2.54417">
        <ele>73.1</ele>
        <time>2016-07-06T14:05:41Z</time>
      </trkpt>
      <trkpt lat="48.59716" lon="-2.54431">
        <ele>72.2</ele>
        <time>2016-07-06T14:05:49Z</time>
      </trkpt>
      <trkpt lat="48.59718" lon="-2.54445">
        <ele>71.6</ele>
        <time>2016-07-06T14:05:59Z</time>
      </trkpt>
      <trkpt lat="48.59722" lon="-2.54457">
        <ele>71.3</ele>
        <time>2016-07-06T14:06:07Z</time>
      </trkpt>
      <trkpt lat="48.59727" lon="-2.54468">
        <ele>71</ele>
        <time>2016-07-06T14:06:15Z</time>
      </trkpt>
      <trkpt lat="48.5973" lon="-2.54482">
        <ele>69.4</ele>
        <time>2016-07-06T14:07:31Z</time>
      </trkpt>
      <trkpt lat="48.5973" lon="-2.54496">
        <ele>67.4</ele>
        <time>2016-07-06T14:07:44Z</time>
      </trkpt>
      <trkpt lat="48.59731" lon="-2.5451">
        <ele>66.3</ele>
        <time>2016-07-06T14:07:56Z</time>
      </trkpt>
      <trkpt lat="48.59733" lon="-2.54523">
        <ele>65.2</ele>
        <time>2016-07-06T14:08:04Z</time>
      </trkpt>
      <trkpt lat="48.59735" lon="-2.54538">
        <ele>64.4</ele>
        <time>2016-07-06T14:08:13Z</time>
      </trkpt>
      <trkpt lat="48.59738" lon="-2.54551">
        <ele>62.9</ele>
        <time>2016-07-06T14:08:22Z</time>
      </trkpt>
      <trkpt lat="48.59739" lon="-2.54564">
        <ele>61.2</ele>
        <time>2016-07-06T14:08:32Z</time>
      </trkpt>
      <trkpt lat="48.59739" lon="-2.54578">
        <ele>60.2</ele>
        <time>2016-07-06T14:08:40Z</time>
      </trkpt>
      <trkpt lat="48.59742" lon="-2.54593">
        <ele>59.5</ele>
        <time>2016-07-06T14:10:33Z</time>
      </trkpt>
      <trkpt lat="48.5974" lon="-2.54607">
        <ele>57.1</ele>
        <time>2016-07-06T14:10:45Z</time>
      </trkpt>
      <trkpt lat="48.59742" lon="-2.54621">
        <ele>56</ele>
        <time>2016-07-06T14:10:55Z</time>
      </trkpt>
      <trkpt lat="48.59742" lon="-2.54635">
        <ele>54.5</ele>
        <time>2016-07-06T14:11:04Z</time>
      </trkpt>
      <trkpt lat="48.59746" lon="-2.54649">
        <ele>53.4</ele>
        <time>2016-07-06T14:11:13Z</time>
      </trkpt>
      <trkpt lat="48.59747" lon="-2.54664">
        <ele>51.2</ele>
        <time>2016-07-06T14:11:25Z</time>
      </trkpt>
      <trkpt lat="48.59745" lon="-2.54678">
        <ele>50.6</ele>
        <time>2016-07-06T14:11:37Z</time>
      </trkpt>
      <trkpt lat="48.59743" lon="-2.54692">
        <ele>49.4</ele>
        <time>2016-07-06T14:11:44Z</time>
      </trkpt>
      <trkpt lat="48.5974" lon="-2.54705">
        <ele>48</ele>
        <time>2016-07-06T14:11:53Z</time>
      </trkpt>
      <trkpt lat="48.59736" lon="-2.5472">
        <ele>46.8</ele>
        <time>2016-07-06T14:12:01Z</time>
      </trkpt>
      <trkpt lat="48.59733" lon="-2.54734">
        <ele>46.1</ele>
        <time>2016-07-06T14:12:08Z</time>
      </trkpt>
      <trkpt lat="48.5973" lon="-2.54748">
        <ele>45.6</ele>
        <time>2016-07-06T14:12:16Z</time>
      </trkpt>
      <trkpt lat="48.59727" lon="-2.54762">
        <ele>44.9</ele>
        <time>2016-07-06T14:12:25Z</time>
      </trkpt>
      <trkpt lat="48.59728" lon="-2.54776">
        <ele>45.2</ele>
        <time>2016-07-06T14:12:34Z</time>
      </trkpt>
      <trkpt lat="48.59734" lon="-2.54788">
        <ele>44.7</ele>
        <time>2016-07-06T14:12:45Z</time>
      </trkpt>
      <trkpt lat="48.59738" lon="-2.54801">
        <ele>44.3</ele>
        <time>2016-07-06T14:12:55Z</time>
      </trkpt>
      <trkpt lat="48.59743" lon="-2.54813">
        <ele>44.1</ele>
        <time>2016-07-06T14:13:15Z</time>
      </trkpt>
      <trkpt lat="48.5975" lon="-2.54826">
        <ele>43.8</ele>
        <time>2016-07-06T14:13:24Z</time>
      </trkpt>
      <trkpt lat="48.59758" lon="-2.54833">
        <ele>43.7</ele>
        <time>2016-07-06T14:13:28Z</time>
      </trkpt>
      <trkpt lat="48.59767" lon="-2.54842">
        <ele>42.8</ele>
        <time>2016-07-06T14:13:36Z</time>
      </trkpt>
      <trkpt lat="48.59776" lon="-2.5485">
        <ele>42.2</ele>
        <time>2016-07-06T14:13:45Z</time>
      </trkpt>
      <trkpt lat="48.59784" lon="-2.54856">
        <ele>40.9</ele>
        <time>2016-07-06T14:13:55Z</time>
      </trkpt>
      <trkpt lat="48.59791" lon="-2.54865">
        <ele>39.4</ele>
        <time>2016-07-06T14:14:08Z</time>
      </trkpt>
      <trkpt lat="48.59796" lon="-2.54879">
        <ele>39</ele>
        <time>2016-07-06T14:14:16Z</time>
      </trkpt>
      <trkpt lat="48.59802" lon="-2.5489">
        <ele>38</ele>
        <time>2016-07-06T14:14:25Z</time>
      </trkpt>
      <trkpt lat="48.59806" lon="-2.54903">
        <ele>37.6</ele>
        <time>2016-07-06T14:14:32Z</time>
      </trkpt>
      <trkpt lat="48.59808" lon="-2.54917">
        <ele>37.3</ele>
        <time>2016-07-06T14:14:39Z</time>
      </trkpt>
      <trkpt lat="48.59816" lon="-2.54928">
        <ele>36.6</ele>
        <time>2016-07-06T14:14:51Z</time>
      </trkpt>
      <trkpt lat="48.59823" lon="-2.54937">
        <ele>35.6</ele>
        <time>2016-07-06T14:14:58Z</time>
      </trkpt>
      <trkpt lat="48.59827" lon="-2.5495">
        <ele>34.7</ele>
        <time>2016-07-06T14:15:17Z</time>
      </trkpt>
      <trkpt lat="48.59831" lon="-2.54963">
        <ele>33</ele>
        <time>2016-07-06T14:15:26Z</time>
      </trkpt>
      <trkpt lat="48.59836" lon="-2.54974">
        <ele>31.2</ele>
        <time>2016-07-06T14:15:44Z</time>
      </trkpt>
      <trkpt lat="48.59844" lon="-2.54983">
        <ele>30.4</ele>
        <time>2016-07-06T14:15:52Z</time>
      </trkpt>
      <trkpt lat="48.59852" lon="-2.54994">
        <ele>30</ele>
        <time>2016-07-06T14:15:59Z</time>
      </trkpt>
      <trkpt lat="48.59853" lon="-2.55008">
        <ele>29.3</ele>
        <time>2016-07-06T14:16:07Z</time>
      </trkpt>
      <trkpt lat="48.59857" lon="-2.55021">
        <ele>30.3</ele>
        <time>2016-07-06T14:16:22Z</time>
      </trkpt>
      <trkpt lat="48.59855" lon="-2.55039">
        <ele>31.4</ele>
        <time>2016-07-06T14:16:31Z</time>
      </trkpt>
      <trkpt lat="48.59855" lon="-2.55054">
        <ele>31.9</ele>
        <time>2016-07-06T14:16:44Z</time>
      </trkpt>
      <trkpt lat="48.5986" lon="-2.55065">
        <ele>32.1</ele>
        <time>2016-07-06T14:16:55Z</time>
      </trkpt>
      <trkpt lat="48.59867" lon="-2.55074">
        <ele>33.9</ele>
        <time>2016-07-06T14:17:17Z</time>
      </trkpt>
      <trkpt lat="48.59872" lon="-2.55087">
        <ele>34</ele>
        <time>2016-07-06T14:17:51Z</time>
      </trkpt>
      <trkpt lat="48.59871" lon="-2.55102">
        <ele>34.8</ele>
        <time>2016-07-06T14:18:06Z</time>
      </trkpt>
      <trkpt lat="48.59872" lon="-2.55116">
        <ele>34.9</ele>
        <time>2016-07-06T14:18:14Z</time>
      </trkpt>
      <trkpt lat="48.59869" lon="-2.5513">
        <ele>34.9</ele>
        <time>2016-07-06T14:18:20Z</time>
      </trkpt>
      <trkpt lat="48.59866" lon="-2.55143">
        <ele>34.9</ele>
        <time>2016-07-06T14:18:26Z</time>
      </trkpt>
      <trkpt lat="48.59865" lon="-2.55157">
        <ele>35.4</ele>
        <time>2016-07-06T14:18:33Z</time>
      </trkpt>
      <trkpt lat="48.59868" lon="-2.5517">
        <ele>35.5</ele>
        <time>2016-07-06T14:18:41Z</time>
      </trkpt>
      <trkpt lat="48.59869" lon="-2.55184">
        <ele>36.5</ele>
        <time>2016-07-06T14:18:51Z</time>
      </trkpt>
      <trkpt lat="48.59868" lon="-2.55199">
        <ele>37.5</ele>
        <time>2016-07-06T14:18:59Z</time>
      </trkpt>
      <trkpt lat="48.59868" lon="-2.55214">
        <ele>38.4</ele>
        <time>2016-07-06T14:19:09Z</time>
      </trkpt>
      <trkpt lat="48.59875" lon="-2.55226">
        <ele>38.8</ele>
        <time>2016-07-06T14:19:15Z</time>
      </trkpt>
      <trkpt lat="48.59873" lon="-2.5524">
        <ele>40.5</ele>
        <time>2016-07-06T14:19:30Z</time>
      </trkpt>
      <trkpt lat="48.59879" lon="-2.5525">
        <ele>40.3</ele>
        <time>2016-07-06T14:19:59Z</time>
      </trkpt>
      <trkpt lat="48.59885" lon="-2.55262">
        <ele>41.3</ele>
        <time>2016-07-06T14:20:05Z</time>
      </trkpt>
      <trkpt lat="48.59893" lon="-2.55271">
        <ele>41.9</ele>
        <time>2016-07-06T14:20:14Z</time>
      </trkpt>
      <trkpt lat="48.59899" lon="-2.55282">
        <ele>42.6</ele>
        <time>2016-07-06T14:20:27Z</time>
      </trkpt>
      <trkpt lat="48.59906" lon="-2.55291">
        <ele>43.4</ele>
        <time>2016-07-06T14:20:34Z</time>
      </trkpt>
      <trkpt lat="48.59915" lon="-2.55296">
        <ele>44.2</ele>
        <time>2016-07-06T14:20:41Z</time>
      </trkpt>
      <trkpt lat="48.59924" lon="-2.55304">
        <ele>44.1</ele>
        <time>2016-07-06T14:20:53Z</time>
      </trkpt>
      <trkpt lat="48.59919" lon="-2.55317">
        <ele>43.7</ele>
        <time>2016-07-06T14:21:16Z</time>
      </trkpt>
      <trkpt lat="48.59918" lon="-2.55331">
        <ele>41.6</ele>
        <time>2016-07-06T14:21:25Z</time>
      </trkpt>
      <trkpt lat="48.59921" lon="-2.55345">
        <ele>40</ele>
        <time>2016-07-06T14:21:35Z</time>
      </trkpt>
      <trkpt lat="48.59914" lon="-2.55354">
        <ele>39.9</ele>
        <time>2016-07-06T14:21:42Z</time>
      </trkpt>
      <trkpt lat="48.59906" lon="-2.55361">
        <ele>39.3</ele>
        <time>2016-07-06T14:21:48Z</time>
      </trkpt>
      <trkpt lat="48.59899" lon="-2.55371">
        <ele>40.1</ele>
        <time>2016-07-06T14:21:54Z</time>
      </trkpt>
      <trkpt lat="48.59892" lon="-2.5538">
        <ele>39.9</ele>
        <time>2016-07-06T14:21:59Z</time>
      </trkpt>
      <trkpt lat="48.59884" lon="-2.55388">
        <ele>39.6</ele>
        <time>2016-07-06T14:22:06Z</time>
      </trkpt>
      <trkpt lat="48.59873" lon="-2.55392">
        <ele>40.2</ele>
        <time>2016-07-06T14:22:19Z</time>
      </trkpt>
      <trkpt lat="48.59863" lon="-2.55393">
        <ele>39.6</ele>
        <time>2016-07-06T14:22:25Z</time>
      </trkpt>
      <trkpt lat="48.59855" lon="-2.55398">
        <ele>39.3</ele>
        <time>2016-07-06T14:22:29Z</time>
      </trkpt>
      <trkpt lat="48.59845" lon="-2.55401">
        <ele>39</ele>
        <time>2016-07-06T14:22:41Z</time>
      </trkpt>
      <trkpt lat="48.59837" lon="-2.55409">
        <ele>36.1</ele>
        <time>2016-07-06T14:22:58Z</time>
      </trkpt>
      <trkpt lat="48.5983" lon="-2.55418">
        <ele>35.7</ele>
        <time>2016-07-06T14:23:06Z</time>
      </trkpt>
      <trkpt lat="48.59821" lon="-2.55424">
        <ele>35.1</ele>
        <time>2016-07-06T14:23:11Z</time>
      </trkpt>
      <trkpt lat="48.5981" lon="-2.5543">
        <ele>35.1</ele>
        <time>2016-07-06T14:23:20Z</time>
      </trkpt>
      <trkpt lat="48.59801" lon="-2.55429">
        <ele>34</ele>
        <time>2016-07-06T14:23:28Z</time>
      </trkpt>
      <trkpt lat="48.59791" lon="-2.55429">
        <ele>32.2</ele>
        <time>2016-07-06T14:23:40Z</time>
      </trkpt>
      <trkpt lat="48.59782" lon="-2.55424">
        <ele>31.1</ele>
        <time>2016-07-06T14:23:48Z</time>
      </trkpt>
      <trkpt lat="48.59788" lon="-2.55436">
        <ele>28.8</ele>
        <time>2016-07-06T14:25:13Z</time>
      </trkpt>
      <trkpt lat="48.5979" lon="-2.55449">
        <ele>24.7</ele>
        <time>2016-07-06T14:25:30Z</time>
      </trkpt>
      <trkpt lat="48.59783" lon="-2.55459">
        <ele>23.7</ele>
        <time>2016-07-06T14:26:37Z</time>
      </trkpt>
      <trkpt lat="48.59792" lon="-2.55461">
        <ele>20.9</ele>
        <time>2016-07-06T14:27:04Z</time>
      </trkpt>
      <trkpt lat="48.59784" lon="-2.55467">
        <ele>15.1</ele>
        <time>2016-07-06T14:27:35Z</time>
      </trkpt>
      <trkpt lat="48.59775" lon="-2.55469">
        <ele>13.6</ele>
        <time>2016-07-06T14:27:44Z</time>
      </trkpt>
      <trkpt lat="48.59769" lon="-2.55458">
        <ele>12.1</ele>
        <time>2016-07-06T14:27:54Z</time>
      </trkpt>
      <trkpt lat="48.59761" lon="-2.55463">
        <ele>11.7</ele>
        <time>2016-07-06T14:29:44Z</time>
      </trkpt>
      <trkpt lat="48.59754" lon="-2.55454">
        <ele>11.2</ele>
        <time>2016-07-06T14:30:24Z</time>
      </trkpt>
      <trkpt lat="48.59749" lon="-2.55442">
        <ele>11.9</ele>
        <time>2016-07-06T14:30:33Z</time>
      </trkpt>
      <trkpt lat="48.59744" lon="-2.5543">
        <ele>12.4</ele>
        <time>2016-07-06T14:30:44Z</time>
      </trkpt>
      <trkpt lat="48.59738" lon="-2.55418">
        <ele>12.7</ele>
        <time>2016-07-06T14:30:52Z</time>
      </trkpt>
      <trkpt lat="48.59732" lon="-2.55407">
        <ele>12.3</ele>
        <time>2016-07-06T14:30:59Z</time>
      </trkpt>
      <trkpt lat="48.59726" lon="-2.55397">
        <ele>12.3</ele>
        <time>2016-07-06T14:31:07Z</time>
      </trkpt>
      <trkpt lat="48.59719" lon="-2.55385">
        <ele>12.4</ele>
        <time>2016-07-06T14:31:15Z</time>
      </trkpt>
      <trkpt lat="48.59713" lon="-2.55375">
        <ele>11.9</ele>
        <time>2016-07-06T14:31:22Z</time>
      </trkpt>
      <trkpt lat="48.59706" lon="-2.55364">
        <ele>12.4</ele>
        <time>2016-07-06T14:31:30Z</time>
      </trkpt>
      <trkpt lat="48.59701" lon="-2.55352">
        <ele>12.3</ele>
        <time>2016-07-06T14:31:39Z</time>
      </trkpt>
      <trkpt lat="48.59698" lon="-2.55339">
        <ele>11.7</ele>
        <time>2016-07-06T14:31:49Z</time>
      </trkpt>
      <trkpt lat="48.59694" lon="-2.55325">
        <ele>11.9</ele>
        <time>2016-07-06T14:31:57Z</time>
      </trkpt>
      <trkpt lat="48.59695" lon="-2.55312">
        <ele>12.9</ele>
        <time>2016-07-06T14:32:05Z</time>
      </trkpt>
      <trkpt lat="48.59697" lon="-2.55297">
        <ele>13</ele>
        <time>2016-07-06T14:32:14Z</time>
      </trkpt>
      <trkpt lat="48.59696" lon="-2.55312">
        <ele>12</ele>
        <time>2016-07-06T14:32:41Z</time>
      </trkpt>
      <trkpt lat="48.59694" lon="-2.55326">
        <ele>8.8</ele>
        <time>2016-07-06T14:32:49Z</time>
      </trkpt>
      <trkpt lat="48.59692" lon="-2.5534">
        <ele>8.1</ele>
        <time>2016-07-06T14:32:58Z</time>
      </trkpt>
      <trkpt lat="48.5969" lon="-2.55354">
        <ele>6.8</ele>
        <time>2016-07-06T14:33:07Z</time>
      </trkpt>
      <trkpt lat="48.59683" lon="-2.55365">
        <ele>6</ele>
        <time>2016-07-06T14:33:15Z</time>
      </trkpt>
      <trkpt lat="48.59675" lon="-2.55375">
        <ele>5.2</ele>
        <time>2016-07-06T14:33:23Z</time>
      </trkpt>
      <trkpt lat="48.59665" lon="-2.55378">
        <ele>4</ele>
        <time>2016-07-06T14:33:31Z</time>
      </trkpt>
      <trkpt lat="48.59656" lon="-2.55378">
        <ele>3.8</ele>
        <time>2016-07-06T14:33:39Z</time>
      </trkpt>
      <trkpt lat="48.59646" lon="-2.55376">
        <ele>3.9</ele>
        <time>2016-07-06T14:33:48Z</time>
      </trkpt>
      <trkpt lat="48.59636" lon="-2.55375">
        <ele>4.7</ele>
        <time>2016-07-06T14:33:56Z</time>
      </trkpt>
      <trkpt lat="48.59627" lon="-2.55377">
        <ele>4.1</ele>
        <time>2016-07-06T14:34:04Z</time>
      </trkpt>
      <trkpt lat="48.59617" lon="-2.55378">
        <ele>4.8</ele>
        <time>2016-07-06T14:34:13Z</time>
      </trkpt>
      <trkpt lat="48.59607" lon="-2.5538">
        <ele>4.3</ele>
        <time>2016-07-06T14:34:21Z</time>
      </trkpt>
      <trkpt lat="48.59598" lon="-2.55382">
        <ele>3.8</ele>
        <time>2016-07-06T14:34:30Z</time>
      </trkpt>
      <trkpt lat="48.59589" lon="-2.55386">
        <ele>4.1</ele>
        <time>2016-07-06T14:34:39Z</time>
      </trkpt>
      <trkpt lat="48.5958" lon="-2.55389">
        <ele>4.5</ele>
        <time>2016-07-06T14:34:47Z</time>
      </trkpt>
      <trkpt lat="48.5957" lon="-2.55391">
        <ele>3.8</ele>
        <time>2016-07-06T14:34:57Z</time>
      </trkpt>
      <trkpt lat="48.5956" lon="-2.55396">
        <ele>4.3</ele>
        <time>2016-07-06T14:35:05Z</time>
      </trkpt>
      <trkpt lat="48.59551" lon="-2.55399">
        <ele>3.7</ele>
        <time>2016-07-06T14:35:13Z</time>
      </trkpt>
      <trkpt lat="48.59541" lon="-2.55402">
        <ele>3.1</ele>
        <time>2016-07-06T14:35:21Z</time>
      </trkpt>
      <trkpt lat="48.59532" lon="-2.55405">
        <ele>3.3</ele>
        <time>2016-07-06T14:35:46Z</time>
      </trkpt>
      <trkpt lat="48.59522" lon="-2.55408">
        <ele>3.4</ele>
        <time>2016-07-06T14:35:54Z</time>
      </trkpt>
      <trkpt lat="48.59513" lon="-2.55409">
        <ele>3.7</ele>
        <time>2016-07-06T14:36:02Z</time>
      </trkpt>
      <trkpt lat="48.59503" lon="-2.55411">
        <ele>3.1</ele>
        <time>2016-07-06T14:36:10Z</time>
      </trkpt>
      <trkpt lat="48.59494" lon="-2.55412">
        <ele>-3.5</ele>
        <time>2016-07-06T14:36:19Z</time>
      </trkpt>
      <trkpt lat="48.59484" lon="-2.55416">
        <ele>5.6</ele>
        <time>2016-07-06T14:36:28Z</time>
      </trkpt>
      <trkpt lat="48.59474" lon="-2.5542">
        <ele>5.2</ele>
        <time>2016-07-06T14:36:36Z</time>
      </trkpt>
      <trkpt lat="48.59464" lon="-2.55424">
        <ele>5</ele>
        <time>2016-07-06T14:36:44Z</time>
      </trkpt>
      <trkpt lat="48.59455" lon="-2.55428">
        <ele>4.6</ele>
        <time>2016-07-06T14:36:52Z</time>
      </trkpt>
      <trkpt lat="48.59445" lon="-2.55431">
        <ele>4</ele>
        <time>2016-07-06T14:37:01Z</time>
      </trkpt>
      <trkpt lat="48.59437" lon="-2.55434">
        <ele>3.8</ele>
        <time>2016-07-06T14:37:09Z</time>
      </trkpt>
      <trkpt lat="48.59427" lon="-2.55439">
        <ele>3.2</ele>
        <time>2016-07-06T14:37:17Z</time>
      </trkpt>
      <trkpt lat="48.59418" lon="-2.55444">
        <ele>3.1</ele>
        <time>2016-07-06T14:37:25Z</time>
      </trkpt>
      <trkpt lat="48.59409" lon="-2.55448">
        <ele>3.1</ele>
        <time>2016-07-06T14:37:33Z</time>
      </trkpt>
      <trkpt lat="48.594" lon="-2.55453">
        <ele>3</ele>
        <time>2016-07-06T14:37:40Z</time>
      </trkpt>
      <trkpt lat="48.59391" lon="-2.55458">
        <ele>2.9</ele>
        <time>2016-07-06T14:37:48Z</time>
      </trkpt>
      <trkpt lat="48.59383" lon="-2.55463">
        <ele>3.1</ele>
        <time>2016-07-06T14:37:55Z</time>
      </trkpt>
      <trkpt lat="48.59374" lon="-2.55468">
        <ele>2.9</ele>
        <time>2016-07-06T14:38:03Z</time>
      </trkpt>
      <trkpt lat="48.59365" lon="-2.55472">
        <ele>2.9</ele>
        <time>2016-07-06T14:38:13Z</time>
      </trkpt>
      <trkpt lat="48.59355" lon="-2.55473">
        <ele>3.4</ele>
        <time>2016-07-06T14:39:16Z</time>
      </trkpt>
      <trkpt lat="48.59346" lon="-2.55471">
        <ele>3.4</ele>
        <time>2016-07-06T14:39:28Z</time>
      </trkpt>
      <trkpt lat="48.59336" lon="-2.55471">
        <ele>3.5</ele>
        <time>2016-07-06T14:40:01Z</time>
      </trkpt>
      <trkpt lat="48.59327" lon="-2.55477">
        <ele>3.9</ele>
        <time>2016-07-06T14:40:11Z</time>
      </trkpt>
      <trkpt lat="48.59318" lon="-2.55482">
        <ele>3.5</ele>
        <time>2016-07-06T14:40:20Z</time>
      </trkpt>
      <trkpt lat="48.59309" lon="-2.55489">
        <ele>4.2</ele>
        <time>2016-07-06T14:40:28Z</time>
      </trkpt>
      <trkpt lat="48.593" lon="-2.55495">
        <ele>4.3</ele>
        <time>2016-07-06T14:40:35Z</time>
      </trkpt>
      <trkpt lat="48.59292" lon="-2.55501">
        <ele>4.3</ele>
        <time>2016-07-06T14:40:42Z</time>
      </trkpt>
      <trkpt lat="48.59283" lon="-2.55506">
        <ele>3.7</ele>
        <time>2016-07-06T14:40:49Z</time>
      </trkpt>
      <trkpt lat="48.59275" lon="-2.55513">
        <ele>4.2</ele>
        <time>2016-07-06T14:40:57Z</time>
      </trkpt>
      <trkpt lat="48.59266" lon="-2.5552">
        <ele>4.1</ele>
        <time>2016-07-06T14:41:05Z</time>
      </trkpt>
      <trkpt lat="48.59257" lon="-2.55526">
        <ele>4.5</ele>
        <time>2016-07-06T14:41:14Z</time>
      </trkpt>
      <trkpt lat="48.59248" lon="-2.55533">
        <ele>4.8</ele>
        <time>2016-07-06T14:41:21Z</time>
      </trkpt>
      <trkpt lat="48.5924" lon="-2.55539">
        <ele>4.3</ele>
        <time>2016-07-06T14:41:29Z</time>
      </trkpt>
      <trkpt lat="48.59231" lon="-2.55544">
        <ele>3.6</ele>
        <time>2016-07-06T14:41:37Z</time>
      </trkpt>
      <trkpt lat="48.59222" lon="-2.5555">
        <ele>3.8</ele>
        <time>2016-07-06T14:41:45Z</time>
      </trkpt>
      <trkpt lat="48.59213" lon="-2.55557">
        <ele>3.6</ele>
        <time>2016-07-06T14:41:53Z</time>
      </trkpt>
      <trkpt lat="48.59204" lon="-2.55563">
        <ele>3.8</ele>
        <time>2016-07-06T14:42:01Z</time>
      </trkpt>
      <trkpt lat="48.59196" lon="-2.55569">
        <ele>4</ele>
        <time>2016-07-06T14:42:09Z</time>
      </trkpt>
      <trkpt lat="48.59187" lon="-2.55575">
        <ele>4.2</ele>
        <time>2016-07-06T14:42:16Z</time>
      </trkpt>
      <trkpt lat="48.59178" lon="-2.55582">
        <ele>4</ele>
        <time>2016-07-06T14:42:24Z</time>
      </trkpt>
      <trkpt lat="48.5917" lon="-2.55588">
        <ele>4.3</ele>
        <time>2016-07-06T14:42:31Z</time>
      </trkpt>
      <trkpt lat="48.59161" lon="-2.55593">
        <ele>4.2</ele>
        <time>2016-07-06T14:42:39Z</time>
      </trkpt>
      <trkpt lat="48.59151" lon="-2.55598">
        <ele>3.8</ele>
        <time>2016-07-06T14:42:47Z</time>
      </trkpt>
      <trkpt lat="48.59142" lon="-2.55604">
        <ele>4</ele>
        <time>2016-07-06T14:42:55Z</time>
      </trkpt>
      <trkpt lat="48.59133" lon="-2.55607">
        <ele>4.2</ele>
        <time>2016-07-06T14:43:03Z</time>
      </trkpt>
      <trkpt lat="48.59124" lon="-2.55611">
        <ele>4.6</ele>
        <time>2016-07-06T14:43:10Z</time>
      </trkpt>
      <trkpt lat="48.59115" lon="-2.55616">
        <ele>4.1</ele>
        <time>2016-07-06T14:43:18Z</time>
      </trkpt>
      <trkpt lat="48.59106" lon="-2.5562">
        <ele>3.7</ele>
        <time>2016-07-06T14:43:25Z</time>
      </trkpt>
      <trkpt lat="48.59097" lon="-2.55624">
        <ele>4.3</ele>
        <time>2016-07-06T14:43:33Z</time>
      </trkpt>
      <trkpt lat="48.59087" lon="-2.55629">
        <ele>5</ele>
        <time>2016-07-06T14:43:41Z</time>
      </trkpt>
      <trkpt lat="48.59078" lon="-2.55633">
        <ele>5.6</ele>
        <time>2016-07-06T14:43:49Z</time>
      </trkpt>
      <trkpt lat="48.59068" lon="-2.55638">
        <ele>4.9</ele>
        <time>2016-07-06T14:43:57Z</time>
      </trkpt>
      <trkpt lat="48.59059" lon="-2.55643">
        <ele>4.6</ele>
        <time>2016-07-06T14:44:05Z</time>
      </trkpt>
      <trkpt lat="48.59049" lon="-2.55648">
        <ele>5.2</ele>
        <time>2016-07-06T14:44:13Z</time>
      </trkpt>
      <trkpt lat="48.59039" lon="-2.55651">
        <ele>5.2</ele>
        <time>2016-07-06T14:44:21Z</time>
      </trkpt>
      <trkpt lat="48.5903" lon="-2.55654">
        <ele>5.6</ele>
        <time>2016-07-06T14:44:29Z</time>
      </trkpt>
      <trkpt lat="48.5902" lon="-2.55655">
        <ele>5.6</ele>
        <time>2016-07-06T14:44:37Z</time>
      </trkpt>
      <trkpt lat="48.59011" lon="-2.55658">
        <ele>5.2</ele>
        <time>2016-07-06T14:44:45Z</time>
      </trkpt>
      <trkpt lat="48.59001" lon="-2.55659">
        <ele>5.4</ele>
        <time>2016-07-06T14:44:53Z</time>
      </trkpt>
      <trkpt lat="48.58991" lon="-2.55662">
        <ele>6</ele>
        <time>2016-07-06T14:45:01Z</time>
      </trkpt>
      <trkpt lat="48.58981" lon="-2.55665">
        <ele>5.9</ele>
        <time>2016-07-06T14:45:09Z</time>
      </trkpt>
      <trkpt lat="48.58972" lon="-2.55667">
        <ele>5.6</ele>
        <time>2016-07-06T14:45:17Z</time>
      </trkpt>
      <trkpt lat="48.58962" lon="-2.55667">
        <ele>5.7</ele>
        <time>2016-07-06T14:45:24Z</time>
      </trkpt>
      <trkpt lat="48.58953" lon="-2.55668">
        <ele>6.1</ele>
        <time>2016-07-06T14:45:31Z</time>
      </trkpt>
      <trkpt lat="48.58944" lon="-2.55668">
        <ele>5.8</ele>
        <time>2016-07-06T14:45:39Z</time>
      </trkpt>
      <trkpt lat="48.58934" lon="-2.55668">
        <ele>6.1</ele>
        <time>2016-07-06T14:45:47Z</time>
      </trkpt>
      <trkpt lat="48.58925" lon="-2.55666">
        <ele>6.3</ele>
        <time>2016-07-06T14:45:55Z</time>
      </trkpt>
      <trkpt lat="48.58915" lon="-2.55665">
        <ele>6.6</ele>
        <time>2016-07-06T14:46:03Z</time>
      </trkpt>
      <trkpt lat="48.58906" lon="-2.55665">
        <ele>6.8</ele>
        <time>2016-07-06T14:46:11Z</time>
      </trkpt>
      <trkpt lat="48.58897" lon="-2.55664">
        <ele>6.9</ele>
        <time>2016-07-06T14:46:19Z</time>
      </trkpt>
      <trkpt lat="48.58887" lon="-2.5566">
        <ele>7.6</ele>
        <time>2016-07-06T14:46:26Z</time>
      </trkpt>
      <trkpt lat="48.58878" lon="-2.55658">
        <ele>7.2</ele>
        <time>2016-07-06T14:46:34Z</time>
      </trkpt>
      <trkpt lat="48.58868" lon="-2.55657">
        <ele>7.4</ele>
        <time>2016-07-06T14:46:42Z</time>
      </trkpt>
      <trkpt lat="48.58858" lon="-2.55656">
        <ele>7.6</ele>
        <time>2016-07-06T14:46:50Z</time>
      </trkpt>
      <trkpt lat="48.58851" lon="-2.55646">
        <ele>11.5</ele>
        <time>2016-07-06T14:47:21Z</time>
      </trkpt>
      <trkpt lat="48.58846" lon="-2.55635">
        <ele>12.6</ele>
        <time>2016-07-06T14:47:37Z</time>
      </trkpt>
      <trkpt lat="48.5884" lon="-2.55623">
        <ele>13.6</ele>
        <time>2016-07-06T14:47:48Z</time>
      </trkpt>
      <trkpt lat="48.58835" lon="-2.55611">
        <ele>13.3</ele>
        <time>2016-07-06T14:47:57Z</time>
      </trkpt>
      <trkpt lat="48.5883" lon="-2.55599">
        <ele>13.6</ele>
        <time>2016-07-06T14:48:07Z</time>
      </trkpt>
      <trkpt lat="48.58823" lon="-2.55589">
        <ele>13.5</ele>
        <time>2016-07-06T14:48:17Z</time>
      </trkpt>
      <trkpt lat="48.58814" lon="-2.55581">
        <ele>13.4</ele>
        <time>2016-07-06T14:48:25Z</time>
      </trkpt>
      <trkpt lat="48.58805" lon="-2.55586">
        <ele>14.7</ele>
        <time>2016-07-06T14:48:46Z</time>
      </trkpt>
      <trkpt lat="48.58798" lon="-2.55593">
        <ele>14.1</ele>
        <time>2016-07-06T14:48:54Z</time>
      </trkpt>
      <trkpt lat="48.5879" lon="-2.55601">
        <ele>13.4</ele>
        <time>2016-07-06T14:49:05Z</time>
      </trkpt>
      <trkpt lat="48.58781" lon="-2.55609">
        <ele>13.6</ele>
        <time>2016-07-06T14:49:14Z</time>
      </trkpt>
      <trkpt lat="48.58776" lon="-2.55621">
        <ele>13.6</ele>
        <time>2016-07-06T14:49:25Z</time>
      </trkpt>
      <trkpt lat="48.58768" lon="-2.55629">
        <ele>13.4</ele>
        <time>2016-07-06T14:49:30Z</time>
      </trkpt>
      <trkpt lat="48.58762" lon="-2.5564">
        <ele>13.4</ele>
        <time>2016-07-06T14:49:39Z</time>
      </trkpt>
      <trkpt lat="48.58753" lon="-2.55647">
        <ele>13.1</ele>
        <time>2016-07-06T14:49:46Z</time>
      </trkpt>
      <trkpt lat="48.58746" lon="-2.55657">
        <ele>13</ele>
        <time>2016-07-06T14:50:02Z</time>
      </trkpt>
      <trkpt lat="48.58739" lon="-2.55667">
        <ele>12.8</ele>
        <time>2016-07-06T14:50:19Z</time>
      </trkpt>
      <trkpt lat="48.58732" lon="-2.55676">
        <ele>12.6</ele>
        <time>2016-07-06T14:50:28Z</time>
      </trkpt>
      <trkpt lat="48.58725" lon="-2.55687">
        <ele>12</ele>
        <time>2016-07-06T14:50:34Z</time>
      </trkpt>
      <trkpt lat="48.58718" lon="-2.55697">
        <ele>13.1</ele>
        <time>2016-07-06T14:50:41Z</time>
      </trkpt>
      <trkpt lat="48.58709" lon="-2.55704">
        <ele>12.6</ele>
        <time>2016-07-06T14:50:49Z</time>
      </trkpt>
      <trkpt lat="48.58702" lon="-2.55714">
        <ele>11.9</ele>
        <time>2016-07-06T14:50:56Z</time>
      </trkpt>
      <trkpt lat="48.58695" lon="-2.55722">
        <ele>11.8</ele>
        <time>2016-07-06T14:51:03Z</time>
      </trkpt>
      <trkpt lat="48.58688" lon="-2.55732">
        <ele>11.4</ele>
        <time>2016-07-06T14:51:11Z</time>
      </trkpt>
      <trkpt lat="48.5868" lon="-2.55741">
        <ele>11.9</ele>
        <time>2016-07-06T14:51:19Z</time>
      </trkpt>
      <trkpt lat="48.58672" lon="-2.55752">
        <ele>11.8</ele>
        <time>2016-07-06T14:51:27Z</time>
      </trkpt>
      <trkpt lat="48.58665" lon="-2.5576">
        <ele>11.8</ele>
        <time>2016-07-06T14:51:35Z</time>
      </trkpt>
      <trkpt lat="48.58657" lon="-2.55768">
        <ele>11.9</ele>
        <time>2016-07-06T14:51:41Z</time>
      </trkpt>
      <trkpt lat="48.58648" lon="-2.5577">
        <ele>10.8</ele>
        <time>2016-07-06T14:52:00Z</time>
      </trkpt>
      <trkpt lat="48.58639" lon="-2.55776">
        <ele>11.3</ele>
        <time>2016-07-06T14:52:08Z</time>
      </trkpt>
      <trkpt lat="48.58634" lon="-2.55788">
        <ele>11.3</ele>
        <time>2016-07-06T14:52:26Z</time>
      </trkpt>
      <trkpt lat="48.58629" lon="-2.55792">
        <ele>10.9</ele>
        <time>2016-07-06T14:52:56Z</time>
      </trkpt>
    </trkseg>
  </trk>
</gpx>